[[{"header":{"parameterUnit":"m.s-1","parameterCategory":1,"la1":30.6,"la2":29.2853,"lo1":-89.7004,"lo2":-87.6739,"dy":0.0162,"dx":0.0183,"nx":112,"ny":82,"refTime":"2023-09-29T18:00:00:Z","depth":0,"parameterNumber":2,"parameterNumberName":"U-component_of_WINDS"},"data":[0.0,0.0,0.0,0.0,0.0,0.0,0.0,0.0,0.0,0.0,0.0,0.0,0.0,0.0,0.0,0.0,0.0,0.0,0.0,0.0,0.0,0.0,0.0,0.0,0.0,0.0,0.0,0.0,0.0,0.0,0.0,0.0,0.0,0.0,0.0,0.0,0.0,0.0,0.0,0.0,0.0,0.0,0.0,0.0,0.0,0.0,0.0,0.0,0.0,0.0,0.0,0.0,0.0,0.0,0.0,0.0,0.0,0.0,0.0,0.0,0.0,0.0,0.0,0.0,0.0,0.0,0.0,0.0,0.0,0.0,0.0,0.0,0.0,0.0,0.0,0.0,0.0,0.0,0.0,0.0,0.0,0.0,0.0,0.0,0.0,0.0,0.0,0.0,0.0,0.0,0.618,0.4889,0.459,0.528,0.7247,0.5091,0.4393,0.6145,0.0,0.0,0.0,0.0,0.0,0.0,0.0,0.0,0.0,0.0,0.0,0.0,0.0,0.0,0.0,0.0,0.0,0.0,0.0,0.0,0.0,0.0,0.0,0.0,0.0,0.0,0.0,0.0,0.0,0.0,0.0,0.0,0.0,0.0,0.0,0.0,0.0,0.0,0.0,0.0,0.0,0.0,0.0,0.0,0.0,0.0,0.0,0.0,0.0,0.0,0.0,0.0,0.0,0.0,0.0,0.0,0.0,0.0,0.0,0.0,0.0,0.0,0.0,0.0,0.0,0.0,0.0,0.0,0.0,0.0,0.0,0.0,0.0,0.0,0.0,0.0,0.0,0.0,0.0,0.0,0.0,0.0,0.0,0.0,0.0,0.0,0.0,0.0,0.0,0.0,0.0,0.0,0.0,0.0,0.0,0.0,0.0,0.0,0.0,0.0,0.0,0.0,0.0,0.0,0.6058,0.7132,0.6338,0.617,0.7309,0.5824,0.5189,0.5985,0.0,0.0,0.0,0.0,0.0,0.0,0.0,0.0,0.0,0.0,0.0,0.0,0.0,0.0,0.0,0.0,0.0,0.0,0.0,0.0,0.0,0.0,0.0,0.0,0.0,0.0,0.0,0.0,0.0,0.0,0.0,0.0,0.0,0.0,0.0,0.0,0.0,0.0,0.0,0.0,0.0,0.0,0.0,0.0,0.0,0.0,0.0,0.0,0.0,0.0,0.0,0.0,0.0,0.0,0.0,0.0,0.0,0.0,0.0,0.0,0.0,0.0,0.0,0.0,0.0,0.0,0.0,0.0,0.0,0.0,0.0,0.0,0.0,0.0,0.0,0.0,0.0,0.0,0.0,0.0,0.0,0.0,0.0,0.0,0.0,0.0,0.0,0.0,0.0,0.0,0.0,0.0,0.0,0.0,0.0,0.0,0.0,0.0,0.0,0.0,0.0,0.0,0.0,0.5248,0.6288,0.7742,0.6768,0.6397,0.7429,0.5958,0.5388,0.6318,0.6152,0.0,0.0,0.0,0.0,0.0,0.0,0.0,0.0,0.0,0.0,0.0,0.0,0.0,0.0,0.0,0.0,0.0,0.0,0.0,0.0,0.0,0.0,0.0,0.0,0.0,0.0,0.0,0.0,0.0,0.0,0.0,0.0,0.0,0.0,0.0,0.0,0.0,0.0,0.0,0.0,0.0,0.0,0.0,0.0,0.0,0.0,0.0,0.0,0.0,0.0,0.0,0.0,0.0,0.0,0.0,0.0,0.0,0.0,0.0,0.0,0.0,0.0,0.0,0.0,0.0,0.0,0.0,0.0,0.0,0.0,0.0,0.0,0.0,0.0,0.0,0.0,0.0,0.0,0.0,0.0,0.0,0.0,0.0,0.0,0.0,0.0,0.0,0.0,0.0,0.0,0.0,0.0,0.0,0.0,0.0,0.0,0.0,0.0,0.0,0.0,0.0,0.0,0.5859,0.6476,0.7855,0.7056,0.6746,0.7523,0.6207,0.5695,0.6592,0.6284,0.0,0.0,0.0,0.0,0.0,0.0,0.0,0.0,0.0,0.0,0.0,0.0,0.0,0.0,0.0,0.0,0.0,0.0,0.0,0.0,0.0,0.0,0.0,0.0,0.0,0.0,0.0,0.0,0.0,0.0,0.0,0.0,0.0,0.0,0.0,0.0,0.0,0.0,0.0,0.0,0.0,0.0,0.0,0.0,0.0,0.0,0.0,0.0,0.0,0.0,0.0,0.0,0.0,0.0,0.0,0.0,0.0,0.0,0.0,0.0,0.0,0.0,0.0,0.0,0.0,0.0,0.0,0.0,0.0,0.0,0.0,0.0,0.0,0.0,0.0,0.0,0.0,0.0,0.0,0.0,0.0,0.0,0.0,0.0,0.0,0.0,0.0,0.0,0.0,0.0,0.0,0.0,0.0,0.0,0.0,0.0,0.0,0.0,0.0,0.0,0.0,0.0,0.5719,0.638,0.7831,0.7811,0.7647,0.7611,0.6967,0.6565,0.6518,0.67,0.0,0.0,0.0,0.0,0.0,0.0,0.0,0.0,0.0,0.0,0.0,0.0,0.0,0.0,0.0,0.0,0.0,0.0,0.0,0.0,0.0,0.0,0.0,0.0,0.0,0.0,0.0,0.0,0.0,0.0,0.0,0.0,0.0,0.0,0.0,0.0,0.0,0.0,0.0,0.0,0.0,0.0,0.0,0.0,0.0,0.0,0.0,0.0,0.0,0.0,0.0,0.0,0.0,0.0,0.0,0.0,0.0,0.0,0.0,0.0,0.0,0.0,0.0,0.0,0.0,0.0,0.0,0.0,0.0,0.0,0.0,0.0,0.0,0.0,0.0,0.0,0.0,0.0,0.0,0.0,0.0,0.0,0.0,0.0,0.0,0.0,0.0,0.0,0.0,0.0,0.0,0.0,0.0,0.0,0.0,0.0,0.0,0.0,0.0,0.0,0.0,0.0,0.6456,0.7262,0.7809,0.7767,0.7617,0.7491,0.6927,0.6857,0.7517,0.0,0.0,0.0,0.0,0.0,0.0,0.0,0.0,0.0,0.0,0.0,0.0,0.0,0.0,0.0,0.0,0.0,0.0,0.0,0.0,0.0,0.0,0.0,0.0,0.0,0.0,0.0,0.0,0.0,0.0,0.0,0.0,0.0,0.0,0.0,0.0,0.0,0.0,0.0,0.0,0.0,0.0,0.0,0.0,0.0,0.0,0.0,0.0,0.0,0.0,0.0,0.0,0.0,0.0,0.0,0.0,0.0,0.0,0.0,0.0,0.0,0.0,0.0,0.0,0.0,0.0,0.0,0.0,0.0,0.0,0.0,0.0,0.0,0.0,0.0,0.0,0.0,0.0,0.0,0.0,0.0,0.0,0.0,0.0,0.0,0.0,0.0,0.0,0.0,0.0,0.0,0.0,0.0,0.0,0.0,0.0,0.0,0.0,0.0,0.0,0.0,0.0,0.5712,0.6878,0.7814,0.7814,0.7685,0.7516,0.7312,0.7034,0.7215,0.8085,0.0,0.0,0.0,0.0,0.0,0.0,0.0,0.0,0.0,0.0,0.0,0.0,0.0,0.0,0.0,0.0,0.0,0.0,0.0,0.0,0.0,0.0,0.0,0.0,0.0,0.0,0.0,0.0,0.0,0.0,0.0,0.0,0.0,0.0,0.0,0.0,0.0,0.0,0.0,0.0,0.0,0.0,0.0,0.0,0.0,0.0,0.0,0.0,0.0,0.0,0.0,0.0,0.0,0.0,0.0,0.0,0.0,0.0,0.0,0.0,0.0,0.0,0.0,0.0,0.0,0.0,0.0,0.0,0.0,0.0,0.0,0.0,0.0,0.0,0.0,0.0,0.0,0.0,0.0,0.0,0.0,0.0,0.0,0.0,0.0,0.0,0.0,0.0,0.0,0.0,0.0,0.0,0.0,0.0,0.0,0.0,0.0,0.0,0.0,0.0,0.0,0.0,0.5729,0.6886,0.7814,0.7814,0.7685,0.7475,0.7125,0.742,0.7719,0.0,0.0,0.0,0.0,0.0,0.0,0.0,0.0,0.0,0.0,0.0,0.0,0.0,0.0,0.0,0.0,0.0,0.0,0.0,0.0,0.0,0.0,0.0,0.0,0.0,0.0,0.0,0.0,0.0,0.0,0.0,0.0,0.0,0.0,0.0,0.0,0.0,0.0,0.0,0.0,0.0,0.0,0.0,0.0,0.0,0.0,0.0,0.0,0.0,0.0,0.0,0.0,0.0,0.0,0.0,0.0,0.0,0.0,0.0,0.0,0.0,0.0,0.0,0.0,0.0,0.0,0.0,0.0,0.0,0.0,0.0,0.0,0.0,0.0,0.0,0.0,0.0,0.0,0.0,0.0,0.0,0.0,0.0,0.0,0.0,0.0,0.0,0.0,0.0,0.0,0.0,0.0,0.0,0.0,0.0,0.0,0.0,0.0,0.0,0.0,0.0,0.0,0.0,0.6688,0.7323,0.7814,0.7814,0.7685,0.7475,0.7125,0.7581,0.8297,0.9266,0.0,0.0,0.0,0.0,0.0,0.0,0.0,0.0,0.0,0.0,0.0,0.0,0.0,0.0,0.0,0.0,0.0,0.0,0.0,0.0,0.0,0.0,0.0,0.0,0.0,0.0,0.0,0.0,0.0,0.0,0.0,0.0,0.0,0.0,0.0,0.0,0.0,0.0,0.0,0.0,0.0,0.0,0.0,0.0,0.0,0.0,0.0,0.0,0.0,0.0,0.0,0.0,0.0,0.0,0.0,0.0,0.0,0.0,0.0,0.0,0.0,0.0,0.0,0.0,0.0,0.0,0.0,0.0,0.0,0.0,0.0,0.0,0.0,0.0,0.0,0.0,0.0,0.0,0.0,0.0,0.0,0.0,0.0,0.0,0.0,0.0,0.0,0.0,0.0,0.0,0.0,0.0,0.0,0.0,0.0,0.0,0.0,0.0,0.0,0.0,0.0,0.0,0.6602,0.7298,0.7787,0.7733,0.7651,0.7455,0.7045,0.7938,0.8866,0.9677,0.0,0.0,0.0,0.0,0.0,0.0,0.0,0.0,0.0,0.0,0.0,0.0,0.0,0.0,0.0,0.0,0.0,0.0,0.0,0.0,0.0,0.0,0.0,0.0,0.0,0.0,0.0,0.0,0.0,0.0,0.0,0.0,0.0,0.0,0.0,0.0,0.0,0.0,0.0,0.0,0.0,0.0,0.0,0.0,0.0,0.0,0.0,0.0,0.0,0.0,0.0,0.0,0.0,0.0,0.0,0.0,0.0,0.0,0.0,0.0,0.0,0.0,0.0,0.0,0.0,0.0,0.0,0.0,0.0,0.0,0.0,0.0,0.0,0.0,0.0,0.0,0.0,0.0,0.0,0.0,0.0,0.0,0.0,0.0,0.0,0.0,0.0,0.0,0.0,0.0,0.0,0.0,0.0,0.0,0.0,0.0,0.0,0.0,0.0,0.0,0.0,0.0,0.6047,0.7031,0.7753,0.7651,0.7617,0.7421,0.6965,0.8416,0.939,0.9527,0.0,0.0,0.0,0.0,0.0,0.0,0.0,0.0,0.0,0.0,0.0,0.0,0.0,0.0,0.0,0.0,0.0,0.0,0.0,0.0,0.0,0.0,0.0,0.0,0.0,0.0,0.0,0.0,0.0,0.0,0.0,0.0,0.0,0.0,0.0,0.0,0.0,0.0,0.0,0.0,0.0,0.0,0.0,0.0,0.0,0.0,0.0,0.0,0.0,0.0,0.0,0.0,0.0,0.0,0.0,0.0,0.0,0.0,0.0,0.0,0.9522,1.0187,0.0,0.0,0.0,0.0,0.0,0.0,0.0,0.0,0.0,0.0,0.0,0.0,0.0,0.0,0.0,0.0,0.0,0.0,0.0,0.0,0.0,0.0,0.0,0.0,0.0,0.0,0.0,0.0,0.0,0.0,0.0,0.0,0.0,0.0,0.0,0.0,0.0,0.0,0.0,0.0,0.7186,0.7459,0.7726,0.7898,0.7716,0.7461,0.7078,0.8626,0.9676,0.9807,1.1366,0.0,0.0,0.0,0.0,0.0,0.0,0.0,0.0,0.0,0.0,0.0,0.0,0.0,0.0,0.0,0.0,0.0,0.0,0.0,0.0,0.0,0.0,0.0,0.0,0.0,0.0,0.0,0.0,0.0,0.0,0.0,0.0,0.0,0.0,0.0,0.0,0.0,0.0,0.0,0.0,0.0,0.0,0.0,0.0,0.0,0.0,0.0,0.0,0.0,0.0,0.0,0.0,0.0,0.0,0.0,0.0,0.0,0.0,0.0,0.9383,0.9671,0.0,0.0,0.0,0.0,0.0,0.0,0.0,0.0,0.0,0.0,0.0,0.0,0.0,0.0,0.0,0.0,0.0,0.0,0.0,0.0,0.0,0.0,0.0,0.0,0.0,0.0,0.0,0.0,0.0,0.0,0.0,0.0,0.0,0.0,0.0,0.0,0.0,0.0,0.0,0.0,0.755,0.7658,0.7733,0.7797,0.7692,0.7475,0.7125,0.8305,0.9347,0.9997,1.1225,0.0,0.0,0.0,0.0,0.0,0.0,0.0,0.0,0.0,0.0,0.0,0.0,0.0,0.0,0.0,0.0,0.0,0.0,0.0,0.0,0.0,0.0,0.0,0.0,0.0,0.0,0.0,0.0,0.0,0.0,0.0,0.0,0.0,0.0,0.0,0.0,0.0,0.0,0.0,0.0,0.0,0.0,0.0,0.0,0.0,0.0,0.0,0.0,0.0,0.0,0.0,0.0,0.0,0.6786,0.6825,0.6919,0.7182,0.7296,0.7443,0.9826,0.9511,0.7494,1.0069,0.0,0.0,0.0,0.0,0.0,0.0,0.0,0.0,0.0,0.0,0.0,0.0,0.0,0.0,0.0,0.0,0.0,0.0,0.0,0.0,0.0,0.0,0.5902,0.766,0.8194,0.8097,0.733,0.0,0.0,0.0,0.0,0.0,0.0,0.0,0.0,0.0,0.0,0.0,0.7631,0.7753,0.7773,0.7685,0.7631,0.7475,0.7125,0.7908,0.8818,0.9821,1.0887,1.1825,0.0,0.0,0.0,0.0,0.0,0.0,0.0,0.0,0.0,0.0,0.0,0.0,0.0,0.0,0.0,0.0,0.0,0.0,0.0,0.0,0.0,0.0,0.0,0.0,0.0,0.0,0.0,0.0,0.0,0.0,0.0,0.0,0.2686,0.2378,0.0,0.0,0.0,0.0,0.0,0.0,0.0,0.0,0.0,0.0,0.0,0.0,0.0,0.7017,0.7326,0.676,0.6432,0.6386,0.6841,0.699,0.6938,0.8301,0.8886,0.8955,1.019,0.0,0.8113,0.8869,0.0,0.0,0.0,0.0,0.0,0.0,0.0,0.0,0.0,0.0,0.0,0.0,0.0,0.0,0.0,0.0,0.0,0.0,0.0,0.0,0.0,0.0,0.6207,0.8004,0.8369,0.8301,0.8301,0.8067,0.7851,0.7702,0.7516,0.7342,0.0,0.0,0.0,0.0,0.0,0.0,0.7905,0.7858,0.7831,0.7946,0.7729,0.7475,0.7125,0.7908,0.8467,0.8636,1.0438,1.1652,1.2004,1.2998,0.0,0.0,0.0,0.0,0.0,0.0,0.0,0.0,0.0,0.0,0.0,0.0,0.0,0.0,0.0,0.0,0.0,0.0,0.0,0.0,0.0,0.0,0.0,0.0,0.0,0.0,0.0,0.0,0.0,0.0757,0.1699,0.0936,0.2167,0.2972,0.0,0.0,0.0,0.0,0.0,0.0,0.0,0.0,0.0,0.4895,0.6276,0.7174,0.7485,0.7855,0.8159,0.8384,0.8549,0.8593,0.8549,0.9234,0.9483,0.946,0.9817,0.96,0.9046,0.9872,0.9529,0.857,0.0,0.0,0.0,0.0,0.8888,0.8318,0.8698,0.8843,0.8821,0.8578,0.0,0.0,0.0,0.0,0.0,0.0,0.0,0.3758,0.5304,0.6131,0.6934,0.8507,0.8907,0.8941,0.9002,0.8845,0.8567,0.8248,0.8221,0.8153,0.7828,0.7682,0.0,0.0,0.0,0.7848,0.8133,0.818,0.8147,0.8027,0.7824,0.7597,0.7299,0.7526,0.7946,0.8638,0.9361,1.0409,1.1831,1.2371,1.2875,0.0,0.0,0.0,0.0,0.0,0.0,0.0,0.0,0.0,0.0,0.0,0.0,0.0,0.0,0.0,0.0,0.0,0.0,0.0,0.0,0.0,0.0,0.0,0.0,0.0,0.0,0.0,0.0,-0.0191,0.0934,-0.0123,0.117,0.2227,0.0,0.0,0.0,0.0,0.0,0.0,0.3981,0.4917,0.5522,0.5678,0.714,0.8017,0.823,0.9232,0.989,1.0191,1.0116,1.0055,1.0021,1.0062,1.0021,0.9913,0.9829,0.9849,0.9954,1.0404,0.9747,0.8513,0.903,0.8697,0.8017,0.8337,0.7996,0.7419,0.7767,0.7851,0.7821,0.7902,0.7828,0.7682,0.7357,0.0,0.0,0.0,0.0,0.4518,0.5914,0.6774,0.7631,0.9056,0.9469,0.9564,0.9635,0.9519,0.9254,0.8703,0.8723,0.8737,0.8417,0.8228,0.0,0.8081,0.8108,0.8194,0.8335,0.8444,0.8384,0.8101,0.7939,0.7733,0.7423,0.7265,0.7531,0.839,0.85,0.9314,1.1057,1.1685,1.2309,1.295,0.0,0.0,0.0,0.0,0.0,0.0,0.0,0.0,0.0,0.0,0.0,0.0,0.0,0.0,0.0,0.0,0.0,0.0,0.0,0.0,0.0,0.0,0.0,0.0,0.0,0.0,0.0,0.0,0.0,-0.0201,0.1039,0.0,0.0,0.0,0.0,0.4473,0.4845,0.5011,0.5023,0.6569,0.7567,0.7832,0.9346,1.026,1.0536,1.0603,1.063,1.0657,1.0792,1.0779,1.0644,1.0792,1.0853,1.0813,1.084,1.084,1.0725,0.925,0.8665,0.8627,0.8096,0.7451,0.6864,0.7596,0.7372,0.6839,0.7424,0.7706,0.7862,0.8179,0.8425,0.8428,0.7285,0.6855,0.0,0.0,0.5293,0.5655,0.712,0.7635,0.814,0.9619,0.9981,1.0028,1.0202,1.0114,0.9758,0.9027,0.8784,0.8669,0.8526,0.0,0.8437,0.8308,0.8396,0.8492,0.8498,0.8505,0.8451,0.8301,0.8119,0.7824,0.743,0.7389,0.7321,0.7194,0.8251,0.8921,0.9052,1.1134,1.2298,1.2329,1.348,0.0,0.0,0.0,0.0,0.0,0.0,0.0,0.0,0.0,0.0,0.0,0.0,0.0,0.0,0.0,0.0,0.0,0.0,0.0,0.0,0.0,0.0,0.0,0.0,0.0,0.0,0.0,0.0,-0.0848,0.0025,0.0,0.2774,0.2818,0.3471,0.5138,0.5162,0.5166,0.5278,0.6841,0.7806,0.801,0.9738,1.0853,1.1151,1.0928,1.0928,1.1151,1.1104,1.1009,1.0833,1.0887,1.086,1.0765,1.0765,1.0826,1.0867,1.0278,0.993,0.968,0.9266,0.8937,0.8743,0.908,0.912,0.9084,0.945,0.9578,0.9523,0.9413,0.9393,0.9158,0.778,0.7354,0.7084,0.5762,0.6151,0.7076,0.7601,0.8617,0.9655,1.0188,1.038,1.0434,1.0426,1.0453,1.0339,1.0005,0.971,0.9494,0.9367,0.9184,0.9104,0.9123,0.9036,0.8941,0.8941,0.8941,0.8845,0.8581,0.8336,0.8045,0.7685,0.7505,0.7305,0.7105,0.7511,0.8083,0.8872,1.0368,1.1552,1.2279,1.3498,1.4291,0.0,0.0,0.0,0.0,0.0,0.0,0.0,0.0,0.0,0.0,0.0,0.0,0.0,0.0,0.0,0.0,0.0,0.0,0.0,0.0,0.0,0.0,0.0,0.0,0.0,-0.0587,-0.0357,-0.1297,-0.0562,0.0668,0.2358,0.2673,0.3457,0.5171,0.5182,0.5164,0.5299,0.6413,0.7403,0.8212,0.8857,0.9983,1.1613,0.9989,0.9629,1.0557,0.974,0.932,0.9172,0.9162,0.9136,0.9092,0.9741,1.007,1.0219,1.0801,1.0921,1.0629,1.0371,1.0243,1.0184,1.0285,1.0387,1.0527,1.0637,1.0656,1.0534,1.0305,1.0177,0.991,0.8951,0.8654,0.8438,0.7463,0.795,0.8769,0.8767,0.9697,1.0643,1.0643,1.0758,1.0839,1.0771,1.0799,1.0839,1.0738,1.0439,1.0136,1.0066,0.9849,0.973,0.9754,0.9573,0.939,0.9342,0.9247,0.9083,0.8784,0.8567,0.8275,0.7891,0.776,0.7587,0.729,0.7276,0.763,0.8439,0.9513,1.048,1.1339,1.2953,1.3689,1.3485,0.0,0.0,0.0,0.0,0.0,0.0,0.0,0.0,0.0,0.0,0.0,0.0,0.0,0.0,0.0,0.0,0.0,0.0,0.0,0.0,0.0,0.0,0.0,-0.1411,-0.0662,-0.0399,-0.1436,-0.0638,0.0569,0.208,0.2404,0.3135,0.4631,0.4901,0.5043,0.5042,0.5346,0.6436,0.8445,0.6742,0.7765,1.1894,0.7836,0.6818,0.8783,0.6778,0.5813,0.581,0.5812,0.5815,0.5917,0.7801,0.8631,0.8837,1.0593,1.136,1.1375,1.1254,1.1077,1.0914,1.0921,1.0921,1.0901,1.0752,1.0738,1.0738,1.0738,1.0738,1.0738,1.0738,1.0698,1.0698,1.0698,1.0698,1.0698,1.0698,1.0813,1.0928,1.0928,1.107,1.1206,1.1206,1.1206,1.1206,1.1206,1.0846,1.0514,1.0507,1.0378,1.0261,1.0142,0.9924,0.0,0.9625,0.9383,0.9145,0.8946,0.8798,0.8527,0.8081,0.8201,0.8117,0.7638,0.7604,0.7604,0.7597,0.8566,0.9242,0.9539,1.1924,1.2606,1.1502,0.0,0.0,0.0,0.0,0.0,0.0,0.0,0.0,0.0,0.0,0.0,0.0,0.0,0.0,0.0,0.0,0.0,0.0,0.0,0.0,0.0,0.0,-0.0111,-0.0409,-0.0174,-0.0123,-0.0419,-0.0168,0.0681,0.2411,0.2717,0.3509,0.5229,0.4204,0.3514,0.3521,0.3698,0.4051,0.4603,0.5503,0.6585,0.7881,0.6492,0.6129,0.6797,0.6108,0.5785,0.5813,0.5806,0.58,0.5812,0.6378,0.7392,0.8734,0.9247,1.0226,1.1375,1.1254,1.1077,1.0928,1.1063,1.1104,1.1097,1.1091,1.1077,1.1077,1.1077,1.1077,1.1077,1.1077,1.0968,1.0874,1.1009,1.0968,1.0874,1.1016,1.1151,1.1267,1.1267,1.1382,1.1463,1.1355,1.1416,1.1463,1.1348,1.1172,1.0948,1.0806,1.0521,1.0301,1.0254,0.9992,0.9737,0.9625,0.9537,0.9469,0.9399,0.9286,0.9062,0.8696,0.8601,0.835,0.7787,0.7753,0.7706,0.7604,0.866,0.9679,1.0645,1.1606,1.1864,0.0,0.0,0.0,0.0,0.0,0.0,0.0,0.0,0.0,0.0,0.0,0.0,0.0,0.0,0.0,0.0,0.0,0.0,0.0,0.0,0.0,0.0,0.0,0.0,0.0,0.0,0.0,0.0,0.0,0.0399,0.1484,0.165,0.2111,0.3163,0.2266,0.1685,0.1667,0.1746,0.2185,0.3083,0.3355,0.4376,0.6287,0.4347,0.3854,0.4756,0.3833,0.3372,0.3387,0.3357,0.3371,0.3401,0.4243,0.5237,0.6338,0.7145,0.8119,0.9211,0.0,0.0,0.0,0.0,0.9318,0.9977,0.9977,1.053,1.12,1.12,1.12,1.12,1.12,1.1104,1.1056,1.1172,1.1138,1.1056,1.1172,1.1308,1.1389,1.1389,1.1511,1.1579,1.1423,1.1511,1.1552,1.1341,1.1261,0.0,1.0941,1.0644,1.0466,1.0466,1.0209,0.9985,0.9903,0.9727,0.9612,0.9612,0.9444,0.9191,0.8933,0.8831,0.0,0.0,0.0,0.8031,0.7889,0.8632,0.0,0.0,0.0,1.0901,1.0135,1.0222,0.0,0.0,1.0424,1.034,0.0,0.0,0.0,0.0,0.0,0.0,0.0,0.0,0.0,0.0,0.0,0.0,0.0,0.0,0.0,0.0,0.0,0.0,0.0,0.0,0.0,0.0,0.0,0.0,0.0,0.0,0.0,0.0,0.0,0.0,0.0,0.0,0.0,0.0,0.0,0.1819,0.5533,0.1856,0.0908,0.2744,0.0898,0.0,0.0,0.0,0.0,0.0114,0.1817,0.2684,0.3018,0.4771,0.5604,0.6123,0.9568,0.981,0.7998,0.6254,0.6783,0.8378,0.8378,0.0,0.0,1.1295,1.1288,1.1274,1.1295,1.1274,1.1247,1.1247,1.1227,1.12,1.12,1.1295,1.1362,1.1362,1.1484,1.1552,1.1396,1.1484,1.1511,1.1254,1.1186,1.1097,1.0934,1.0772,1.0697,1.0697,1.046,1.0315,1.0315,0.9917,0.9666,0.9686,0.9458,0.0,0.9021,0.9007,0.8872,0.86,0.8553,0.8485,0.8376,0.8581,0.8655,0.8533,0.9846,0.9888,0.8587,0.9723,0.9839,0.8953,0.8676,0.8621,0.0,0.0,0.0,0.0,0.0,0.0,0.0,0.0,0.0,0.0,0.0,0.0,0.0,0.0,0.0,0.0,0.0,0.0,0.0,0.0,0.0,0.0,0.0,0.0,0.0,0.0,0.0,0.0,0.0,0.0,0.0,0.0,0.0202,0.0606,0.0202,0.0403,0.1198,0.0399,0.0198,0.0591,0.0198,0.0,0.0,0.0,0.0,0.0038,0.0382,0.145,0.2945,0.3313,0.4386,0.585,0.6506,0.6566,0.6279,0.5766,0.6937,0.8802,0.8802,1.0066,1.1721,1.1887,1.1803,1.1728,1.1887,1.1757,0.0,1.1531,1.1355,1.12,1.12,1.122,1.124,1.124,1.1321,1.1396,1.1274,1.1328,1.1382,1.1234,1.107,1.0948,1.0921,1.0684,1.0534,1.0534,1.0392,1.0315,1.0315,1.0062,0.9981,1.0141,0.9985,0.9785,0.9636,0.9623,0.9469,0.9077,0.8798,0.871,0.8777,0.8716,0.873,0.8825,0.9265,0.9356,0.9049,0.9426,0.9489,0.9286,0.896,0.8994,0.0,0.0,0.0,0.0,0.0,0.0,0.0,0.0,0.0,0.0,0.0,0.0,0.0,0.0,0.0,0.0,0.0,0.0,0.0,0.0,0.0,0.0,0.0,0.0,0.0,0.0,0.0,0.0,0.0,0.0,0.0,0.0,0.0,0.0,0.0,0.0,0.0,0.0,0.0,0.0,0.0,0.0,0.0,0.0,0.0,0.0,0.0,0.0548,0.1438,0.1467,0.204,0.2882,0.2828,0.3417,0.4223,0.3186,0.482,0.7448,0.631,0.7911,1.0504,1.051,1.0432,1.0373,1.049,1.1061,1.149,1.0432,1.075,1.1375,1.1329,1.1335,1.1369,1.1329,1.1396,1.1443,1.1247,1.1315,1.1301,1.1002,1.0914,1.0887,1.0813,1.0677,1.0609,1.0609,1.048,1.0385,1.0385,1.0256,1.0195,1.0301,1.0073,0.9873,0.9798,0.9686,0.9503,0.9308,0.9158,0.9083,0.9157,0.9089,0.9083,0.9157,0.926,0.9294,0.9294,0.9376,0.9422,0.9496,0.9386,0.9393,0.0,0.0,0.0,0.0,0.0,0.0,0.0,0.1058,0.0853,0.0147,0.0,0.0,0.0,0.0,0.0,0.0,0.0,0.0,0.0,0.0,0.0,0.0,0.0,0.0,0.0,0.0,0.0,0.0,0.0,0.0,0.0,0.0,0.0,0.0,0.0,0.0,0.0,0.0,0.0,0.0,0.0,0.0,0.0,0.0,0.0,0.0,0.0,0.0,0.0,0.0,0.0,0.0,0.0,0.0949,0.2137,0.0578,0.239,0.5426,0.3573,0.5417,0.8559,0.8445,0.863,0.8978,0.8999,1.0355,1.1507,0.9786,1.0377,1.1538,1.1389,1.1436,1.1497,1.1375,1.1463,1.1497,1.1254,1.1315,1.1274,1.088,1.0853,1.0874,1.0752,1.0704,1.0684,1.0684,1.0616,1.0534,1.0534,1.0412,1.0356,1.0356,1.0073,0.9866,0.9839,0.9618,0.9469,0.9469,0.9442,0.9435,0.9462,0.9442,0.9442,0.9462,0.9496,0.951,0.951,0.9544,0.9618,0.9741,0.9856,0.9805,0.2784,0.3233,0.3231,0.2122,0.1813,0.1467,0.0,0.0156,0.0126,0.0034,0.0,0.0,0.0,0.0,0.0,0.0,0.0,0.0,0.0,0.0,0.0,0.0,0.0,0.0,0.0,0.0,0.0,0.0,0.0,0.0,0.0,0.0,0.0,0.0,0.0,0.0,0.0,0.0,0.0,0.0,0.0,0.0,0.0,0.0,0.0,0.0,0.0,0.0,0.0,0.0,0.0,0.0,0.0,0.012,0.0283,0.0081,0.1452,0.3425,0.318,0.4516,0.6379,0.653,0.7772,0.9176,0.932,1.0632,1.1969,1.155,1.144,1.1382,1.1261,1.1234,1.1247,1.1227,1.1307,1.1369,1.1234,1.1315,1.1335,1.1186,1.1023,1.0907,1.0894,1.0779,1.0684,1.0684,1.0704,1.0697,1.0697,1.0561,1.0466,1.0466,1.0324,1.0175,1.0001,0.9839,0.9744,0.9744,0.9652,0.9639,0.9737,0.9652,0.9646,0.9737,0.9873,0.994,0.9947,1.0114,1.022,1.0209,1.0254,1.0148,0.3595,0.3402,0.2706,0.2239,0.2176,0.184,0.0337,0.0,0.0,0.0,0.0,0.0,0.0,0.0,0.0,0.0,0.0,0.0,0.0,0.0,0.0,0.0,0.0,0.0,0.0,0.0,0.0,0.0,0.0,0.0,0.0,0.0,0.0,0.0,0.0,0.0,0.0,0.0,0.0,0.0,0.0,0.0,0.0,0.0,0.0,0.0,0.0,0.0,0.0,0.0,0.0,0.0,0.0,0.0,0.0,0.0,0.1379,0.3029,0.1751,0.2681,0.4467,0.4436,0.5823,0.7483,0.7456,0.9623,1.1803,1.0498,1.0863,1.1653,1.1717,1.1655,1.1552,1.1552,1.1538,1.1484,1.1363,1.1348,1.1348,1.1227,1.1118,1.105,1.0928,1.086,1.0786,1.0698,1.0684,1.0684,1.0684,1.0663,1.0588,1.05,1.0439,1.0344,1.0195,1.0127,1.0086,1.0086,1.0032,1.0025,1.0086,1.0032,1.0025,1.0086,1.0154,1.0181,1.0181,1.0249,1.0315,1.0315,1.0365,1.0371,0.3098,0.2566,0.1609,0.1898,0.2028,0.1732,0.0329,0.0,0.0,0.0,0.0,0.0,0.0,0.0,0.0,0.0,0.0,0.0,0.0,0.0,0.0,0.0,0.0,0.0,0.0,0.0,0.0,0.0,0.0,0.0,0.0,0.0,0.0,0.0,0.0,0.0,0.0,0.0,0.0,0.0,0.0,0.0,0.0,0.0,0.0,0.0,0.0,0.0,0.0,0.0,0.0,0.0,0.0,0.0,0.0,0.0,0.1016,0.2146,0.0576,0.1073,0.2526,0.3028,0.4614,0.6444,0.6896,0.95,1.1945,1.0323,1.086,1.1965,1.1993,1.1945,1.187,1.1753,1.1685,1.164,1.1484,1.1457,1.1423,1.1342,1.1288,1.1227,1.1056,1.0968,1.088,1.0765,1.0711,1.0684,1.0684,1.0684,1.0644,1.0568,1.0514,1.0453,1.0344,1.0335,1.0315,1.0315,1.0315,1.0315,1.0315,1.0315,1.0315,1.0315,1.0349,1.0369,1.0369,1.0378,1.0399,1.0405,1.0507,1.0555,-0.0211,-0.0832,-0.1532,-0.0236,0.0073,0.0078,0.0,0.0,0.0,0.0,0.0,0.0,0.0,0.0,0.0,0.0,0.0,0.0,0.0,0.0,0.0,0.0,0.0,0.0,0.0,0.0,0.0,0.0,0.0,0.0,0.0,0.0,0.0,0.0,0.0,0.0,0.0,0.0,0.0,0.0,0.0,0.0,0.0,0.0,0.0,0.0,0.0,0.0,0.0,0.0,0.0,0.0,0.0,0.0,0.0,0.0,0.0041,0.0083,0.0042,0.0042,0.0462,0.2693,0.4777,0.6895,0.9038,1.1094,1.2638,1.2444,1.2341,1.221,1.1874,1.1945,1.2016,1.1694,1.1692,1.1746,1.1604,1.1577,1.1577,1.1606,1.1484,1.1382,1.1382,1.1103,1.0914,1.0873,1.0779,1.0684,1.0684,1.0684,1.0684,1.0677,1.0582,1.0487,1.0487,1.0358,1.0315,1.0315,1.0315,1.0315,1.0315,1.0315,1.0315,1.0315,1.0419,1.0487,1.0487,1.0636,1.0704,1.0704,1.0677,1.0677,-0.0118,-0.0324,-0.0562,-0.0112,0.0,0.0,0.0,0.0,0.0,0.0,0.0,0.0,0.0,0.0,0.0,0.0,0.0,0.0,0.0,0.0,0.0,0.0,0.0,0.0,0.0,0.0,0.0,0.0,0.0,0.0,0.0,0.0,0.0,0.0,0.0,0.0,0.0,0.0,0.0,0.0,0.0,0.0,0.0,0.0,0.0,0.0,0.0,0.0,0.0,0.0,0.0,0.0,0.0,0.0,0.0,0.0,0.0,0.0,0.0,0.0,0.037,0.2494,0.4621,0.6748,0.8765,1.082,1.2427,1.2379,1.2325,1.2291,1.2277,1.2244,1.2162,1.1996,1.1989,1.1945,1.1753,1.1726,1.1726,1.1726,1.1604,1.1511,1.1409,1.1307,1.1172,1.0941,1.0786,1.0684,1.0684,1.0684,1.0684,1.0684,1.0677,1.0643,1.0643,1.0602,1.0575,1.0575,1.0575,1.0575,1.0575,1.0575,1.0575,1.0575,1.0616,1.0643,1.0643,1.0697,1.0684,1.0684,1.0684,1.0684,-0.0265,-0.0358,-0.0608,-0.0121,0.0,0.0,0.0,0.0,0.0,0.0,0.0,0.0,0.0,0.0,-0.0182,-0.078,-0.0388,-0.0203,-0.0795,-0.0377,0.0,0.0,0.0,0.0,0.0,0.0,0.0,0.0,0.0,0.0,0.0,0.0,0.0,0.0,0.0,0.0,0.0,0.0,0.0,0.0,0.0,0.0,0.0,0.0,0.0,0.0,0.0,0.0,0.0,0.0,0.0,0.0,0.0,0.0,0.0,0.0,0.0,0.0,0.0,0.0488,0.1463,0.3607,0.5761,0.7875,0.9913,1.1498,1.2554,1.2461,1.2447,1.244,1.2427,1.2393,1.2318,1.2145,1.2139,1.2101,1.1945,1.1911,1.1898,1.1807,1.1719,1.1647,1.1497,1.143,1.1287,1.0961,1.0833,1.0745,1.0691,1.0684,1.0684,1.0684,1.0684,1.0684,1.0684,1.0684,1.0684,1.0684,1.0684,1.0684,1.0684,1.0684,1.0684,1.0684,1.0684,1.0684,1.0684,1.0684,1.0684,1.0684,1.0684,1.0684,-0.0696,-0.0929,-0.16,-0.0339,0.0,0.0,0.0,0.0,0.0,0.0,0.0,0.0,0.0,0.0,-0.0533,-0.2117,-0.1022,-0.0551,-0.2135,-0.0993,0.0,0.0,0.0,0.0,0.0,0.0,0.0,0.0,0.0,0.0,0.0,0.0,0.0,0.0,0.0,0.0,0.0,0.0,0.0,0.0,0.0,0.0,0.0,0.0,0.0,0.0,0.0,0.0,0.0,0.0,0.0,0.0,0.0,0.0,0.0,0.0,0.0,0.0,0.0,0.1381,0.3482,0.5739,0.7838,0.9858,1.2248,1.2895,1.2788,1.272,1.2679,1.2618,1.2372,1.24,1.2427,1.2179,1.2227,1.2257,1.2145,1.2111,1.2064,1.1847,1.1807,1.1746,1.1611,1.1497,1.1301,1.0968,1.0928,1.0867,1.0711,1.0684,1.0684,1.0684,1.0684,1.0684,1.0684,1.0684,1.0684,1.0684,1.0684,1.0684,1.0684,1.0684,1.0684,1.0684,1.0684,1.0684,1.0684,1.0684,1.0684,1.0684,1.0698,1.0691,-0.0197,-0.025,-0.0436,-0.0088,0.0,0.0,0.0,0.0,0.0,0.0,0.0,0.0,0.0,0.0,-0.0131,-0.0575,-0.0267,-0.0167,-0.056,-0.0263,0.0,0.0,0.0,0.0,0.0,0.0,0.0,0.0,0.0,0.0,0.0,0.0,0.0,0.0,0.0,0.0,0.0,0.0,0.0,0.0,0.0,0.0,0.0,0.0,0.0,0.0,0.0,0.0,0.0,0.0,0.0,0.0,0.0,0.0,0.0,0.0,0.0,0.0,0.0,0.1373,0.3476,0.5658,0.6705,0.7849,1.151,1.1549,1.0638,1.2141,1.2562,1.2542,1.2467,1.2474,1.2454,1.2277,1.2345,1.2406,1.2264,1.223,1.2216,1.2182,1.1986,1.1746,1.1611,1.1586,1.1457,1.1151,1.1104,1.1016,1.0751,1.0684,1.0684,1.0684,1.0684,1.0684,1.0684,1.0684,1.0684,1.0684,1.0684,1.0684,1.0684,1.0684,1.0684,1.0684,1.0684,1.0684,1.0684,1.0684,1.0684,1.0691,1.0806,1.0792,-0.0169,0.0,0.0,0.0,0.0,0.0,0.0,0.0,0.0,0.0,0.0,0.0,0.0,0.0,-0.0243,-0.0987,-0.0473,-0.0243,-0.098,-0.0482,0.0,0.0,0.0,0.0,0.0,0.0,0.0,0.0,0.0,0.0,0.0,0.0,0.0,0.0,0.0,0.0,0.0,0.0,0.0,0.0,0.0,0.0,0.0,0.0,0.0,0.0,0.0,0.0,0.0,0.0,0.0,0.0,0.0,0.0,0.0,0.0,0.0,0.0,0.0,0.1345,0.3311,0.4506,0.6868,0.9475,1.0767,1.0984,1.1089,1.2205,1.2501,1.2501,1.2501,1.2501,1.2481,1.24,1.244,1.2481,1.24,1.2386,1.2345,1.2254,1.1993,1.1746,1.1611,1.1584,1.1538,1.1336,1.1295,1.1213,1.0948,1.0799,1.0684,1.0684,1.0684,1.0711,1.0779,1.0725,1.0718,1.0786,1.0725,1.0684,1.0684,1.0684,1.0684,1.0684,1.0684,1.0684,1.0684,1.0684,1.0725,1.0786,1.0874,1.0901,-0.0316,0.0,0.0,0.0,0.0181,0.0304,0.0039,0.0183,0.0307,0.006,0.0,0.0,0.0,0.0,-0.0469,-0.1928,-0.0935,-0.052,-0.1948,-0.0934,0.0,0.0,0.0,0.0,0.0,0.0,0.0,0.0,0.0,0.0,0.0,0.0,0.0,0.0,0.0,0.0,0.0,0.0,0.0,0.0,0.0,0.0,0.0,0.0,0.0,0.0,0.0,0.0,0.0,0.0,0.0,0.0,0.0,0.0,0.0,0.0,0.0,0.0,0.0,0.1367,0.3177,0.3461,0.7448,1.1841,1.0356,1.1001,1.2325,1.2498,1.2549,1.2556,1.2535,1.2549,1.2562,1.2562,1.2562,1.2556,1.2535,1.2515,1.242,1.2186,1.1986,1.18,1.1638,1.1647,1.1556,1.1416,1.1389,1.1335,1.122,1.0941,1.0778,1.0778,1.0778,1.0799,1.0928,1.0819,1.0833,1.0934,1.0819,1.0778,1.0778,1.0778,1.0778,1.0778,1.0778,1.0778,1.0778,1.0778,1.0813,1.0941,1.0961,1.1063,-0.0047,0.0,0.0,0.0,0.1122,0.1842,0.0336,0.1171,0.1795,0.0296,0.0,0.0,0.0,0.0,-0.0086,-0.0389,-0.0181,-0.0121,-0.0408,-0.0184,0.0,0.0,0.0,0.0,0.0,0.0,0.0,0.0,0.0,0.0,0.0,0.0,0.0,0.0,0.0,0.0,0.0,0.0,0.0,0.0,0.0,0.0,0.0,0.0,0.0,0.0,0.0,0.0,0.0,0.0,0.0,0.0,0.0,0.0,0.0,0.0,0.0,0.0,0.0,0.1425,0.3543,0.534,0.6677,0.8209,1.1428,1.1416,1.0616,1.2213,1.2779,1.2854,1.2725,1.2786,1.2921,1.2921,1.2921,1.2887,1.2718,1.2589,1.2454,1.2284,1.223,1.2121,1.1807,1.1759,1.1665,1.143,1.1389,1.1335,1.122,1.1152,1.1118,1.1118,1.1118,1.1132,1.1159,1.1138,1.1132,1.1159,1.1138,1.1118,1.1118,1.1118,1.1118,1.1118,1.1118,1.1118,1.1118,1.1118,1.1132,1.1166,1.1253,1.126,0.0,0.0,0.0,0.0,0.135,0.2225,0.0427,0.141,0.2172,0.0379,0.0,0.0,0.0,0.0,0.0,0.0,0.0,0.0,0.0,0.0,0.0,0.0,0.0,0.0,0.0,0.0,0.0,0.0,0.0,0.0,0.0,0.0,0.0,0.0,0.0,0.0,0.0,0.0,0.0,0.0,0.0,0.0,0.0,0.0,0.0,0.0,0.0,0.0,0.0,0.0,0.0,0.0,0.0,0.0,0.0,0.0,0.0,0.0168,0.1304,0.2394,0.3852,0.7233,0.836,0.8761,1.0714,1.1427,1.1767,1.2609,1.2941,1.2982,1.2868,1.2948,1.3003,1.3003,1.3003,1.2982,1.2868,1.2732,1.2576,1.2427,1.2338,1.2216,1.1993,1.1952,1.1877,1.1653,1.1687,1.1696,1.143,1.1567,1.1547,1.1234,1.12,1.1227,1.1308,1.124,1.1234,1.1308,1.124,1.12,1.12,1.12,1.12,1.12,1.12,1.12,1.12,1.12,1.124,1.1322,1.1355,1.1396,0.0,0.0,0.0,0.0,0.1662,0.2723,0.0512,0.1712,0.265,0.0448,0.0,0.0,0.0,0.0,0.0,0.0,0.0,0.0,0.0,0.0,0.0,0.0,0.0,0.0,0.0,0.0,0.0,0.0,0.0,0.0,0.0,0.0,0.0,0.0,0.0,0.0,0.0,0.0,0.0,0.0,0.0,0.0,0.0,0.0,0.0,0.0,0.0,0.0,0.0,0.0,0.0,0.0,0.0,0.0,0.0042,0.0548,0.0715,0.1051,0.3274,0.4027,0.4695,0.8707,1.0044,1.0154,1.0478,1.181,1.3193,1.3091,1.3071,1.3091,1.3057,1.3071,1.3098,1.3098,1.3071,1.305,1.305,1.2888,1.2732,1.2583,1.2461,1.2325,1.2179,1.2145,1.2098,1.1904,1.1986,1.2016,1.1742,1.1955,1.1914,1.1444,1.139,1.1438,1.1525,1.1458,1.1444,1.1525,1.1458,1.139,1.139,1.139,1.139,1.139,1.1356,1.1342,1.1342,1.1308,1.1321,1.1443,1.1443,1.1504,0.0,0.0,0.0,0.0,0.2605,0.424,0.0796,0.2672,0.417,0.0721,0.0,0.0,0.0,0.0,0.0,0.0,0.0,0.0,0.0,0.0,0.0,0.0,0.0,0.0,0.0,0.0,0.0,0.0,0.0,0.0,0.0,0.0,0.0,0.0,0.0,0.0,0.0,0.0,0.0,0.0,0.0,0.0,0.0,0.0,0.0,0.0,0.0,0.0,0.0,0.0,0.0,0.0,0.0,0.0,0.0256,0.232,0.3107,0.34,0.5616,0.6369,0.6784,0.929,1.0086,1.046,1.2459,1.3211,1.3349,1.3234,1.3254,1.3329,1.3193,1.3254,1.3363,1.3363,1.3254,1.3193,1.3193,1.3077,1.2895,1.2739,1.2659,1.2564,1.2318,1.2271,1.2216,1.2098,1.2091,1.2091,1.2064,1.2084,1.2077,1.2023,1.2016,1.2023,1.2036,1.2023,1.2023,1.2036,1.2023,1.2016,1.2016,1.2016,1.2016,1.2016,1.1843,1.1732,1.1732,1.1604,1.1586,1.1563,1.1563,1.1606,0.0,0.0,0.0,0.0,0.1903,0.3105,0.0562,0.1952,0.306,0.0515,0.0,0.0,0.0,0.0,0.0,0.0,0.0,0.0,0.0,0.0,0.0,0.0,0.0,0.0,0.0,0.0,0.0,0.0,0.0,0.0,0.0,0.0,0.0,0.0,0.0,0.0,0.0,0.0,0.0,0.0,0.0,0.0,0.0,0.0,0.0,0.0,0.0,0.0,0.0,0.0,0.081,0.205,0.2041,0.2879,0.4136,0.5038,0.5341,0.5601,0.7789,0.8497,0.882,1.112,1.1914,1.2158,1.3121,1.3336,1.3309,1.3302,1.3288,1.3268,1.3302,1.3356,1.3403,1.3403,1.3356,1.3308,1.3308,1.3234,1.3111,1.301,1.2929,1.28,1.2589,1.2556,1.2474,1.2237,1.2271,1.2264,1.2125,1.2254,1.2291,1.2247,1.2152,1.2098,1.2098,1.2098,1.2098,1.2098,1.2098,1.2098,1.2098,1.2098,1.2098,1.2098,1.2036,1.1972,1.1972,1.1911,1.1884,1.1884,1.1884,1.1884,0.0,0.0,0.0142,0.0841,0.1846,0.2475,0.1641,0.2319,0.2711,0.1228,0.0686,0.0473,0.0481,0.0206,0.0,0.0,0.0,0.0,0.0,0.0,0.0,0.0,0.0,0.0,0.0,0.0,0.0,0.0,0.0,0.0,0.0,0.0,0.0,0.0,0.0,0.0,0.0,0.0,0.0,0.0,0.0,0.0,0.0,0.0,0.0,0.0,0.0,0.039,0.1046,0.1079,0.2407,0.4476,0.4505,0.5413,0.6846,0.7471,0.7682,0.7929,1.0024,1.072,1.0987,1.2501,1.3037,1.3071,1.3227,1.3227,1.3227,1.3254,1.3193,1.3173,1.3241,1.3302,1.3336,1.3336,1.337,1.3403,1.3403,1.3315,1.3268,1.322,1.3132,1.3016,1.2827,1.28,1.2725,1.256,1.2576,1.2562,1.239,1.2547,1.2596,1.254,1.2431,1.2329,1.2234,1.2227,1.2227,1.2227,1.2227,1.2254,1.2295,1.2254,1.2254,1.2295,1.2213,1.2166,1.2166,1.2125,1.2098,1.2098,1.2098,1.2098,0.0,0.0,0.0537,0.2786,0.3014,0.3087,0.4532,0.4493,0.3983,0.322,0.227,0.1587,0.1587,0.0714,0.0,0.0,0.0,0.0,0.0,0.0,0.0,0.0,0.0,0.0,0.0,0.0,0.0,0.0,0.0,0.0,0.0,0.0,0.0,0.0,0.0,0.0,0.0,0.0,0.0,0.0,0.0,0.0,0.0,0.0,0.0,0.0,0.0,0.1368,0.3564,0.357,0.4923,0.7067,0.7079,0.7004,0.7159,0.9282,1.0158,1.0504,1.2334,1.3152,1.3308,1.3098,1.2861,1.2726,1.2955,1.3105,1.3186,1.3043,1.3003,1.3003,1.3003,1.3111,1.3214,1.3214,1.3288,1.3403,1.3403,1.3397,1.3356,1.3241,1.3214,1.3166,1.3023,1.3003,1.2996,1.2996,1.2996,1.2996,1.2989,1.2996,1.2996,1.2996,1.2989,1.2867,1.2522,1.2494,1.2494,1.2494,1.2494,1.2562,1.2679,1.2576,1.2569,1.2679,1.2433,1.2291,1.2284,1.2173,1.2098,1.2098,1.2098,1.2098,0.0,0.0,0.0183,0.0912,0.0959,0.1174,0.2373,0.2525,0.2543,0.3002,0.2852,0.2423,0.1724,0.1322,0.085,0.0111,0.0,0.0,0.0,0.0,0.0,0.0,0.0,0.0,0.0,0.0,0.0,0.0,0.0,0.0,0.0,0.0,0.0,0.0,0.0,0.0,0.0,0.0,0.0,0.0,0.0,0.0,0.0,0.0,0.0,0.0,0.0,0.1374,0.3604,0.361,0.592,0.9394,0.9337,1.0202,1.1532,1.2124,1.2316,1.2364,1.2835,1.2956,1.2868,1.2712,1.2684,1.2679,1.2664,1.2867,1.3057,1.3016,1.3071,1.3098,1.2854,1.299,1.3186,1.3091,1.3105,1.3166,1.322,1.3247,1.3261,1.3315,1.3329,1.3281,1.3173,1.3146,1.3111,1.3016,1.3003,1.3003,1.3003,1.3003,1.3003,1.3003,1.3003,1.2962,1.286,1.2853,1.2853,1.2853,1.2853,1.288,1.2888,1.284,1.288,1.2888,1.2691,1.2551,1.2551,1.2433,1.2366,1.2366,1.2366,1.2366,0.0601,0.0246,0.0192,0.1026,0.0931,0.1092,0.3025,0.3106,0.3064,0.4092,0.3671,0.2911,0.2289,0.1526,0.0784,0.0109,0.0,0.0,0.0,0.0,0.0,0.0,0.0,0.0,0.0,0.0,0.0,0.0,0.0,0.0,0.0,0.0,0.0,0.0,0.0,0.0,0.0,0.0,0.0,0.0,0.0,0.0,0.0,0.0,0.0,0.0045,0.098,0.2714,0.0,0.5903,0.8468,1.1859,1.1779,1.2509,1.3565,1.3458,1.3376,1.3308,1.3091,1.2935,1.2861,1.2657,1.2611,1.2693,1.2752,1.2813,1.2888,1.2982,1.3064,1.3091,1.2868,1.2956,1.3111,1.3023,1.3003,1.3023,1.3111,1.3173,1.32,1.3295,1.3363,1.337,1.3275,1.3302,1.3268,1.3139,1.3166,1.3166,1.3166,1.3166,1.3166,1.3166,1.3166,1.3166,1.3166,1.3064,1.3003,1.3003,1.3003,1.3023,1.3077,1.303,1.3023,1.3077,1.2895,1.282,1.282,1.2725,1.2678,1.2671,1.2617,1.2589,0.0,0.0862,0.0707,0.2775,0.2486,0.2522,0.5655,0.5506,0.0,0.608,0.4705,0.3301,0.3256,0.159,0.0211,0.0149,0.0068,0.0,0.0,0.0,0.0,0.0,0.0,0.0,0.0,0.0,0.0,0.0,0.0,0.0,0.0,0.0,0.0,0.0,0.0,0.0,0.0,0.0,0.0,0.0,0.0,0.0,0.0,0.018,0.0269,0.0404,0.2821,0.5186,0.7547,0.978,1.2029,1.4112,1.4061,1.3878,1.3565,1.3458,1.3492,1.3511,1.3166,1.3105,1.3166,1.284,1.2706,1.28,1.3085,1.2969,1.2779,1.2975,1.3016,1.3016,1.3003,1.3009,1.3016,1.3003,1.3003,1.3003,1.3003,1.3111,1.3214,1.3227,1.3315,1.3417,1.3417,1.3417,1.341,1.3403,1.3403,1.3403,1.3403,1.3403,1.3403,1.3403,1.3403,1.3403,1.3403,1.3193,1.303,1.303,1.303,1.3091,1.3227,1.3105,1.3098,1.3227,1.3091,1.3009,1.3003,1.3003,1.3003,1.2996,1.2813,1.2706,0.3434,0.0,0.2377,0.2999,0.2868,0.3044,0.0,0.4899,0.5002,0.608,0.5906,0.535,0.4742,0.3385,0.2198,0.1611,0.0666,0.0,0.0,0.0,0.0,0.0,0.0,0.0,0.0,0.0,0.0,0.0,0.0,0.0,0.0,0.0,0.0,0.0,0.0,0.0,0.0,0.0,0.0,0.0,0.0,0.0,0.0045,0.1926,0.2776,0.2866,0.5231,0.764,0.9913,1.0451,1.2029,1.4061,1.3939,1.3741,1.3565,1.3458,1.3424,1.3424,1.32,1.3186,1.3186,1.3003,1.2948,1.2982,1.3159,1.3091,1.2975,1.3125,1.3166,1.3139,1.303,1.3084,1.3139,1.303,1.3003,1.3003,1.3003,1.3111,1.3248,1.3322,1.3471,1.3531,1.3531,1.3531,1.3539,1.3417,1.3403,1.3403,1.3403,1.3403,1.3403,1.3403,1.3403,1.3403,1.3403,1.3336,1.3295,1.3295,1.3295,1.3315,1.3349,1.3315,1.3315,1.3349,1.3241,1.3111,1.3003,1.3003,1.3003,1.3003,1.2962,1.2948,0.4729,0.3876,0.3017,0.3076,0.3453,0.399,0.4634,0.5118,0.5589,0.6183,0.5512,0.4697,0.4254,0.281,0.1552,0.1154,0.0486,0.0,0.0,0.0,0.0,0.0,0.0,0.0,0.0,0.0,0.0,0.0,0.0,0.0,0.0,0.0,0.0,0.0,0.0,0.0,0.0,0.0,0.0,0.0,0.0,0.0,0.009,0.2507,0.358,0.3803,0.7235,0.9513,1.0801,1.1814,1.291,1.3953,1.3761,1.3612,1.3512,1.3431,1.3403,1.339,1.3308,1.3227,1.32,1.3125,1.3098,1.3125,1.3234,1.322,1.322,1.3254,1.3275,1.3261,1.318,1.3207,1.3193,1.3118,1.305,1.3003,1.3003,1.3111,1.3241,1.3281,1.3478,1.3585,1.3585,1.3639,1.3653,1.3572,1.3558,1.358,1.3512,1.3505,1.3478,1.341,1.3464,1.3478,1.3403,1.3464,1.3478,1.3403,1.3403,1.3403,1.3403,1.3403,1.3403,1.3403,1.3322,1.3282,1.3166,1.3166,1.3166,1.3159,1.3132,1.3098,0.5627,0.4697,0.3651,0.3371,0.4093,0.4834,0.4668,0.5373,0.6009,0.5853,0.4491,0.3306,0.3203,0.1567,0.0248,0.0307,0.0134,0.0,0.0,0.0,0.0,0.0,0.0,0.0,0.0,0.0,0.0,0.0,0.0,0.0,0.0,0.0,0.0,0.0,0.0,0.0,0.0,0.0,0.0,0.0,0.0,0.0179,0.0628,0.3045,0.434,0.4919,0.9317,1.1223,1.1351,1.326,1.3946,1.3754,1.3632,1.3539,1.3403,1.3403,1.3403,1.3403,1.3403,1.3315,1.3248,1.3248,1.3248,1.3234,1.3363,1.3403,1.3403,1.3403,1.3403,1.3403,1.3403,1.3302,1.3248,1.3248,1.3159,1.3064,1.3037,1.3146,1.3248,1.3248,1.3451,1.3619,1.3619,1.3741,1.3822,1.3802,1.3795,1.3754,1.3632,1.3619,1.3572,1.3485,1.3545,1.3565,1.3478,1.3587,1.3565,1.3478,1.3424,1.3403,1.3403,1.3403,1.3403,1.3403,1.3403,1.3403,1.3403,1.3403,1.3403,1.3397,1.3268,1.3248,0.5698,0.6113,0.6144,0.466,0.451,0.4496,0.3593,0.419,0.4697,0.3786,0.4046,0.4261,0.3645,0.234,0.1429,0.1661,0.0755,0.0,0.0,0.0,0.0,0.0,0.0,0.0,0.0,0.0,0.0,0.0,0.0,0.0,0.0,0.0,0.0,0.0,0.0,0.0,0.0,0.0,0.0,0.0,0.0,0.1067,0.3134,0.5499,0.7681,0.9775,1.2428,1.3578,1.3609,1.3767,1.3747,1.3619,1.3599,1.3539,1.3403,1.3403,1.3403,1.3403,1.3403,1.3383,1.3363,1.3363,1.3363,1.337,1.3397,1.3403,1.3403,1.3403,1.3403,1.3403,1.3403,1.3383,1.3363,1.3363,1.3349,1.3295,1.3207,1.3261,1.3363,1.3363,1.3607,1.3768,1.3768,1.3933,1.3994,1.3815,1.3795,1.3788,1.3768,1.3768,1.3754,1.3734,1.3754,1.3754,1.3734,1.3754,1.3754,1.3734,1.3539,1.3403,1.3403,1.3403,1.3403,1.3403,1.3403,1.3403,1.3403,1.3403,1.3403,1.3403,1.3376,1.3363,0.4938,0.5261,0.5224,0.3258,0.4822,0.6708,0.6137,0.564,0.5157,0.4653,0.3737,0.2919,0.2588,0.1551,0.0762,0.0914,0.0396,0.0,0.0,0.0,0.0,0.0,0.0,0.0,0.0,0.0,0.0,0.0,0.0,0.0,0.0,0.0,0.0,0.0,0.0,0.0,0.0,0.1238,0.1232,0.0,0.1327,0.2527,0.3714,0.7372,0.9646,1.0845,1.3199,1.415,1.4061,1.3862,1.3714,1.3578,1.3539,1.3464,1.3403,1.3403,1.3403,1.3403,1.3403,1.3403,1.3403,1.3403,1.3403,1.3403,1.3403,1.3403,1.3403,1.3403,1.3403,1.3403,1.3403,1.3403,1.3403,1.3403,1.3403,1.3403,1.3417,1.3471,1.3546,1.3585,1.3817,1.3966,1.3966,1.4156,1.4258,1.4109,1.4113,1.4143,1.3987,1.3966,1.3933,1.3808,1.3912,1.3933,1.3802,1.3919,1.3933,1.3802,1.3673,1.3565,1.3526,1.3526,1.3485,1.3403,1.3403,1.3403,1.3403,1.3403,1.3403,1.3403,1.3403,1.3403,0.4409,0.4446,0.431,0.2437,0.455,0.6973,0.6611,0.5633,0.4752,0.4491,0.293,0.151,0.127,0.0561,0.0,0.0,0.0,0.0,0.0,0.0,0.0,0.0,0.0,0.0,0.0,0.0,0.0,0.0,0.0,0.0,0.0,0.0,0.0236,0.0836,0.0832,0.1094,0.1645,0.3372,0.3115,0.0894,0.322,0.4679,0.5365,0.9019,1.1028,1.1655,1.3457,1.4183,1.4098,1.3871,1.3687,1.3572,1.3458,1.3403,1.3403,1.3403,1.3403,1.3403,1.3403,1.3403,1.3403,1.3403,1.3403,1.341,1.3444,1.3451,1.3458,1.3492,1.3505,1.3492,1.3417,1.3424,1.3451,1.3451,1.3478,1.3539,1.3612,1.3666,1.3714,1.3781,1.4021,1.4163,1.4129,1.4367,1.4529,1.4421,1.4468,1.4428,1.4204,1.4187,1.4082,1.3916,1.4055,1.4075,1.3916,1.4055,1.4075,1.391,1.3835,1.3747,1.3639,1.3639,1.3585,1.3505,1.3505,1.3485,1.3451,1.3485,1.3485,1.3451,1.3451,1.3451,0.486,0.5074,0.527,0.4247,0.3147,0.2005,0.0861,0.1289,0.1614,0.0608,0.1056,0.1292,0.0299,0.0063,0.0,0.0,0.0,0.0,0.0,0.0,0.0,0.0,0.0,0.0,0.0,0.0,0.0,0.0,0.0,0.0,0.0,0.0,0.1034,0.3279,0.3357,0.4408,0.6567,0.6744,0.5673,0.3351,0.5619,0.788,1.018,1.0535,1.1926,1.4027,1.4106,1.4125,1.4048,1.3763,1.3599,1.3572,1.3458,1.3403,1.3403,1.3403,1.3403,1.3403,1.3403,1.3403,1.3403,1.3403,1.3403,1.3424,1.3566,1.3572,1.3599,1.3727,1.3768,1.37,1.3471,1.3505,1.3572,1.3572,1.3673,1.3768,1.3781,1.3939,1.4,1.3822,1.414,1.4434,1.4306,1.4529,1.4674,1.4667,1.4552,1.4502,1.4482,1.4367,1.4278,1.4272,1.4278,1.4278,1.4272,1.4278,1.4278,1.4265,1.3957,1.3795,1.3781,1.3781,1.3774,1.3768,1.3768,1.37,1.3572,1.37,1.37,1.3572,1.3572,1.3572,0.3992,0.4638,0.5063,0.2289,0.2049,0.2602,0.308,0.2714,0.2158,0.1771,0.1114,0.0486,0.0068,0.0,0.0,0.0,0.0,0.0,0.0,0.0,0.0,0.0,0.0,0.0,0.0,0.0,0.0,0.0,0.0,0.0672,0.2173,0.2317,0.3413,0.5692,0.5896,0.6311,0.7078,0.8516,0.882,0.8035,0.8869,0.9771,1.0762,1.2237,1.34,1.4156,1.4197,1.4102,1.3926,1.3912,1.3797,1.3572,1.3458,1.3403,1.3403,1.3403,1.3403,1.3403,1.3403,1.3403,1.3403,1.3403,1.3403,1.3444,1.3646,1.366,1.3639,1.3919,1.3987,1.396,1.3844,1.3865,1.3926,1.4021,1.4014,1.4014,1.4109,1.417,1.4224,1.4251,1.4475,1.4593,1.4539,1.4746,1.4848,1.4708,1.4774,1.4726,1.4536,1.4462,1.4434,1.4434,1.4516,1.4525,1.4525,1.4525,1.4529,1.4434,1.4238,1.4082,1.3987,1.3987,1.3939,1.3802,1.3795,1.3774,1.372,1.3774,1.3768,1.372,1.372,1.372,0.3412,0.3701,0.3752,0.0741,0.0996,0.2241,0.3262,0.2627,0.1833,0.1855,0.0879,0.0,0.0,0.0,0.0,0.0,0.0,0.0,0.0,0.0,0.0,0.0,0.0,0.0,0.0,0.0,0.0341,0.1156,0.1151,0.2189,0.4687,0.4825,0.5872,0.8176,0.8389,0.8758,0.9365,1.0907,1.1748,1.1832,1.1836,1.1819,1.182,1.3514,1.4217,1.4125,1.4231,1.4177,1.3994,1.4048,1.3899,1.3578,1.3512,1.3444,1.3403,1.3458,1.3471,1.3478,1.3526,1.3539,1.3546,1.3593,1.3614,1.3668,1.3916,1.3944,1.396,1.4211,1.4285,1.4292,1.4391,1.4329,1.4238,1.434,1.4326,1.4312,1.4414,1.4475,1.4523,1.4577,1.4701,1.4823,1.4821,1.4936,1.5004,1.4896,1.493,1.4942,1.4685,1.4611,1.4539,1.4539,1.4633,1.4694,1.4694,1.4694,1.4654,1.459,1.4489,1.4346,1.415,1.4183,1.4143,1.3944,1.3944,1.3916,1.3869,1.3916,1.396,1.3869,1.3869,1.3869,0.3398,0.2394,0.1396,0.0269,0.0026,0.0058,0.0,0.0,0.0,0.0,0.0,0.0,0.0,0.0,0.0,0.0,0.0,0.0,0.0,0.0,0.0,0.0,0.0,0.0,0.0,0.0,0.1059,0.3615,0.3675,0.4729,0.729,0.7249,0.8257,1.0655,1.0729,1.1876,1.4299,1.4299,1.4299,1.4299,1.4299,1.4224,1.4125,1.4231,1.4217,1.4125,1.4231,1.4299,1.4285,1.4136,1.3899,1.3592,1.3592,1.3539,1.3424,1.358,1.3592,1.3612,1.3754,1.3802,1.3829,1.4021,1.4119,1.4129,1.4421,1.4516,1.4543,1.4654,1.4694,1.4735,1.493,1.4746,1.4516,1.4516,1.4586,1.4694,1.4694,1.4862,1.4923,1.4728,1.4977,1.514,1.4997,1.5086,1.5181,1.5181,1.5112,1.5017,1.5017,1.4835,1.4694,1.4694,1.4694,1.4694,1.4694,1.4694,1.4694,1.4694,1.4694,1.4566,1.4312,1.4434,1.4448,1.4306,1.4299,1.4224,1.4119,1.4224,1.4224,1.4119,1.4119,1.4119,0.3184,0.4254,0.4593,0.0926,0.1993,0.3235,0.0599,0.0,0.0,0.0,0.0,0.0,0.0,0.0,0.0,0.0,0.0,0.0,0.0,0.0,0.0,0.0,0.0,0.0,0.0,0.1556,0.2827,0.3588,0.5152,0.7154,0.9571,0.9649,1.076,1.3153,1.3242,1.3584,1.4299,1.4299,1.4299,1.4299,1.4299,1.4278,1.4231,1.4278,1.4217,1.4125,1.4231,1.4238,1.418,1.4132,1.4082,1.4082,1.3822,1.3817,1.3921,1.3926,1.3871,1.3774,1.4075,1.4095,1.4027,1.4183,1.4231,1.4285,1.4539,1.4552,1.4563,1.4828,1.4903,1.4909,1.4957,1.4977,1.4984,1.4984,1.4943,1.4903,1.4903,1.4936,1.5003,1.4909,1.5052,1.5167,1.5126,1.5153,1.5181,1.5181,1.5147,1.5132,1.503,1.493,1.4903,1.4903,1.4991,1.5052,1.5052,1.5052,1.5011,1.4909,1.4997,1.4869,1.4468,1.459,1.4512,1.4306,1.4401,1.438,1.4231,1.4278,1.4278,1.4231,1.4231,1.4231,0.3394,0.4454,0.5004,0.292,0.3488,0.3808,0.0722,0.0,0.0,0.0,0.0,0.0,0.0,0.0,0.0,0.0,0.0,0.0,0.0,0.0,0.0,0.0,0.0848,0.1453,0.1435,0.3575,0.543,0.6408,0.7755,0.9572,1.2001,1.2078,1.2662,1.4079,1.4116,1.4116,1.4116,1.4116,1.4116,1.4116,1.4183,1.4211,1.4211,1.4272,1.4183,1.3994,1.4204,1.4278,1.4245,1.4245,1.4299,1.4367,1.4177,1.4129,1.417,1.4224,1.415,1.4055,1.4299,1.4326,1.4272,1.4428,1.4516,1.4611,1.4841,1.4848,1.4814,1.5004,1.5105,1.5105,1.5105,1.512,1.5181,1.5181,1.512,1.5105,1.5105,1.5105,1.5105,1.5105,1.5126,1.5181,1.5181,1.5181,1.5181,1.5181,1.5181,1.5153,1.5112,1.5105,1.5105,1.5105,1.5133,1.5181,1.5181,1.5181,1.5194,1.5059,1.518,1.5038,1.4706,1.478,1.4719,1.4482,1.4557,1.4563,1.4475,1.4475,1.4475,1.4475,1.4414,1.4387,0.3867,0.3566,0.3485,0.5289,0.4264,0.2339,0.0434,0.0,0.0,0.0,0.0,0.0,0.0,0.0,0.0,0.0,0.0,0.0,0.0,0.0,0.0094,0.0324,0.2263,0.3691,0.3914,0.6023,0.8358,1.0679,1.0946,1.1922,1.4133,1.4116,1.3973,1.3802,1.3788,1.3788,1.3795,1.3795,1.3795,1.3802,1.398,1.4084,1.4084,1.4217,1.415,1.3856,1.419,1.4394,1.4516,1.4529,1.4543,1.455,1.4523,1.4448,1.4373,1.4489,1.4448,1.436,1.4516,1.4563,1.4577,1.4687,1.4875,1.5064,1.5147,1.5181,1.5181,1.5181,1.5181,1.5181,1.5181,1.5181,1.5181,1.5181,1.5181,1.5181,1.5181,1.5181,1.5181,1.5181,1.5181,1.5181,1.5181,1.5181,1.5181,1.5181,1.5181,1.5181,1.5181,1.5181,1.5181,1.5181,1.5181,1.5181,1.5181,1.5181,1.5181,1.5181,1.5181,1.5173,1.5044,1.5037,1.4909,1.4694,1.4708,1.4708,1.4694,1.4694,1.4694,1.4687,1.4552,1.4529,0.4099,0.3692,0.2952,0.3559,0.2203,0.0531,0.0092,0.0,0.0,0.0,0.0,0.0,0.0,0.0,0.0,0.0,0.0,0.0,0.0,0.0,0.0694,0.2606,0.3262,0.431,0.6173,0.8408,0.9991,1.0524,1.2176,1.3361,1.3896,1.3761,1.3763,1.3795,1.3693,1.3687,1.3795,1.3795,1.3795,1.3795,1.3829,1.3788,1.3736,1.4122,1.4265,1.4211,1.4387,1.4482,1.4523,1.4593,1.476,1.4848,1.4604,1.4638,1.4814,1.4681,1.4626,1.464,1.495,1.4964,1.4896,1.5038,1.5113,1.514,1.5174,1.5181,1.5181,1.5181,1.5181,1.5181,1.5181,1.5181,1.5181,1.5181,1.5181,1.5181,1.5181,1.5181,1.5181,1.5181,1.5181,1.5181,1.5181,1.5181,1.5181,1.5181,1.5181,1.5181,1.5181,1.5181,1.5181,1.5181,1.5181,1.5181,1.5181,1.5181,1.5181,1.5181,1.5181,1.5167,1.514,1.514,1.5011,1.4701,1.4862,1.4862,1.4694,1.4694,1.4694,1.4694,1.466,1.4647,0.4106,0.3693,0.2917,0.3069,0.2399,0.1426,0.0279,0.0,0.0,0.0,0.0,0.0,0.0,0.0,0.0,0.0,0.0,0.0,0.0,0.0,0.0908,0.3319,0.4607,0.6185,0.8522,1.0856,1.2173,1.2087,1.3148,1.3768,1.37,1.3626,1.3585,1.3627,1.3559,1.3553,1.3627,1.3627,1.3627,1.3592,1.3734,1.3835,1.3953,1.4041,1.4163,1.4306,1.438,1.4448,1.4523,1.4633,1.4741,1.4855,1.4767,1.4828,1.4996,1.4748,1.4694,1.4708,1.4835,1.4814,1.4774,1.4923,1.5025,1.5139,1.516,1.5181,1.5181,1.5181,1.5181,1.5181,1.5181,1.5181,1.5181,1.5181,1.5181,1.5181,1.5181,1.5181,1.5181,1.5181,1.5181,1.5181,1.5181,1.5181,1.5181,1.5181,1.5248,1.5289,1.5289,1.5357,1.5371,1.5303,1.5289,1.5262,1.5187,1.5248,1.5262,1.5187,1.5248,1.5262,1.5187,1.5181,1.5113,1.4957,1.5031,1.5031,1.495,1.495,1.495,1.495,1.4882,1.4848,0.4149,0.3735,0.3105,0.3051,0.3001,0.2436,0.046,0.0,0.0,0.0,0.0,0.0,0.0,0.0,0.0,0.0,0.0,0.0,0.0,0.0,0.1025,0.3835,0.5897,0.8116,1.079,1.2867,1.3939,1.3774,1.3734,1.3673,1.3551,1.3593,1.349,1.3403,1.3403,1.3403,1.3403,1.3403,1.3403,1.3403,1.3632,1.391,1.4211,1.3944,1.4034,1.4299,1.4326,1.4421,1.4563,1.4667,1.4735,1.4741,1.4889,1.493,1.4916,1.4741,1.4694,1.4681,1.4624,1.457,1.457,1.4654,1.4841,1.5037,1.5113,1.516,1.5181,1.5181,1.5181,1.5181,1.5181,1.5181,1.5181,1.5181,1.5181,1.5181,1.5181,1.5181,1.5181,1.5181,1.5181,1.5181,1.5181,1.5201,1.5221,1.5221,1.533,1.5411,1.5411,1.5499,1.5513,1.5384,1.5398,1.5357,1.5235,1.5364,1.5398,1.5269,1.5377,1.5391,1.5269,1.5235,1.5221,1.5221,1.5194,1.5181,1.5181,1.5181,1.5181,1.5181,1.5112,1.5011,0.4566,0.3968,0.3043,0.2815,0.159,0.0406,0.009,0.0,0.0,0.0,0.0,0.0,0.0,0.0,0.0,0.0,0.0,0.0,0.0,0.0,0.1591,0.5937,0.6736,0.8638,1.2927,1.3543,1.3682,1.3619,1.3532,1.3451,1.3431,1.3431,1.3424,1.3403,1.3403,1.3403,1.3403,1.3403,1.3403,1.3403,1.3531,1.37,1.3862,1.4,1.4136,1.4306,1.4428,1.457,1.4674,1.4875,1.4943,1.493,1.4814,1.4721,1.4721,1.4701,1.4694,1.4708,1.4869,1.4821,1.4667,1.4687,1.4841,1.5023,1.5037,1.5132,1.5181,1.5181,1.5181,1.5181,1.5181,1.5181,1.5181,1.5181,1.5181,1.5181,1.5181,1.5181,1.5181,1.5181,1.5181,1.5181,1.5181,1.5296,1.5377,1.5377,1.5398,1.5411,1.5411,1.5309,1.5235,1.5215,1.533,1.5404,1.5384,1.552,1.5553,1.5533,1.5546,1.5553,1.5533,1.5452,1.5377,1.5377,1.5248,1.5181,1.5181,1.5181,1.5181,1.5181,1.516,1.5153,0.4758,0.4461,0.3916,0.3011,0.22,0.1357,0.0266,0.0,0.0,0.0,0.0,0.0,0.0,0.0,0.0,0.0,0.0,0.0,0.0,0.0,0.1733,0.6348,0.6902,0.8671,1.3262,1.3626,1.3551,1.3505,1.3437,1.3403,1.3403,1.3403,1.3403,1.3403,1.3403,1.3403,1.3403,1.3403,1.3444,1.3532,1.3632,1.3781,1.3973,1.4129,1.4238,1.4306,1.4367,1.4434,1.4502,1.4652,1.4665,1.4597,1.4611,1.4611,1.4559,1.4478,1.4498,1.4611,1.4597,1.455,1.4509,1.4539,1.4713,1.4855,1.4989,1.5072,1.5181,1.5181,1.5181,1.5181,1.5181,1.5181,1.5181,1.5181,1.5181,1.5181,1.5181,1.5181,1.5181,1.5181,1.5181,1.5208,1.5296,1.5364,1.5438,1.5479,1.5608,1.5628,1.5547,1.5622,1.5622,1.5459,1.5567,1.5628,1.5499,1.5676,1.5723,1.5593,1.5716,1.5683,1.552,1.5445,1.5371,1.5282,1.5303,1.5269,1.5181,1.5269,1.5269,1.5181,1.5181,1.5181,0.5205,0.4661,0.4136,0.4115,0.3123,0.2055,0.1682,0.1223,0.1011,0.1581,0.1699,0.169,0.1704,0.0778,0.0,0.0,0.0,0.0211,0.0769,0.0856,0.2563,0.7149,0.7715,0.9218,1.316,1.3531,1.3526,1.341,1.3403,1.3403,1.3403,1.3403,1.3403,1.3403,1.3403,1.3403,1.3403,1.3403,1.3478,1.3592,1.3693,1.3885,1.4119,1.419,1.4265,1.4299,1.4299,1.4319,1.436,1.4468,1.4448,1.4367,1.4468,1.4489,1.4448,1.438,1.4401,1.4448,1.438,1.4333,1.4319,1.4421,1.4557,1.4667,1.4869,1.5011,1.514,1.5174,1.5181,1.5181,1.5181,1.5181,1.5194,1.5228,1.5208,1.5194,1.5228,1.5208,1.5194,1.5235,1.5208,1.5221,1.5337,1.5384,1.5452,1.5512,1.5703,1.5757,1.5607,1.5832,1.5886,1.5614,1.5771,1.586,1.5703,1.5791,1.5874,1.5708,1.5867,1.582,1.5588,1.5506,1.5411,1.5303,1.5411,1.5371,1.5181,1.5296,1.5296,1.5181,1.5181,1.5181,0.6256,0.4339,0.2982,0.6476,0.3738,0.1176,0.5074,0.4534,0.3816,0.5937,0.6359,0.6355,0.6358,0.2863,0.0,0.0,0.0,0.0718,0.2813,0.3116,0.4817,0.9408,0.9879,1.0772,1.3175,1.341,1.341,1.3403,1.3403,1.3403,1.3403,1.3403,1.3403,1.3403,1.3403,1.3403,1.3403,1.3403,1.3478,1.3585,1.3592,1.379,1.4119,1.4125,1.4163,1.4299,1.4299,1.4373,1.4502,1.4509,1.4509,1.4502,1.4509,1.4428,1.4326,1.4455,1.4421,1.4333,1.4455,1.4414,1.4299,1.4306,1.4407,1.455,1.466,1.4862,1.5057,1.5147,1.5181,1.5181,1.5181,1.5181,1.5221,1.5364,1.5289,1.5221,1.5364,1.5282,1.5221,1.5371,1.5282,1.5181,1.5194,1.5316,1.5411,1.5418,1.5554,1.56,1.5593,1.5607,1.5607,1.5593,1.5771,1.5901,1.5894,1.5901,1.5962,1.6049,1.5976,1.5962,1.6042,1.5778,1.5573,1.5566,1.5573,1.5479,1.5181,1.5194,1.5187,1.5181,1.5181,1.5181,0.7716,0.7188,0.6348,0.597,0.5487,0.462,0.2681,0.3809,0.5114,0.4612,0.5605,0.66,0.6692,0.5398,0.4298,0.4281,0.4319,0.4577,0.5353,0.5482,0.6615,0.9687,1.0064,1.0931,1.3196,1.3403,1.3403,1.3403,1.3403,1.3403,1.3403,1.3403,1.3403,1.3403,1.3403,1.3403,1.3403,1.3403,1.3431,1.3485,1.3538,1.3687,1.3926,1.4027,1.4156,1.4299,1.4299,1.4326,1.4373,1.4373,1.4373,1.4373,1.4373,1.4346,1.4306,1.4353,1.4346,1.4306,1.436,1.4401,1.4434,1.4434,1.4604,1.4814,1.4869,1.4991,1.512,1.5167,1.5181,1.5181,1.5181,1.5181,1.5221,1.5371,1.5371,1.5371,1.5479,1.5438,1.5316,1.5269,1.5221,1.5248,1.5445,1.552,1.5622,1.5811,1.5886,1.5886,1.5791,1.5866,1.5886,1.5784,1.5913,1.6051,1.6051,1.6051,1.6071,1.6076,1.599,1.5928,1.5983,1.5744,1.5593,1.5593,1.554,1.5438,1.533,1.552,1.5567,1.5472,1.5371,1.533,0.8275,0.8177,0.7688,0.6666,0.6528,0.6164,0.432,0.5524,0.6928,0.6638,0.7717,0.8793,0.8939,0.893,0.8418,0.6947,0.67,0.6954,0.7748,0.7831,0.8624,1.0882,1.1178,1.1807,1.3272,1.3403,1.3403,1.3403,1.3403,1.3403,1.3403,1.3403,1.3403,1.3403,1.3403,1.3403,1.3403,1.3403,1.3424,1.3478,1.3532,1.3682,1.3919,1.3973,1.4109,1.4299,1.4299,1.4299,1.4299,1.4299,1.4299,1.4299,1.4299,1.4299,1.4299,1.4299,1.4299,1.4306,1.4353,1.4401,1.4455,1.4557,1.4692,1.4835,1.4983,1.5085,1.512,1.5167,1.5181,1.5194,1.5248,1.533,1.5418,1.5472,1.5527,1.5574,1.558,1.5472,1.5398,1.5343,1.5337,1.5398,1.5553,1.5593,1.5661,1.59,1.5974,1.6017,1.5915,1.6037,1.6092,1.599,1.6071,1.6083,1.6083,1.6085,1.6029,1.6076,1.5893,1.5825,1.5976,1.5744,1.5614,1.571,1.5608,1.556,1.556,1.5655,1.5683,1.5587,1.5485,1.5459,0.0,0.0,0.0,0.875,0.6696,0.5426,1.0269,0.9914,0.9372,1.2285,1.303,1.3227,1.3363,1.3275,1.181,0.7561,0.6905,0.7656,0.9868,1.0122,1.0918,1.3141,1.3397,1.3403,1.3403,1.3403,1.3403,1.3403,1.3403,1.3403,1.3403,1.3403,1.3403,1.3403,1.3403,1.3403,1.3403,1.3403,1.3478,1.3578,1.3471,1.3634,1.4061,1.3912,1.3964,1.4299,1.4299,1.4299,1.4299,1.4299,1.4299,1.4299,1.4299,1.4299,1.4299,1.4299,1.4299,1.4319,1.4462,1.4428,1.436,1.4606,1.4606,1.459,1.4935,1.5023,1.5051,1.5147,1.5181,1.5215,1.5371,1.5628,1.5867,1.5676,1.575,1.5867,1.5627,1.5527,1.5466,1.556,1.5593,1.5593,1.5593,1.56,1.56,1.56,1.5771,1.5908,1.5908,1.6037,1.6083,1.6083,1.6083,1.6083,1.6083,1.5996,1.5976,1.6076,1.5805,1.5778,1.6069,1.5798,1.571,1.5908,1.5901,1.5901,1.5908,1.5574,1.5506,1.56,1.5593,1.5506,0.7918,0.0,0.0,0.0,0.0,0.0,0.6363,0.8034,0.9783,0.9773,1.1039,1.2413,1.3112,1.3241,1.2813,1.1611,1.1335,1.1485,1.21,1.2263,1.2572,1.3193,1.3336,1.3403,1.3403,1.3403,1.3403,1.3403,1.3403,1.3403,1.3403,1.3403,1.3403,1.3403,1.3403,1.3403,1.3403,1.3403,1.3424,1.3464,1.3424,1.358,1.3862,1.3815,1.3964,1.4299,1.4299,1.4299,1.4299,1.4299,1.4299,1.4299,1.4299,1.4299,1.4299,1.4299,1.4299,1.4319,1.4462,1.4557,1.4652,1.4841,1.495,1.5011,1.5099,1.5126,1.5133,1.5174,1.5181,1.5215,1.5371,1.5628,1.5894,1.5854,1.5874,1.5894,1.5854,1.5813,1.571,1.56,1.5593,1.5669,1.5778,1.584,1.5832,1.594,1.5995,1.6015,1.6015,1.6056,1.6083,1.6083,1.6083,1.6083,1.6083,1.6092,1.6035,1.6076,1.59,1.5879,1.6076,1.59,1.5915,1.6064,1.5956,1.5956,1.6015,1.5934,1.592,1.5954,1.5688,1.5499,0.7993,0.7988,0.7841,0.7192,0.0,0.0,0.6842,0.8374,1.0018,0.983,1.0931,1.2108,1.2698,1.2807,1.2847,1.2969,1.2868,1.2853,1.2982,1.3071,1.3146,1.3207,1.3241,1.3241,1.3302,1.3308,1.3308,1.3308,1.3363,1.3403,1.3403,1.3403,1.3403,1.3403,1.3403,1.3403,1.3403,1.3403,1.3403,1.3403,1.3403,1.3526,1.3714,1.3774,1.393,1.4204,1.4204,1.4238,1.4292,1.4231,1.4245,1.4299,1.4299,1.4299,1.4299,1.4299,1.4299,1.4319,1.4462,1.4529,1.459,1.4808,1.493,1.5011,1.5072,1.518,1.5181,1.5181,1.5276,1.5391,1.5486,1.573,1.5996,1.5996,1.5996,1.5996,1.5996,1.5996,1.5906,1.5757,1.5778,1.5852,1.5983,1.5996,1.603,1.6069,1.6083,1.6083,1.6083,1.6083,1.6083,1.6083,1.6083,1.6083,1.6083,1.6083,1.6083,1.6083,1.599,1.5969,1.6076,1.5983,1.5976,1.6076,1.6044,1.6044,1.6083,1.6015,1.6071,1.6076,1.5839,1.5635,0.8002,0.8027,0.8101,0.837,0.8262,0.0,0.9498,0.9704,0.9971,1.1111,1.1572,1.1866,1.2054,1.2094,1.2176,1.2402,1.2427,1.2508,1.2921,1.2989,1.3043,1.3112,1.3071,1.305,1.318,1.3207,1.3214,1.3214,1.3315,1.3403,1.3403,1.3403,1.3403,1.3403,1.3403,1.3403,1.3403,1.3403,1.3403,1.3403,1.3403,1.3485,1.3592,1.3714,1.3899,1.4091,1.4105,1.415,1.4265,1.4187,1.4177,1.4299,1.4299,1.4299,1.4299,1.4299,1.4299,1.4319,1.4462,1.4428,1.4367,1.4606,1.4708,1.4794,1.493,1.5072,1.5187,1.5201,1.5418,1.5593,1.5607,1.5872,1.6083,1.6083,1.6083,1.6083,1.6083,1.6083,1.6042,1.5956,1.6037,1.6083,1.6083,1.6083,1.6083,1.6083,1.6083,1.6083,1.6083,1.6083,1.6083,1.6083,1.6083,1.6083,1.6083,1.6083,1.6083,1.6083,1.6003,1.599,1.6076,1.6003,1.599,1.6076,1.6083,1.6083,1.6083,1.5996,1.5983,1.6029,1.5956,1.6028,0.8115,0.8133,0.8208,0.8115,0.8262,0.0,0.8399,0.8506,0.8805,0.9519,0.9812,1.0131,1.0724,1.0839,1.086,1.0921,1.1307,1.1884,1.2664,1.2881,1.2969,1.2827,1.2901,1.3009,1.3043,1.3146,1.3214,1.3214,1.3315,1.3403,1.3403,1.3403,1.3403,1.3403,1.3403,1.3403,1.3403,1.3403,1.3403,1.3403,1.3403,1.3485,1.3592,1.3612,1.3707,1.3849,1.4021,1.4089,1.4166,1.4217,1.4272,1.4299,1.4299,1.4299,1.4299,1.4299,1.4299,1.4319,1.4462,1.4496,1.4502,1.4633,1.4821,1.493,1.501,1.5072,1.5208,1.533,1.5499,1.5621,1.5784,1.5947,1.6083,1.6083,1.6083,1.6083,1.6083,1.6083,1.6076,1.6092,1.6062,1.6083,1.6083,1.6083,1.6083,1.6083,1.6083,1.6083,1.6083,1.6083,1.6083,1.6083,1.6083,1.6083,1.6083,1.6083,1.6083,1.6083,1.6105,1.6049,1.6083,1.6056,1.6049,1.6083,1.6083,1.6083,1.6083,1.6049,1.5927,1.5681,1.586,1.6867,0.8155,0.8074,0.8174,0.8241,0.8262,0.0,0.0,0.854,0.8662,0.9186,0.9417,0.9612,0.9985,1.0107,1.0209,1.0365,1.0921,1.1355,1.1586,1.2257,1.2732,1.2693,1.28,1.2874,1.2996,1.3064,1.3139,1.3207,1.3315,1.3403,1.3403,1.3403,1.3403,1.3403,1.3403,1.3403,1.3403,1.3403,1.3403,1.3403,1.3403,1.3444,1.3519,1.3551,1.3626,1.37,1.3892,1.4,1.4119,1.4156,1.4231,1.4299,1.4299,1.4299,1.4299,1.4299,1.4299,1.4312,1.438,1.4407,1.4428,1.4577,1.4733,1.4869,1.495,1.5072,1.5215,1.5364,1.552,1.5676,1.5867,1.6017,1.6083,1.6083,1.6083,1.6083,1.6083,1.6083,1.6083,1.6083,1.6083,1.6083,1.6083,1.6083,1.6083,1.6083,1.6083,1.6083,1.6083,1.6083,1.6083,1.6083,1.6083,1.6083,1.6083,1.6083,1.6083,1.6083,1.6083,1.6083,1.6083,1.6083,1.6083,1.6083,1.6083,1.6083,1.6083,1.6083,1.5967,1.575,1.5867,1.6495,0.8358,0.8209,0.8263,0.8445,0.8343,0.8311,0.0,0.0,0.0,0.9055,0.9225,0.9278,0.9278,0.9372,0.9521,0.9768,1.0383,1.0669,1.0249,1.128,1.2128,1.2239,1.2415,1.2596,1.273,1.2502,1.2589,1.3146,1.2882,1.2894,1.339,1.337,1.337,1.3397,1.3403,1.3403,1.3403,1.3403,1.3403,1.3403,1.3403,1.3403,1.3403,1.3532,1.3545,1.3551,1.3727,1.3869,1.4034,1.4089,1.419,1.4299,1.4299,1.4299,1.4299,1.4299,1.4299,1.4299,1.4299,1.4319,1.436,1.4475,1.4638,1.4814,1.4964,1.5092,1.5221,1.5404,1.5499,1.5627,1.5901,1.6037,1.6083,1.6083,1.6083,1.6083,1.6083,1.6083,1.6083,1.6083,1.6083,1.6083,1.6083,1.6083,1.6083,1.6083,1.6083,1.6083,1.6083,1.6083,1.6083,1.6083,1.6083,1.6083,1.6083,1.6083,1.6083,1.6083,1.6083,1.6083,1.6083,1.6083,1.6083,1.6083,1.6083,1.6083,1.6083,1.6083,1.5988,1.586,1.637,1.6852,0.9007,0.8927,0.8968,0.86,0.8662,0.8689,0.8243,0.0,0.8321,0.8182,0.0,0.8189,0.8189,0.0,0.0,0.8106,0.8845,0.9349,0.9109,0.9937,1.0588,1.0731,1.1414,1.1854,1.1782,1.0693,1.0894,1.3058,1.1361,1.1132,1.3308,1.3275,1.3261,1.3397,1.3403,1.3403,1.3403,1.3403,1.3403,1.3403,1.3403,1.3403,1.3403,1.3417,1.3424,1.3444,1.368,1.3808,1.3842,1.4163,1.4285,1.4299,1.4299,1.4299,1.4299,1.4299,1.4299,1.4299,1.4299,1.438,1.4489,1.4509,1.4706,1.497,1.5113,1.5167,1.5242,1.5533,1.558,1.5654,1.5981,1.6069,1.6083,1.6083,1.6083,1.6083,1.6083,1.6083,1.6083,1.6083,1.6083,1.6083,1.6083,1.6083,1.6083,1.6083,1.6083,1.6083,1.6083,1.6083,1.6083,1.6083,1.6083,1.6083,1.6083,1.6083,1.6083,1.6083,1.6083,1.6083,1.6083,1.6083,1.6083,1.6083,1.6083,1.6083,1.6083,1.6083,1.594,1.5717,1.8002,2.0329,0.9088,0.9171,0.9313,0.8859,0.8906,0.8927,0.8411,0.8214,0.8094,0.8027,0.0,0.0,0.0,0.0,0.0,0.0,0.8554,0.8852,0.8331,0.9137,0.9941,1.0356,1.0772,1.1165,1.1457,1.1058,1.1308,1.2571,1.1731,1.1733,1.3105,1.3247,1.3336,1.3397,1.3403,1.3403,1.3403,1.3403,1.3403,1.3403,1.3403,1.3403,1.3403,1.3403,1.3451,1.3546,1.3707,1.3849,1.3994,1.4211,1.4299,1.4299,1.4299,1.4299,1.4299,1.4299,1.4353,1.4421,1.4421,1.4523,1.4658,1.4746,1.4923,1.5153,1.5167,1.5242,1.5357,1.5533,1.5696,1.5811,1.6029,1.6083,1.6083,1.6083,1.6083,1.6083,1.6083,1.6083,1.6083,1.6083,1.6083,1.6083,1.6083,1.6083,1.6083,1.6083,1.6083,1.6083,1.6083,1.6083,1.6083,1.6083,1.6083,1.6083,1.6083,1.6083,1.6083,1.6083,1.6083,1.6083,1.6083,1.6164,1.6171,1.6083,1.6171,1.6171,1.6083,1.7642,1.8149,1.7776,1.8897,2.0679,0.9447,0.9571,0.9707,0.9061,0.9015,0.8995,0.8472,0.8263,0.8162,0.804,0.8115,0.0,0.0,0.0,0.7975,0.0,0.0,0.8446,0.7841,0.8479,0.9178,0.9612,0.9978,1.0405,1.1002,1.0629,1.0829,1.1986,1.1382,1.1562,1.2948,1.3125,1.3275,1.3397,1.3403,1.3403,1.3403,1.3403,1.3403,1.3403,1.3403,1.3403,1.3403,1.3403,1.3464,1.3531,1.372,1.3862,1.4021,1.4217,1.4299,1.4299,1.4299,1.4299,1.4299,1.4299,1.4387,1.4509,1.4509,1.4638,1.4828,1.4977,1.5099,1.5181,1.5181,1.5262,1.5391,1.5539,1.5716,1.5839,1.6035,1.6083,1.6083,1.6083,1.6083,1.6083,1.6083,1.6083,1.6083,1.6083,1.6083,1.6083,1.6083,1.6083,1.6083,1.6083,1.6083,1.6083,1.6083,1.6083,1.6083,1.6083,1.6083,1.6083,1.6083,1.6083,1.6083,1.6083,1.6083,1.6083,1.6083,1.6232,1.6239,1.6083,1.6273,1.6293,1.6144,1.8833,2.0305,2.0614,2.1115,2.2291,1.0439,1.0344,1.0215,0.9163,0.8912,0.8764,0.8162,0.8358,0.8541,0.8101,0.8358,0.8527,0.8094,0.0,0.0,0.0,0.0,0.0,0.0,0.7858,0.806,0.8081,0.8886,0.9628,1.0115,0.8373,0.8421,1.1203,0.9381,0.9545,1.2821,1.2827,1.2909,1.339,1.3403,1.3403,1.3403,1.3403,1.3403,1.3403,1.3403,1.3403,1.3403,1.3403,1.3403,1.3424,1.3673,1.3802,1.3829,1.4177,1.4299,1.4299,1.4299,1.4299,1.4299,1.4299,1.4387,1.4509,1.4509,1.4713,1.503,1.5126,1.5181,1.5181,1.5181,1.5187,1.5255,1.5506,1.5593,1.5716,1.6008,1.6083,1.6083,1.6083,1.6083,1.6083,1.6083,1.6083,1.6083,1.6083,1.6083,1.6083,1.6083,1.6083,1.6083,1.6083,1.6083,1.6083,1.6083,1.6083,1.6083,1.6083,1.6083,1.6083,1.6083,1.6083,1.6083,1.6083,1.6083,1.6083,1.6083,1.6232,1.6239,1.6083,1.6368,1.6442,1.63,1.9184,2.1763,2.3966,2.5805,2.662,1.1084,1.1341,1.1382,1.0134,0.9897,0.968,0.8581,0.8526,0.8554,0.8108,0.8372,0.8547,0.8094,0.0,0.0,0.0,0.0,0.0,0.0,0.7804,0.7864,0.7864,0.8574,0.9122,0.93,0.8958,0.9374,1.084,1.0285,1.0701,1.2447,1.2651,1.2888,1.3282,1.3247,1.3302,1.3397,1.3403,1.3403,1.3403,1.3403,1.3403,1.3403,1.3403,1.3458,1.3518,1.3714,1.3899,1.4007,1.4217,1.4299,1.4299,1.4299,1.4299,1.4299,1.4299,1.4455,1.4647,1.4889,1.5025,1.512,1.5167,1.5181,1.5181,1.5181,1.5323,1.5458,1.556,1.5778,1.5954,1.6056,1.6083,1.6083,1.6083,1.6083,1.6083,1.6083,1.6083,1.6083,1.6083,1.6083,1.6083,1.6083,1.6083,1.6083,1.6083,1.6083,1.6083,1.6083,1.6083,1.6083,1.6083,1.6083,1.6083,1.6083,1.6178,1.6191,1.609,1.6266,1.6334,1.6239,1.6469,1.6479,1.6374,1.652,1.7456,1.9149,2.1853,2.4426,2.6864,2.9073,2.9862,1.166,1.1952,1.202,1.0914,1.0696,1.0405,0.9164,0.9042,0.8967,0.8311,0.8446,0.8608,0.8236,0.0,0.0,0.0,0.0,0.0,0.0,0.7824,0.781,0.7864,0.8297,0.8676,0.8892,0.898,0.9399,1.0299,1.0461,1.0907,1.188,1.2325,1.2732,1.3125,1.3186,1.3247,1.3397,1.3403,1.3431,1.3485,1.3424,1.3431,1.3478,1.3424,1.3458,1.3559,1.3714,1.3856,1.4007,1.4211,1.4299,1.4299,1.4299,1.4333,1.4373,1.4373,1.4563,1.4855,1.5099,1.5181,1.5181,1.5181,1.5221,1.5262,1.5262,1.5438,1.5614,1.5715,1.5893,1.6029,1.6137,1.6123,1.6083,1.6083,1.6083,1.6083,1.6083,1.6083,1.6083,1.6083,1.6123,1.6144,1.609,1.613,1.6144,1.609,1.6083,1.6103,1.6157,1.6117,1.6123,1.6225,1.6191,1.6185,1.6232,1.6279,1.6266,1.6171,1.6341,1.6402,1.6313,1.654,1.6655,1.6554,1.6754,1.7649,1.9316,2.2959,2.5563,2.7207,3.0375,3.157]},{"header":{"parameterUnit":"m.s-1","parameterCategory":1,"la1":30.6,"la2":29.2853,"lo1":-89.7004,"lo2":-87.6739,"dy":0.0162,"dx":0.0183,"nx":112,"ny":82,"refTime":"2023-09-29T18:00:00:Z","depth":0,"parameterNumber":3,"parameterNumberName":"V-component_of_WINDS"},"data":[0.0,0.0,0.0,0.0,0.0,0.0,0.0,0.0,0.0,0.0,0.0,0.0,0.0,0.0,0.0,0.0,0.0,0.0,0.0,0.0,0.0,0.0,0.0,0.0,0.0,0.0,0.0,0.0,0.0,0.0,0.0,0.0,0.0,0.0,0.0,0.0,0.0,0.0,0.0,0.0,0.0,0.0,0.0,0.0,0.0,0.0,0.0,0.0,0.0,0.0,0.0,0.0,0.0,0.0,0.0,0.0,0.0,0.0,0.0,0.0,0.0,0.0,0.0,0.0,0.0,0.0,0.0,0.0,0.0,0.0,0.0,0.0,0.0,0.0,0.0,0.0,0.0,0.0,0.0,0.0,0.0,0.0,0.0,0.0,0.0,0.0,0.0,0.0,0.0,0.0,4.0745,4.2296,4.4372,4.461,4.2036,4.1092,3.9129,3.5527,0.0,0.0,0.0,0.0,0.0,0.0,0.0,0.0,0.0,0.0,0.0,0.0,0.0,0.0,0.0,0.0,0.0,0.0,0.0,0.0,0.0,0.0,0.0,0.0,0.0,0.0,0.0,0.0,0.0,0.0,0.0,0.0,0.0,0.0,0.0,0.0,0.0,0.0,0.0,0.0,0.0,0.0,0.0,0.0,0.0,0.0,0.0,0.0,0.0,0.0,0.0,0.0,0.0,0.0,0.0,0.0,0.0,0.0,0.0,0.0,0.0,0.0,0.0,0.0,0.0,0.0,0.0,0.0,0.0,0.0,0.0,0.0,0.0,0.0,0.0,0.0,0.0,0.0,0.0,0.0,0.0,0.0,0.0,0.0,0.0,0.0,0.0,0.0,0.0,0.0,0.0,0.0,0.0,0.0,0.0,0.0,0.0,0.0,0.0,0.0,0.0,0.0,0.0,0.0,4.0684,4.364,4.4394,4.3904,4.1986,4.0481,3.8125,3.4603,0.0,0.0,0.0,0.0,0.0,0.0,0.0,0.0,0.0,0.0,0.0,0.0,0.0,0.0,0.0,0.0,0.0,0.0,0.0,0.0,0.0,0.0,0.0,0.0,0.0,0.0,0.0,0.0,0.0,0.0,0.0,0.0,0.0,0.0,0.0,0.0,0.0,0.0,0.0,0.0,0.0,0.0,0.0,0.0,0.0,0.0,0.0,0.0,0.0,0.0,0.0,0.0,0.0,0.0,0.0,0.0,0.0,0.0,0.0,0.0,0.0,0.0,0.0,0.0,0.0,0.0,0.0,0.0,0.0,0.0,0.0,0.0,0.0,0.0,0.0,0.0,0.0,0.0,0.0,0.0,0.0,0.0,0.0,0.0,0.0,0.0,0.0,0.0,0.0,0.0,0.0,0.0,0.0,0.0,0.0,0.0,0.0,0.0,0.0,0.0,0.0,0.0,0.0,4.0718,4.2388,4.4765,4.512,4.4464,4.2678,4.062,3.8492,3.6409,3.4891,0.0,0.0,0.0,0.0,0.0,0.0,0.0,0.0,0.0,0.0,0.0,0.0,0.0,0.0,0.0,0.0,0.0,0.0,0.0,0.0,0.0,0.0,0.0,0.0,0.0,0.0,0.0,0.0,0.0,0.0,0.0,0.0,0.0,0.0,0.0,0.0,0.0,0.0,0.0,0.0,0.0,0.0,0.0,0.0,0.0,0.0,0.0,0.0,0.0,0.0,0.0,0.0,0.0,0.0,0.0,0.0,0.0,0.0,0.0,0.0,0.0,0.0,0.0,0.0,0.0,0.0,0.0,0.0,0.0,0.0,0.0,0.0,0.0,0.0,0.0,0.0,0.0,0.0,0.0,0.0,0.0,0.0,0.0,0.0,0.0,0.0,0.0,0.0,0.0,0.0,0.0,0.0,0.0,0.0,0.0,0.0,0.0,0.0,0.0,0.0,0.0,0.0,4.2528,4.3821,4.5419,4.5511,4.4807,4.3217,4.0622,3.8684,3.7749,3.4431,0.0,0.0,0.0,0.0,0.0,0.0,0.0,0.0,0.0,0.0,0.0,0.0,0.0,0.0,0.0,0.0,0.0,0.0,0.0,0.0,0.0,0.0,0.0,0.0,0.0,0.0,0.0,0.0,0.0,0.0,0.0,0.0,0.0,0.0,0.0,0.0,0.0,0.0,0.0,0.0,0.0,0.0,0.0,0.0,0.0,0.0,0.0,0.0,0.0,0.0,0.0,0.0,0.0,0.0,0.0,0.0,0.0,0.0,0.0,0.0,0.0,0.0,0.0,0.0,0.0,0.0,0.0,0.0,0.0,0.0,0.0,0.0,0.0,0.0,0.0,0.0,0.0,0.0,0.0,0.0,0.0,0.0,0.0,0.0,0.0,0.0,0.0,0.0,0.0,0.0,0.0,0.0,0.0,0.0,0.0,0.0,0.0,0.0,0.0,0.0,0.0,0.0,4.2192,4.3835,4.5424,4.4872,4.4068,4.3162,4.0023,3.7714,3.685,3.3397,0.0,0.0,0.0,0.0,0.0,0.0,0.0,0.0,0.0,0.0,0.0,0.0,0.0,0.0,0.0,0.0,0.0,0.0,0.0,0.0,0.0,0.0,0.0,0.0,0.0,0.0,0.0,0.0,0.0,0.0,0.0,0.0,0.0,0.0,0.0,0.0,0.0,0.0,0.0,0.0,0.0,0.0,0.0,0.0,0.0,0.0,0.0,0.0,0.0,0.0,0.0,0.0,0.0,0.0,0.0,0.0,0.0,0.0,0.0,0.0,0.0,0.0,0.0,0.0,0.0,0.0,0.0,0.0,0.0,0.0,0.0,0.0,0.0,0.0,0.0,0.0,0.0,0.0,0.0,0.0,0.0,0.0,0.0,0.0,0.0,0.0,0.0,0.0,0.0,0.0,0.0,0.0,0.0,0.0,0.0,0.0,0.0,0.0,0.0,0.0,0.0,0.0,4.256,4.4133,4.4714,4.4047,4.3201,4.235,3.9158,3.7225,3.7257,0.0,0.0,0.0,0.0,0.0,0.0,0.0,0.0,0.0,0.0,0.0,0.0,0.0,0.0,0.0,0.0,0.0,0.0,0.0,0.0,0.0,0.0,0.0,0.0,0.0,0.0,0.0,0.0,0.0,0.0,0.0,0.0,0.0,0.0,0.0,0.0,0.0,0.0,0.0,0.0,0.0,0.0,0.0,0.0,0.0,0.0,0.0,0.0,0.0,0.0,0.0,0.0,0.0,0.0,0.0,0.0,0.0,0.0,0.0,0.0,0.0,0.0,0.0,0.0,0.0,0.0,0.0,0.0,0.0,0.0,0.0,0.0,0.0,0.0,0.0,0.0,0.0,0.0,0.0,0.0,0.0,0.0,0.0,0.0,0.0,0.0,0.0,0.0,0.0,0.0,0.0,0.0,0.0,0.0,0.0,0.0,0.0,0.0,0.0,0.0,0.0,0.0,4.0971,4.2969,4.4316,4.4316,4.3585,4.2624,4.147,3.8186,3.6481,3.7138,0.0,0.0,0.0,0.0,0.0,0.0,0.0,0.0,0.0,0.0,0.0,0.0,0.0,0.0,0.0,0.0,0.0,0.0,0.0,0.0,0.0,0.0,0.0,0.0,0.0,0.0,0.0,0.0,0.0,0.0,0.0,0.0,0.0,0.0,0.0,0.0,0.0,0.0,0.0,0.0,0.0,0.0,0.0,0.0,0.0,0.0,0.0,0.0,0.0,0.0,0.0,0.0,0.0,0.0,0.0,0.0,0.0,0.0,0.0,0.0,0.0,0.0,0.0,0.0,0.0,0.0,0.0,0.0,0.0,0.0,0.0,0.0,0.0,0.0,0.0,0.0,0.0,0.0,0.0,0.0,0.0,0.0,0.0,0.0,0.0,0.0,0.0,0.0,0.0,0.0,0.0,0.0,0.0,0.0,0.0,0.0,0.0,0.0,0.0,0.0,0.0,0.0,4.1757,4.3323,4.4316,4.4316,4.3585,4.2393,4.0669,3.7197,3.5459,0.0,0.0,0.0,0.0,0.0,0.0,0.0,0.0,0.0,0.0,0.0,0.0,0.0,0.0,0.0,0.0,0.0,0.0,0.0,0.0,0.0,0.0,0.0,0.0,0.0,0.0,0.0,0.0,0.0,0.0,0.0,0.0,0.0,0.0,0.0,0.0,0.0,0.0,0.0,0.0,0.0,0.0,0.0,0.0,0.0,0.0,0.0,0.0,0.0,0.0,0.0,0.0,0.0,0.0,0.0,0.0,0.0,0.0,0.0,0.0,0.0,0.0,0.0,0.0,0.0,0.0,0.0,0.0,0.0,0.0,0.0,0.0,0.0,0.0,0.0,0.0,0.0,0.0,0.0,0.0,0.0,0.0,0.0,0.0,0.0,0.0,0.0,0.0,0.0,0.0,0.0,0.0,0.0,0.0,0.0,0.0,0.0,0.0,0.0,0.0,0.0,0.0,0.0,4.0783,4.2895,4.4316,4.4316,4.3585,4.2393,4.0669,3.7682,3.621,3.6821,0.0,0.0,0.0,0.0,0.0,0.0,0.0,0.0,0.0,0.0,0.0,0.0,0.0,0.0,0.0,0.0,0.0,0.0,0.0,0.0,0.0,0.0,0.0,0.0,0.0,0.0,0.0,0.0,0.0,0.0,0.0,0.0,0.0,0.0,0.0,0.0,0.0,0.0,0.0,0.0,0.0,0.0,0.0,0.0,0.0,0.0,0.0,0.0,0.0,0.0,0.0,0.0,0.0,0.0,0.0,0.0,0.0,0.0,0.0,0.0,0.0,0.0,0.0,0.0,0.0,0.0,0.0,0.0,0.0,0.0,0.0,0.0,0.0,0.0,0.0,0.0,0.0,0.0,0.0,0.0,0.0,0.0,0.0,0.0,0.0,0.0,0.0,0.0,0.0,0.0,0.0,0.0,0.0,0.0,0.0,0.0,0.0,0.0,0.0,0.0,0.0,0.0,4.1391,4.3177,4.4162,4.3855,4.3393,4.2277,4.0208,3.7649,3.6316,3.6594,0.0,0.0,0.0,0.0,0.0,0.0,0.0,0.0,0.0,0.0,0.0,0.0,0.0,0.0,0.0,0.0,0.0,0.0,0.0,0.0,0.0,0.0,0.0,0.0,0.0,0.0,0.0,0.0,0.0,0.0,0.0,0.0,0.0,0.0,0.0,0.0,0.0,0.0,0.0,0.0,0.0,0.0,0.0,0.0,0.0,0.0,0.0,0.0,0.0,0.0,0.0,0.0,0.0,0.0,0.0,0.0,0.0,0.0,0.0,0.0,0.0,0.0,0.0,0.0,0.0,0.0,0.0,0.0,0.0,0.0,0.0,0.0,0.0,0.0,0.0,0.0,0.0,0.0,0.0,0.0,0.0,0.0,0.0,0.0,0.0,0.0,0.0,0.0,0.0,0.0,0.0,0.0,0.0,0.0,0.0,0.0,0.0,0.0,0.0,0.0,0.0,0.0,4.2857,4.3775,4.397,4.3393,4.3201,4.2085,3.9627,3.7385,3.6063,3.6027,0.0,0.0,0.0,0.0,0.0,0.0,0.0,0.0,0.0,0.0,0.0,0.0,0.0,0.0,0.0,0.0,0.0,0.0,0.0,0.0,0.0,0.0,0.0,0.0,0.0,0.0,0.0,0.0,0.0,0.0,0.0,0.0,0.0,0.0,0.0,0.0,0.0,0.0,0.0,0.0,0.0,0.0,0.0,0.0,0.0,0.0,0.0,0.0,0.0,0.0,0.0,0.0,0.0,0.0,0.0,0.0,0.0,0.0,0.0,0.0,2.5257,2.3641,0.0,0.0,0.0,0.0,0.0,0.0,0.0,0.0,0.0,0.0,0.0,0.0,0.0,0.0,0.0,0.0,0.0,0.0,0.0,0.0,0.0,0.0,0.0,0.0,0.0,0.0,0.0,0.0,0.0,0.0,0.0,0.0,0.0,0.0,0.0,0.0,0.0,0.0,0.0,0.0,4.2799,4.3268,4.3816,4.4936,4.3897,4.2316,4.04,3.8218,3.6917,3.6842,3.4915,0.0,0.0,0.0,0.0,0.0,0.0,0.0,0.0,0.0,0.0,0.0,0.0,0.0,0.0,0.0,0.0,0.0,0.0,0.0,0.0,0.0,0.0,0.0,0.0,0.0,0.0,0.0,0.0,0.0,0.0,0.0,0.0,0.0,0.0,0.0,0.0,0.0,0.0,0.0,0.0,0.0,0.0,0.0,0.0,0.0,0.0,0.0,0.0,0.0,0.0,0.0,0.0,0.0,0.0,0.0,0.0,0.0,0.0,0.0,3.0217,2.7406,0.0,0.0,0.0,0.0,0.0,0.0,0.0,0.0,0.0,0.0,0.0,0.0,0.0,0.0,0.0,0.0,0.0,0.0,0.0,0.0,0.0,0.0,0.0,0.0,0.0,0.0,0.0,0.0,0.0,0.0,0.0,0.0,0.0,0.0,0.0,0.0,0.0,0.0,0.0,0.0,4.2816,4.3431,4.3855,4.4359,4.3624,4.2393,4.0669,3.8968,3.7928,3.7721,3.6149,0.0,0.0,0.0,0.0,0.0,0.0,0.0,0.0,0.0,0.0,0.0,0.0,0.0,0.0,0.0,0.0,0.0,0.0,0.0,0.0,0.0,0.0,0.0,0.0,0.0,0.0,0.0,0.0,0.0,0.0,0.0,0.0,0.0,0.0,0.0,0.0,0.0,0.0,0.0,0.0,0.0,0.0,0.0,0.0,0.0,0.0,0.0,0.0,0.0,0.0,0.0,0.0,0.0,4.0015,4.0246,4.0665,4.1254,4.1512,4.1288,3.7403,3.3723,3.0338,2.9294,0.0,0.0,0.0,0.0,0.0,0.0,0.0,0.0,0.0,0.0,0.0,0.0,0.0,0.0,0.0,0.0,0.0,0.0,0.0,0.0,0.0,0.0,4.0707,4.5017,4.6471,4.5774,4.1704,0.0,0.0,0.0,0.0,0.0,0.0,0.0,0.0,0.0,0.0,0.0,4.3278,4.397,4.4085,4.3585,4.3278,4.2393,4.0669,3.9529,3.8775,3.8493,3.7352,3.6327,0.0,0.0,0.0,0.0,0.0,0.0,0.0,0.0,0.0,0.0,0.0,0.0,0.0,0.0,0.0,0.0,0.0,0.0,0.0,0.0,0.0,0.0,0.0,0.0,0.0,0.0,0.0,0.0,0.0,0.0,0.0,0.0,3.0899,2.8808,0.0,0.0,0.0,0.0,0.0,0.0,0.0,0.0,0.0,0.0,0.0,0.0,0.0,3.9419,4.1546,4.2829,4.3196,4.2728,4.6294,4.7299,4.6082,4.8949,5.0236,5.0144,4.8591,0.0,3.7172,3.2321,0.0,0.0,0.0,0.0,0.0,0.0,0.0,0.0,0.0,0.0,0.0,0.0,0.0,0.0,0.0,0.0,0.0,0.0,0.0,0.0,0.0,0.0,4.1689,4.6583,4.7312,4.6928,4.6928,4.5898,4.4667,4.382,4.2624,4.1504,0.0,0.0,0.0,0.0,0.0,0.0,4.4975,4.4705,4.4551,4.5205,4.3974,4.2393,4.0669,3.9529,3.8894,3.8856,3.748,3.6956,3.75,3.7416,0.0,0.0,0.0,0.0,0.0,0.0,0.0,0.0,0.0,0.0,0.0,0.0,0.0,0.0,0.0,0.0,0.0,0.0,0.0,0.0,0.0,0.0,0.0,0.0,0.0,0.0,0.0,0.0,0.0,3.0186,3.1751,2.7679,3.0509,3.1226,0.0,0.0,0.0,0.0,0.0,0.0,0.0,0.0,0.0,3.8991,4.2468,4.482,4.5957,4.8232,4.9924,5.0955,5.2314,5.2584,5.1957,5.3387,5.378,5.3308,5.2329,5.0263,4.7227,4.1619,3.8486,3.7029,0.0,0.0,0.0,0.0,3.615,3.7327,3.712,3.6924,3.701,3.7909,0.0,0.0,0.0,0.0,0.0,0.0,0.0,3.6918,4.012,4.3279,4.6399,4.9509,5.0351,5.0543,5.089,5.0005,4.8586,4.6778,4.6624,4.624,4.4393,4.3705,0.0,0.0,0.0,4.4509,4.6124,4.6394,4.6201,4.5667,4.4513,4.3085,4.1393,4.0359,3.9721,3.9576,3.8527,3.7934,3.7883,3.7792,3.7458,0.0,0.0,0.0,0.0,0.0,0.0,0.0,0.0,0.0,0.0,0.0,0.0,0.0,0.0,0.0,0.0,0.0,0.0,0.0,0.0,0.0,0.0,0.0,0.0,0.0,0.0,0.0,0.0,3.1757,3.3581,2.8125,3.2987,3.4851,0.0,0.0,0.0,0.0,0.0,0.0,3.7877,4.1349,4.3597,4.4246,4.8501,5.0975,5.1416,5.3903,5.6088,5.7978,5.7555,5.7209,5.7016,5.7247,5.7016,5.6401,5.5742,5.5857,5.5918,4.9345,4.5011,4.2436,4.137,4.1361,4.1976,4.2152,4.3013,4.4186,4.4761,4.4667,4.4355,4.4816,4.4393,4.3705,4.3523,0.0,0.0,0.0,0.0,4.167,4.4176,4.7448,5.0679,5.2704,5.3703,5.4241,5.4467,5.3813,5.2313,4.9356,4.963,4.9707,4.7582,4.6663,0.0,4.5975,4.6129,4.6471,4.712,4.7735,4.7548,4.609,4.5167,4.3855,4.1966,4.12,4.0636,4.0228,3.9566,3.8981,3.8482,3.8296,3.7813,3.7019,0.0,0.0,0.0,0.0,0.0,0.0,0.0,0.0,0.0,0.0,0.0,0.0,0.0,0.0,0.0,0.0,0.0,0.0,0.0,0.0,0.0,0.0,0.0,0.0,0.0,0.0,0.0,0.0,0.0,3.3515,3.8853,0.0,0.0,0.0,0.0,3.8884,4.1318,4.3147,4.409,4.8069,5.1399,5.3808,5.6418,5.8561,6.0139,6.0325,6.0479,6.0633,6.1402,6.1325,6.0556,6.1402,6.1749,6.1716,6.1672,6.1672,6.1018,5.1798,4.8371,4.8615,4.5337,4.5131,4.6449,4.479,4.5263,4.6452,4.4066,4.3701,4.4586,4.6235,4.7778,4.8888,4.8203,4.7279,0.0,0.0,4.5356,4.606,4.8543,5.052,5.2695,5.5976,5.6786,5.7055,5.7857,5.7357,5.5516,5.1361,4.9976,4.9163,4.8197,0.0,4.7697,4.6966,4.7466,4.8005,4.8043,4.8082,4.7774,4.6928,4.6047,4.4513,4.2004,4.1773,4.1389,4.0538,4.0217,4.0034,4.0004,3.9394,3.9005,3.8955,3.8737,0.0,0.0,0.0,0.0,0.0,0.0,0.0,0.0,0.0,0.0,0.0,0.0,0.0,0.0,0.0,0.0,0.0,0.0,0.0,0.0,0.0,0.0,0.0,0.0,0.0,0.0,0.0,0.0,4.0929,4.5859,0.0,4.1979,4.2289,4.3494,4.5099,4.7612,5.0204,5.2705,5.5714,5.8308,6.033,6.0629,6.155,6.3243,6.2172,6.2172,6.3243,6.2974,6.2435,6.1633,6.1941,6.1787,6.1248,6.1248,6.1595,6.1826,5.8478,5.6319,5.4895,5.2549,5.2011,5.2599,5.2502,5.3248,5.4284,5.446,5.4318,5.401,5.3554,5.3439,5.3123,5.1288,5.0522,5.0008,4.8684,4.9423,5.0956,5.242,5.4795,5.7119,5.8336,5.9056,5.9363,5.9127,5.9281,5.8825,5.6742,5.5247,5.4016,5.3126,5.2087,5.1467,5.1741,5.1082,5.0543,5.0543,5.0543,5.0005,4.8663,4.7278,4.5624,4.3585,4.2427,4.1431,4.0554,4.0401,4.0291,4.0124,3.9643,3.9314,3.9093,3.8855,3.8737,0.0,0.0,0.0,0.0,0.0,0.0,0.0,0.0,0.0,0.0,0.0,0.0,0.0,0.0,0.0,0.0,0.0,0.0,0.0,0.0,0.0,0.0,0.0,0.0,0.0,4.3082,4.6717,4.6622,5.152,5.3277,4.9084,4.9459,5.0624,5.2205,5.4441,5.6875,5.9452,6.1659,6.3437,6.4833,6.4551,6.4861,6.5859,6.49,6.4915,6.5957,6.5174,6.4526,6.3994,6.368,6.325,6.2704,6.2606,6.291,6.34,6.3066,6.1935,6.0281,5.8819,5.8088,5.794,5.8517,5.9094,5.9704,6.0517,6.0435,5.9742,5.8632,5.7901,5.7115,5.5533,5.5027,5.4823,5.3742,5.462,5.5958,5.6551,5.8538,6.0358,6.0358,6.1012,6.1473,6.089,6.1243,6.1473,6.0896,5.9204,5.7671,5.7088,5.5857,5.5005,5.5318,5.4121,5.3082,5.2813,5.2274,5.1351,4.9976,4.8586,4.6932,4.4898,4.4008,4.2889,4.1474,4.1397,4.1293,4.1135,4.0499,4.0341,4.0716,4.0314,4.04,4.1045,0.0,0.0,0.0,0.0,0.0,0.0,0.0,0.0,0.0,0.0,0.0,0.0,0.0,0.0,0.0,0.0,0.0,0.0,0.0,0.0,0.0,0.0,0.0,4.2398,4.8511,5.2225,5.0605,5.5699,5.7966,5.4452,5.6472,5.8588,6.0095,6.1837,6.3197,6.406,6.5642,6.6839,6.756,6.8458,6.8821,6.8546,6.8774,6.8843,6.8738,6.8062,6.772,6.7681,6.6857,6.6465,6.6377,6.6222,6.6119,6.6013,6.5041,6.4634,6.4512,6.3622,6.282,6.2095,6.2133,6.2133,6.2018,6.1172,6.0896,6.0896,6.0896,6.0896,6.0896,6.0896,6.0864,6.0864,6.0864,6.0864,6.0864,6.0864,6.1518,6.2172,6.2172,6.2781,6.3352,6.3352,6.3352,6.3352,6.3352,6.1314,5.9627,5.9588,5.8858,5.8006,5.7154,5.628,0.0,5.4587,5.3044,5.1697,5.0899,5.0053,4.8514,4.5975,4.6509,4.5889,4.3316,4.3124,4.3124,4.3085,4.1987,4.2123,4.3817,4.327,4.3076,4.3303,0.0,0.0,0.0,0.0,0.0,0.0,0.0,0.0,0.0,0.0,0.0,0.0,0.0,0.0,0.0,0.0,0.0,0.0,0.0,0.0,0.0,4.7344,5.0781,4.9959,5.3125,5.6484,5.9139,6.1484,6.2457,6.1359,6.3027,6.4279,6.4632,6.6351,6.776,6.862,6.912,7.0,7.1414,7.041,7.0396,7.1599,6.9816,6.9182,6.9787,6.8949,6.8271,6.772,6.8073,6.7564,6.6426,6.7002,6.6819,6.6066,6.5799,6.5258,6.4512,6.3622,6.282,6.2172,6.2743,6.2974,6.2935,6.2698,6.2621,6.2621,6.2621,6.2621,6.2621,6.2621,6.2204,6.1864,6.2435,6.2204,6.1864,6.2474,6.3243,6.3897,6.3897,6.4551,6.5013,6.4397,6.4743,6.5013,6.4359,6.316,6.2089,6.1479,5.9665,5.8236,5.7967,5.6665,5.5401,5.4587,5.4087,5.3703,5.3477,5.2664,5.1395,4.9476,4.8937,4.7355,4.4162,4.397,4.3701,4.3124,4.2565,4.2345,4.2596,4.3599,4.3894,0.0,0.0,0.0,0.0,0.0,0.0,0.0,0.0,0.0,0.0,0.0,0.0,0.0,0.0,0.0,0.0,0.0,0.0,0.0,0.0,0.0,0.0,5.3711,5.8242,5.9062,6.0195,6.2109,6.5312,6.6133,6.6444,6.635,6.7206,6.7897,6.8169,6.9221,7.0214,7.1074,7.1111,7.1529,7.2434,7.1484,7.1546,7.2776,7.1078,7.0598,7.1365,7.0208,6.941,6.894,6.9098,6.8628,6.7727,6.8149,6.7962,6.7359,6.6924,6.642,6.5804,0.0,0.0,0.0,0.0,6.3776,6.3439,6.3439,6.3349,6.3314,6.3314,6.3314,6.3314,6.3314,6.2974,6.2704,6.316,6.2968,6.2704,6.316,6.3929,6.4589,6.4589,6.5282,6.5667,6.4782,6.5282,6.5513,6.432,6.366,0.0,6.2249,6.0556,5.9358,5.9358,5.7896,5.6626,5.6165,5.5164,5.4511,5.4511,5.339,5.2125,5.0822,5.0245,0.0,0.0,0.0,4.5547,4.4739,4.5199,0.0,0.0,0.0,4.6071,4.5366,4.6347,0.0,0.0,4.6422,4.6281,0.0,0.0,0.0,0.0,0.0,0.0,0.0,0.0,0.0,0.0,0.0,0.0,0.0,0.0,0.0,0.0,5.8867,6.4297,6.8359,6.8242,6.8242,6.9531,6.9765,6.9765,6.9765,6.9805,7.0156,7.0937,7.1094,7.1484,7.2265,7.2305,0.0,0.0,0.0,7.2477,7.2837,7.2398,7.2416,7.2878,7.1596,7.0898,7.0664,7.0156,6.9765,6.9492,6.939,6.9284,6.9114,6.8232,6.7894,6.7849,6.6503,6.5638,6.5136,6.5326,6.4881,6.4182,6.4182,0.0,0.0,6.3852,6.3814,6.3737,6.3852,6.3737,6.3583,6.3583,6.3468,6.3314,6.3314,6.3852,6.4436,6.4436,6.5128,6.5513,6.4628,6.5128,6.5282,6.3622,6.3237,6.2935,6.221,6.1287,6.0666,6.0666,5.9319,5.8313,5.8313,5.6242,5.4818,5.4934,5.3467,0.0,5.1323,5.1246,5.0476,4.862,4.8351,4.7966,4.7351,4.8663,4.9086,4.8394,4.8941,4.9012,4.8543,4.8328,4.9182,5.0938,4.9202,4.8894,0.0,0.0,0.0,0.0,0.0,0.0,0.0,0.0,0.0,0.0,0.0,0.0,0.0,0.0,0.0,5.9336,6.5625,7.0781,7.3047,7.3203,7.2695,7.164,7.1523,7.1523,7.1523,7.2148,7.2617,7.2773,7.3437,7.3906,7.4101,7.4101,7.4062,7.4021,7.4062,7.3827,7.3193,7.3085,7.2773,7.2185,7.2617,0.0,7.0742,7.1992,7.1406,6.9453,7.0116,6.9946,6.9195,6.8983,6.9236,6.9481,6.7186,6.6669,6.7129,6.7175,6.7417,6.7711,6.7711,6.7101,6.6474,6.7199,6.6936,6.6513,6.7199,6.6468,0.0,6.5397,6.4397,6.3314,6.3314,6.3429,6.3545,6.3545,6.4205,6.4628,6.3737,6.4243,6.4551,6.3506,6.2781,6.2287,6.2133,6.0787,5.9742,5.9742,5.8934,5.8313,5.8313,5.7247,5.6786,5.7511,5.6626,5.567,5.4824,5.4747,5.3703,5.1313,4.9894,4.9394,4.9938,4.9591,4.9668,5.0207,5.0922,5.1262,5.1159,5.1806,5.231,5.2664,5.0976,5.101,0.0,0.0,0.0,0.0,0.0,0.0,0.0,0.0,0.0,0.0,0.0,5.0312,5.2891,0.0,6.2734,6.5703,7.0195,7.375,7.5078,7.5625,7.5234,7.3515,7.3281,7.3281,7.3281,7.3711,7.414,7.457,7.5,7.5234,7.5234,7.5234,7.5039,7.4609,7.418,7.414,7.4609,7.3281,7.2851,7.3281,7.3281,7.2851,7.2031,7.3359,7.3242,7.1992,7.1992,7.1716,7.1235,7.0766,7.0556,7.041,7.0021,6.9564,6.905,6.8676,6.8933,6.9406,6.9087,6.8765,6.8496,6.8535,6.827,6.7884,6.7905,6.7221,6.6435,6.6096,6.5332,6.4512,6.4045,6.4282,6.4474,6.4045,6.4628,6.4897,6.3583,6.3968,6.4089,6.2397,6.2095,6.1941,6.1518,6.0748,6.0165,6.0165,5.9435,5.8896,5.8896,5.8165,5.7819,5.8236,5.7126,5.617,5.5747,5.4934,5.3895,5.262,5.1774,5.151,5.1933,5.1548,5.151,5.1933,5.2351,5.2544,5.2544,5.3005,5.3433,5.3857,5.34,5.3439,0.0,0.0,0.0,0.0,0.0,0.0,0.0,4.616,4.886,5.3906,5.6914,5.9648,6.3125,6.6289,6.9023,7.0898,7.3555,7.5547,7.6094,7.6758,7.668,7.5273,7.5117,7.5117,7.5117,7.5117,7.539,7.6094,7.6133,7.6133,7.6133,7.6133,7.5742,7.4883,7.4336,7.457,7.5625,7.3711,7.3398,7.4609,7.4062,7.3711,7.3594,7.4453,7.4765,7.457,7.3867,7.3476,7.3242,7.2734,7.1992,7.1328,7.2734,7.2494,7.1218,7.0622,7.0663,7.0925,7.0378,7.0299,7.034,6.9725,6.9348,6.9067,6.8355,6.7768,6.7186,6.6471,6.5986,6.5436,6.4589,6.4859,6.5205,6.4512,6.5013,6.5205,6.3622,6.3968,6.3935,6.1704,6.1749,6.1864,6.1172,6.0902,6.0787,6.0787,6.0204,5.9742,5.9742,5.905,5.8544,5.8544,5.7126,5.6132,5.5978,5.4549,5.3703,5.3703,5.3549,5.351,5.3664,5.3549,5.3549,5.3664,5.3857,5.3933,5.3933,5.4126,5.4549,5.5241,5.5895,5.5785,3.6652,3.8654,4.1633,4.4676,4.6136,4.8884,0.0,5.7304,5.7695,6.2109,6.4453,6.5898,6.6367,7.0469,7.3594,7.3086,7.5859,7.7812,7.7148,7.7148,7.7148,7.6914,7.6914,7.6914,7.6914,7.6914,7.6953,7.7031,7.7031,7.7031,7.7031,7.7031,7.664,7.5781,7.6406,7.6094,7.4765,7.5234,7.5156,7.4609,7.5273,7.5195,7.4492,7.5351,7.5312,7.4609,7.4492,7.4023,7.3359,7.4023,7.3789,7.3047,7.3203,7.3633,7.414,7.4062,7.3931,7.3827,7.3759,7.3181,7.2454,7.2362,7.1689,7.0893,7.0795,6.9583,6.8097,6.7218,6.5929,6.4551,6.366,6.3506,6.3583,6.3468,6.4128,6.4474,6.3506,6.3968,6.4282,6.3237,6.2512,6.2056,6.1979,6.1325,6.0787,6.0787,6.0704,6.0666,6.0666,5.9896,5.9358,5.9358,5.855,5.7703,5.6901,5.5978,5.5439,5.5439,5.4741,5.4664,5.5401,5.4741,5.4703,5.5401,5.617,5.6555,5.6593,5.7357,5.7775,5.7896,5.7967,5.755,4.6658,4.7535,4.8596,5.2608,5.5387,5.8135,6.1835,6.3672,6.5664,6.9492,7.207,7.3789,7.4258,7.5742,7.6914,7.6992,7.7851,7.8359,7.8008,7.7539,7.6836,7.582,7.5703,7.6094,7.7109,7.7187,7.7187,7.7187,7.7187,7.7187,7.7187,7.7187,7.7031,7.668,7.6523,7.6328,7.6133,7.5469,7.5234,7.5351,7.5742,7.5703,7.539,7.625,7.6172,7.5351,7.5351,7.5156,7.4805,7.4648,7.4375,7.4062,7.4062,7.3984,7.3828,7.3828,7.4362,7.5017,7.4628,7.4444,7.4358,7.3851,7.2971,7.1955,7.0937,6.9572,6.8244,6.7469,6.6699,6.609,6.6237,6.5891,6.5513,6.5513,6.5436,6.5128,6.4237,6.4359,6.4359,6.3468,6.3051,6.2666,6.2172,6.1787,6.1364,6.0864,6.0787,6.0787,6.0787,6.0473,6.005,5.955,5.9204,5.8665,5.7819,5.7434,5.7203,5.7203,5.6896,5.6857,5.7203,5.6896,5.6857,5.7203,5.7588,5.7742,5.7742,5.8127,5.8313,5.8313,5.8781,5.8819,5.2056,5.3415,5.4625,5.8954,6.3014,6.6149,6.6952,6.9258,7.2109,7.5351,7.7344,7.8672,7.9258,7.9062,7.8945,7.9297,7.9062,7.875,7.8515,7.7539,7.6367,7.5117,7.4531,7.4922,7.668,7.6836,7.6953,7.7187,7.7187,7.7187,7.7187,7.7422,7.7578,7.7578,7.7148,7.7265,7.789,7.664,7.6211,7.6601,7.6601,7.6484,7.6289,7.6914,7.6875,7.625,7.625,7.6133,7.5859,7.5234,7.4687,7.4258,7.4492,7.4219,7.3672,7.3672,7.4524,7.5633,7.5388,7.5656,7.5895,7.4978,7.4114,7.3193,7.1622,7.0377,6.929,6.8563,6.8085,6.7859,6.8013,6.7744,6.7321,6.6865,6.6481,6.6013,6.5128,6.4974,6.4782,6.4122,6.3814,6.3468,6.2903,6.2403,6.1903,6.1248,6.0941,6.0787,6.0787,6.0787,6.0556,5.9935,5.9627,5.9281,5.8665,5.8429,5.8313,5.8313,5.8313,5.8313,5.8313,5.8313,5.8313,5.8313,5.8506,5.8621,5.8621,5.8858,5.8973,5.9011,5.9588,5.9858,4.832,5.261,5.7323,6.1757,6.6719,7.1172,7.3711,7.5039,7.6445,7.9023,7.8984,7.8515,7.8515,7.914,7.9414,7.8672,7.918,7.9375,7.8594,7.7031,7.5937,7.5859,7.4375,7.4023,7.5781,7.5937,7.6289,7.7148,7.7187,7.7187,7.7187,7.8008,7.8476,7.8476,7.918,7.9609,7.9609,7.957,7.918,7.8437,7.8437,7.7969,7.7148,7.7187,7.7187,7.7148,7.7148,7.668,7.5898,7.5859,7.4844,7.3437,7.4258,7.457,7.457,7.457,7.5117,7.6015,7.6836,7.7148,7.6991,7.5929,7.5396,7.5035,7.3942,7.2871,7.1905,7.1027,7.0213,6.9244,6.7558,6.7744,6.793,6.632,6.6519,6.6827,6.6019,6.5865,6.5865,6.582,6.5128,6.4551,6.4551,6.3172,6.2095,6.2062,6.1325,6.0787,6.0787,6.0787,6.0787,6.0748,6.0012,5.9473,5.9473,5.8742,5.8313,5.8313,5.8313,5.8313,5.8313,5.8313,5.8313,5.8313,5.9088,5.9473,5.9473,6.0319,6.0704,6.0704,6.0748,6.0748,5.4258,5.9452,6.4411,6.875,7.1992,7.4531,7.5976,7.6992,7.7539,7.7226,7.5586,7.3672,7.1992,7.2344,7.3008,7.3281,7.6445,7.8828,7.8555,7.8437,7.7344,7.4492,7.4687,7.4805,7.4219,7.4687,7.5625,7.7109,7.664,7.707,7.8789,7.914,7.9844,8.0976,8.0156,7.9961,8.0547,7.8906,7.8203,7.8476,7.789,7.7461,7.7187,7.7187,7.7187,7.7187,7.7187,7.7031,7.6719,7.6133,7.5547,7.5,7.4726,7.4609,7.4609,7.4609,7.4805,7.5078,7.5351,7.5469,7.539,7.4919,7.4231,7.344,7.2362,7.1332,7.0475,7.0206,6.9898,6.9706,6.9629,6.9436,6.8975,6.7814,6.7776,6.7744,6.6865,6.6712,6.6712,6.6712,6.6019,6.5282,6.4705,6.4128,6.3358,6.2249,6.1364,6.0787,6.0787,6.0787,6.0787,6.0787,6.055,6.0358,6.0358,6.0127,5.9973,5.9973,5.9973,5.9973,5.9973,5.9973,5.9973,5.9973,6.0204,6.0358,6.0358,6.0666,6.0787,6.0787,6.0787,6.0787,6.0702,6.5702,6.9685,7.4062,7.6445,7.7773,7.8047,7.8047,7.7539,7.5781,7.2617,6.9492,6.7226,6.6484,6.6718,6.812,7.121,7.4257,7.6675,7.6718,7.6055,7.4844,7.4844,7.4765,7.4297,7.4453,7.5312,7.707,7.6953,7.7656,7.9609,8.0,8.0976,8.2695,8.1679,8.1367,8.1914,8.0,7.8867,7.8476,7.7617,7.7187,7.7187,7.7187,7.7187,7.7187,7.7187,7.7187,7.7148,7.6601,7.6172,7.5898,7.5625,7.5351,7.5078,7.5078,7.5078,7.5039,7.4726,7.4569,7.4478,7.4248,7.372,7.3014,7.2253,7.1582,7.0968,7.0667,7.0591,7.0552,7.0475,7.0283,6.986,6.866,6.8622,6.8629,6.7744,6.7552,6.7475,6.7173,6.6673,6.6051,6.5205,6.482,6.4012,6.2364,6.1633,6.1133,6.0825,6.0787,6.0787,6.0787,6.0787,6.0787,6.0787,6.0787,6.0787,6.0787,6.0787,6.0787,6.0787,6.0787,6.0787,6.0787,6.0787,6.0787,6.0787,6.0787,6.0787,6.0787,6.0787,6.0787,6.7145,7.097,7.3342,7.7616,7.9844,8.0742,7.9726,7.8203,7.6445,7.4414,6.9883,6.5742,6.3867,6.1758,6.113,6.3597,6.4601,6.7341,7.3836,7.2845,7.289,7.6914,7.5234,7.4375,7.5937,7.5351,7.5586,7.7265,7.8047,7.8828,7.9765,8.0703,8.1992,8.3672,8.3672,8.3672,8.3672,8.2695,8.0976,7.8476,7.7656,7.7226,7.7187,7.7187,7.7187,7.7187,7.7187,7.7187,7.7187,7.7187,7.6719,7.6055,7.6875,7.668,7.5976,7.5937,7.5898,7.5781,7.4883,7.444,7.4176,7.3957,7.3803,7.364,7.3439,7.3367,7.3227,7.2367,7.2136,7.179,7.0167,7.0321,7.0475,6.8853,6.9122,6.9513,6.866,6.8468,6.8199,6.7404,6.7173,6.6827,6.6058,6.5205,6.4089,6.2403,6.2172,6.1826,6.0941,6.0787,6.0787,6.0787,6.0787,6.0787,6.0787,6.0787,6.0787,6.0787,6.0787,6.0787,6.0787,6.0787,6.0787,6.0787,6.0787,6.0787,6.0787,6.0787,6.0787,6.0787,6.0864,6.0825,7.207,7.6367,7.9881,8.1054,8.1172,8.0273,7.75,7.5547,7.2695,6.7109,6.1836,5.7148,5.3516,5.6484,6.0117,6.2028,6.9882,7.6601,7.8982,8.0468,8.0976,8.0117,8.0039,7.9687,7.8828,7.8515,7.8867,7.9961,7.8476,7.8711,8.1484,8.3086,8.4414,8.5508,8.4922,8.457,8.457,8.2422,8.039,7.8515,7.8281,7.7812,7.7187,7.7187,7.7187,7.7187,7.7187,7.7187,7.7187,7.7187,7.707,7.6875,7.7109,7.707,7.6797,7.6133,7.5898,7.5781,7.4883,7.405,7.3199,7.2396,7.2111,7.2034,7.1659,7.1653,7.1715,7.1357,7.1245,7.1129,7.0706,7.0744,7.0629,6.9629,7.0014,7.036,6.9552,6.936,6.9283,6.909,6.7975,6.6827,6.6058,6.5705,6.4974,6.3243,6.2974,6.2474,6.0973,6.0787,6.0787,6.0787,6.0787,6.0787,6.0787,6.0787,6.0787,6.0787,6.0787,6.0787,6.0787,6.0787,6.0787,6.0787,6.0787,6.0787,6.0787,6.0787,6.0787,6.0825,6.1479,6.1402,7.7422,8.0937,8.3359,8.2969,8.2226,8.0156,7.4844,7.1719,6.7851,6.0547,5.4922,5.0625,4.8203,5.1562,5.5585,5.8351,6.6756,7.4296,7.8119,8.0311,8.1679,8.2109,8.2226,8.1914,8.0937,8.0859,8.1211,8.207,8.0117,8.0039,8.2734,8.3789,8.4726,8.5586,8.5156,8.4531,8.3789,8.1914,8.0351,7.9023,7.8672,7.8242,7.7773,7.7383,7.7187,7.7187,7.7187,7.7187,7.7187,7.7187,7.7187,7.7187,7.7187,7.7187,7.7148,7.664,7.6484,7.6367,7.5469,7.4714,7.3988,7.3025,7.2566,7.2272,7.1775,7.1623,7.1528,7.1029,7.0898,7.0898,7.0898,7.0898,7.0783,7.0321,7.0552,7.0783,7.0321,7.0244,7.0014,6.9276,6.8013,6.6827,6.6058,6.5904,6.5436,6.4083,6.3852,6.3391,6.2089,6.1243,6.0787,6.0787,6.0787,6.0941,6.1325,6.1018,6.0979,6.1364,6.1018,6.0787,6.0787,6.0787,6.0787,6.0787,6.0787,6.0787,6.0787,6.0787,6.1018,6.1364,6.1864,6.2018,8.2695,8.4687,8.4883,8.414,8.2851,7.9687,7.1836,6.7265,6.2499,5.4609,4.9141,4.5742,4.5625,4.75,5.0584,5.5201,6.1243,6.8084,7.599,7.7846,7.9922,8.414,8.3672,8.3047,8.3125,8.2851,8.3008,8.3867,8.2422,8.2187,8.3672,8.3984,8.4414,8.5039,8.4844,8.3945,8.2304,8.1562,8.0742,7.9844,7.918,7.8789,7.8633,7.7773,7.7383,7.7383,7.7265,7.7187,7.7187,7.7187,7.7187,7.7187,7.7187,7.7187,7.7187,7.7187,7.7187,7.7109,7.6328,7.5925,7.5597,7.4607,7.3962,7.3466,7.2822,7.253,7.2198,7.1335,7.1168,7.1206,7.1091,7.1168,7.1245,7.1245,7.1245,7.1206,7.1091,7.0975,7.0437,6.8891,6.7975,6.7135,6.6211,6.6051,6.575,6.4743,6.4589,6.4282,6.3429,6.205,6.1127,6.1127,6.1127,6.1441,6.2172,6.1556,6.1435,6.221,6.1556,6.1127,6.1127,6.1127,6.1127,6.1127,6.1127,6.1127,6.1127,6.1127,6.1518,6.2249,6.2364,6.2743,8.6758,8.6914,8.5937,8.5781,8.2297,7.6736,6.8397,6.3153,5.7706,4.9335,4.5195,4.2851,4.2226,4.6406,5.2304,5.9413,6.625,7.3867,8.3085,8.4531,8.5976,8.9531,8.7969,8.6875,8.7539,8.5703,8.4804,8.5664,8.4804,8.4375,8.4648,8.6054,8.6562,8.5976,8.457,8.332,8.2304,8.2148,8.164,8.0781,8.0625,8.0195,7.9453,7.8633,7.8281,7.8242,7.75,7.7187,7.7187,7.7187,7.7187,7.7187,7.7187,7.7187,7.7187,7.7187,7.7187,7.7187,7.7031,7.6823,7.6363,7.4614,7.3996,7.3842,7.3452,7.3375,7.3219,7.2256,7.2476,7.2899,7.2168,7.2514,7.3046,7.3046,7.3046,7.2853,7.2129,7.1398,7.0629,6.9667,6.936,6.8744,6.7173,6.6904,6.6365,6.482,6.4589,6.4282,6.3429,6.3045,6.2852,6.2852,6.2852,6.2929,6.3083,6.2968,6.2929,6.3083,6.2968,6.2852,6.2852,6.2852,6.2852,6.2852,6.2852,6.2852,6.2852,6.2852,6.2929,6.3121,6.382,6.3858,8.8437,8.8789,8.7969,8.7109,8.2489,7.5514,6.5233,5.8733,5.2377,4.3436,4.0273,3.9219,3.9766,4.4414,4.9961,5.5469,6.289,7.0859,7.9023,8.2109,8.4922,8.8867,8.8594,8.8125,8.8086,8.6953,8.6445,8.6836,8.6875,8.6484,8.5625,8.5508,8.5508,8.5508,8.3828,8.2734,8.2304,8.2304,8.2109,8.1679,8.1211,8.0547,7.9687,7.8867,7.8242,7.7812,7.7383,7.7187,7.7187,7.7187,7.7187,7.7187,7.7187,7.7187,7.7187,7.7187,7.7187,7.7187,7.7098,7.6994,7.67,7.5553,7.5201,7.5076,7.4467,7.4243,7.4031,7.314,7.3161,7.3392,7.2976,7.3199,7.3507,7.3507,7.3507,7.3392,7.2976,7.2206,7.1321,7.0475,6.9975,6.9283,6.8013,6.7782,6.7359,6.609,6.6282,6.6122,6.482,6.5391,6.5276,6.3506,6.3314,6.3468,6.3929,6.3545,6.3506,6.3929,6.3545,6.3314,6.3314,6.3314,6.3314,6.3314,6.3314,6.3314,6.3314,6.3314,6.3545,6.4006,6.4397,6.4628,8.8633,8.9726,8.9336,8.7656,8.2366,7.4481,6.2576,5.5051,4.8052,3.9138,3.6601,3.6523,3.8281,4.207,4.6367,5.0703,5.7265,6.4805,7.3398,7.7812,8.2148,8.7422,8.875,8.9023,8.8398,8.7969,8.7773,8.7773,8.8359,8.8125,8.6797,8.4922,8.4179,8.4883,8.3203,8.2304,8.2304,8.2304,8.2304,8.2304,8.1601,8.0937,8.0234,7.9414,7.8672,7.8008,7.7617,7.7461,7.7461,7.7265,7.7305,7.7461,7.7265,7.7305,7.7461,7.7224,7.7145,7.7102,7.6922,7.6847,7.677,7.6419,7.6295,7.6162,7.5448,7.5092,7.4822,7.4007,7.3892,7.4007,7.3815,7.3892,7.4046,7.4046,7.3892,7.3776,7.3776,7.3091,7.2206,7.136,7.0667,6.9898,6.8853,6.866,6.8391,6.7513,6.7975,6.793,6.659,6.7583,6.7353,6.4699,6.4391,6.466,6.5359,6.4775,6.4699,6.5359,6.4775,6.4391,6.4391,6.4391,6.4391,6.4391,6.4199,6.4122,6.4122,6.3929,6.4205,6.4897,6.4897,6.5243,8.7265,8.8828,8.8437,8.6758,8.0934,7.2571,6.0815,5.3214,4.6493,3.886,3.6601,3.6523,3.8281,3.9648,4.2891,5.0195,5.2734,5.8633,7.2656,7.6289,8.0586,8.8789,9.0547,9.1015,9.0976,8.9531,8.8594,8.8594,8.8672,8.8633,8.8476,8.6133,8.4804,8.4883,8.3203,8.2304,8.2304,8.2304,8.2304,8.2304,8.2226,8.2148,8.2031,8.1172,8.0742,8.0586,7.9023,7.8398,7.832,7.7539,7.7656,7.8281,7.75,7.7695,7.8242,7.7309,7.6929,7.6917,7.6709,7.665,7.6575,7.6351,7.6289,7.6239,7.5977,7.589,7.5707,7.4815,7.5168,7.5592,7.4822,7.5168,7.5784,7.5784,7.5168,7.4584,7.4584,7.393,7.3129,7.2245,7.2021,7.1482,6.986,6.959,6.9283,6.8391,6.8353,6.8353,6.8199,6.8314,6.8276,6.7968,6.793,6.7968,6.8045,6.7968,6.7968,6.8045,6.7968,6.793,6.793,6.793,6.793,6.793,6.7167,6.675,6.675,6.6019,6.5705,6.5788,6.5788,6.582,8.5898,8.832,8.8437,8.7265,7.9274,6.9384,6.0661,5.1838,4.376,3.7731,3.625,3.6367,3.7578,3.8516,4.0469,4.4609,4.7266,5.1953,6.0937,6.5469,7.1445,8.1133,8.3945,8.6523,9.0156,8.9883,8.9492,8.9492,8.8984,8.8711,8.8711,8.6289,8.4883,8.4883,8.3203,8.2304,8.2304,8.2304,8.2304,8.2304,8.2304,8.2031,8.1523,8.1172,8.0703,8.0156,7.8984,7.8789,7.914,7.832,7.8121,7.8293,7.7942,7.7603,7.7311,7.6866,7.6376,7.5926,7.5694,7.5303,7.4873,7.4684,7.4957,7.5433,7.5866,7.563,7.5238,7.5438,7.5361,7.5245,7.5438,7.5745,7.6015,7.6015,7.5745,7.5476,7.5476,7.4815,7.4123,7.3783,7.3322,7.2591,7.1398,7.1206,7.0744,6.9398,6.959,6.9552,6.8545,6.9276,6.9706,6.9237,6.8699,6.8391,6.8391,6.8391,6.8391,6.8391,6.8391,6.8391,6.8391,6.8391,6.8391,6.8391,6.8045,6.7898,6.7898,6.7552,6.7398,6.7398,6.7398,6.7398,8.0859,8.4804,8.6601,8.5699,7.6892,6.6712,6.0173,5.0572,4.1709,3.6894,3.5931,3.6169,3.6755,3.7812,3.9101,4.0586,4.3476,4.75,5.3203,5.8008,6.4336,7.3476,7.6992,8.1094,8.7148,8.957,9.0664,9.039,8.957,8.9062,8.9062,8.6679,8.5156,8.4922,8.3203,8.2304,8.2304,8.2304,8.2304,8.2304,8.2304,8.1992,8.1367,8.1367,8.1054,8.0429,7.9609,7.953,7.9915,7.9094,7.8791,7.8818,7.8582,7.8015,7.7275,7.6707,7.6294,7.5836,7.4879,7.4506,7.4349,7.3713,7.3699,7.413,7.5014,7.5014,7.4776,7.5168,7.4822,7.4469,7.5091,7.5438,7.563,7.563,7.5822,7.6015,7.6015,7.5515,7.5007,7.4738,7.4238,7.3584,7.2745,7.2591,7.2168,7.1007,7.1321,7.1245,7.0045,7.093,7.1437,7.0891,7.0276,6.9699,6.9161,6.9122,6.9122,6.9122,6.9122,6.9276,6.9507,6.9276,6.9276,6.9507,6.9045,6.8776,6.8776,6.8545,6.8391,6.8391,6.8391,6.8391,7.0742,7.7148,8.2107,8.1046,7.3649,6.5005,5.881,4.9484,4.09,3.6577,3.5827,3.5902,3.5902,3.7376,3.8906,3.9766,4.207,4.6133,5.3047,5.7031,6.1484,6.7578,7.1289,7.5742,8.1797,8.8554,9.2226,9.1367,9.0469,9.0,9.0,8.7578,8.5781,8.4922,8.3203,8.2304,8.2304,8.2304,8.2304,8.2304,8.2304,8.2304,8.2304,8.2304,8.2265,8.2226,8.1367,8.0887,8.0624,7.9764,7.977,8.0275,7.9412,7.9065,7.8855,7.6981,7.6831,7.7179,7.4454,7.4591,7.5714,7.4046,7.2937,7.2406,7.3238,7.4084,7.4546,7.3738,7.3507,7.3507,7.3507,7.4123,7.47,7.47,7.5361,7.6015,7.6015,7.5976,7.5745,7.4853,7.47,7.443,7.3623,7.3507,7.3469,7.3469,7.3469,7.3469,7.343,7.3469,7.3469,7.3469,7.343,7.2738,7.1014,7.086,7.086,7.086,7.086,7.1245,7.2136,7.1321,7.1283,7.2136,7.0514,6.9706,6.9667,6.8814,6.8391,6.8391,6.8391,6.8391,6.168,6.5234,6.7265,6.6908,6.0617,5.3815,5.1156,4.446,3.8157,3.6125,3.5746,3.5777,3.5896,3.7281,3.8975,4.0547,4.3437,4.625,4.8437,5.4765,6.164,6.8281,7.9922,8.789,8.9219,9.1875,9.289,9.1406,9.1054,9.0625,9.0039,8.8164,8.6406,8.4961,8.3789,8.289,8.2304,8.2304,8.2304,8.2304,8.2304,8.2304,8.2304,8.2304,8.2304,8.2265,8.1367,8.1238,8.1522,8.0661,8.0251,8.0115,7.9256,7.848,7.7743,7.6546,7.5882,7.5399,7.3973,7.3476,7.3213,7.2091,7.1937,7.2136,7.1822,7.2738,7.3815,7.3584,7.3892,7.4046,7.2899,7.3668,7.4546,7.4007,7.4084,7.443,7.4976,7.513,7.5207,7.5515,7.5592,7.5322,7.4469,7.4315,7.4123,7.3584,7.3507,7.3507,7.3507,7.3507,7.3507,7.3507,7.3507,7.3276,7.2699,7.2661,7.2661,7.2661,7.2661,7.2815,7.3091,7.2822,7.2815,7.3091,7.1975,7.1405,7.1405,7.0514,7.0129,7.0129,7.0129,7.0129,5.2457,5.6327,5.8554,5.878,5.3312,4.7683,4.6934,4.1485,3.6395,3.5743,3.5671,3.5741,3.5825,3.7273,3.8859,4.0039,4.3086,4.6016,4.7969,5.4297,6.164,6.9492,8.2031,8.9804,8.9258,9.2031,9.332,9.1914,9.1484,9.0937,9.0039,8.8711,8.7187,8.5429,8.4531,8.3672,8.2812,8.2773,8.2617,8.2304,8.2304,8.2304,8.2304,8.2304,8.2304,8.2265,8.1635,8.1556,0.0,8.1231,8.0572,7.9945,7.9404,7.8423,7.7176,7.6322,7.5861,7.5476,7.4007,7.336,7.2937,7.1783,7.1752,7.2213,7.2322,7.2668,7.3091,7.3392,7.3853,7.4007,7.2976,7.3476,7.4123,7.3623,7.3507,7.3623,7.4123,7.4469,7.4861,7.5399,7.5784,7.5822,7.5284,7.52,7.5007,7.4514,7.443,7.443,7.443,7.443,7.443,7.443,7.443,7.443,7.443,7.3853,7.3507,7.3507,7.3507,7.3623,7.393,7.3661,7.3623,7.393,7.3129,7.2706,7.2706,7.2168,7.1898,7.186,7.1552,7.1398,0.0,4.9406,5.398,5.4656,5.0055,4.5281,4.5037,4.0132,0.0,3.5499,3.5589,3.5707,3.5868,3.7349,3.8671,3.8984,4.1836,4.5781,5.0937,5.6055,6.2695,7.1914,7.9726,8.4258,8.4062,9.0039,9.3554,9.2656,9.1797,9.0937,9.0156,8.9219,8.8008,8.6445,8.5547,8.4609,8.3594,8.3554,8.3086,8.2304,8.2304,8.2304,8.2304,8.2304,8.2265,8.2264,8.2061,8.1867,8.1644,8.1485,8.0789,7.9777,7.9746,7.8707,7.7176,7.6322,7.6515,7.6868,7.443,7.4084,7.443,7.2822,7.229,7.2591,7.4207,7.3553,7.2476,7.3353,7.3584,7.3584,7.3507,7.3546,7.3584,7.3507,7.3507,7.3507,7.3507,7.4123,7.47,7.4776,7.5515,7.6092,7.6092,7.6092,7.6053,7.6015,7.6015,7.6015,7.6015,7.6015,7.6015,7.6015,7.6015,7.6015,7.6015,7.4584,7.3661,7.3661,7.3661,7.4007,7.4776,7.4084,7.4046,7.4776,7.4007,7.3546,7.3507,7.3507,7.3507,7.3469,7.2668,7.229,3.4674,0.0,3.9577,4.0357,3.8879,3.7376,0.0,3.6745,3.5588,3.5499,3.5528,3.5932,3.7278,3.7974,3.947,4.2782,4.5229,4.8476,5.3672,6.4922,7.5195,8.2031,8.7969,9.0703,8.8672,9.1758,9.3554,9.2656,9.1797,9.1211,9.1015,8.9531,8.8515,8.8125,8.7304,8.582,8.3633,8.2929,8.25,8.2304,8.2304,8.2304,8.2304,8.2126,8.2062,8.2059,8.1864,8.1675,8.1469,8.1441,8.0789,7.9746,7.9054,7.8176,7.7176,7.6322,7.613,7.613,7.4861,7.4546,7.4546,7.3507,7.3199,7.3392,7.4392,7.4007,7.3353,7.4199,7.443,7.4276,7.3661,7.3969,7.4276,7.3661,7.3507,7.3507,7.3507,7.4123,7.4892,7.5553,7.6399,7.6984,7.6984,7.6984,7.6784,7.6092,7.6015,7.6015,7.6015,7.6015,7.6015,7.6015,7.6015,7.6015,7.6015,7.563,7.5399,7.5399,7.5399,7.5515,7.5707,7.5515,7.5515,7.5707,7.4853,7.4123,7.3507,7.3507,7.3507,7.3507,7.3276,7.3199,3.1759,3.3369,3.5144,3.5609,3.5653,3.5715,3.611,3.5847,3.554,3.552,3.5552,3.5984,3.7336,3.8374,4.0048,4.3188,4.6872,5.1992,5.957,6.914,7.7812,8.4258,8.8164,9.0586,9.1133,9.2461,9.3125,9.2656,9.1797,9.1133,9.0703,8.9414,8.8515,8.8164,8.6953,8.5625,8.4219,8.3711,8.3086,8.2304,8.2304,8.2304,8.2304,8.2071,8.1992,8.1982,8.1672,8.1517,8.1356,8.086,8.0099,7.9131,7.8292,7.7445,7.663,7.6169,7.6015,7.5938,7.5476,7.5014,7.4623,7.4199,7.4046,7.4199,7.5053,7.4976,7.4738,7.5168,7.5284,7.5207,7.4745,7.4661,7.4584,7.4161,7.3776,7.3507,7.3507,7.4123,7.4853,7.5322,7.6438,7.7292,7.7292,7.7599,7.7676,7.7215,7.7138,7.7015,7.663,7.6592,7.6438,7.6053,7.6361,7.6438,7.6015,7.6361,7.6438,7.6015,7.6015,7.6015,7.6015,7.6015,7.6015,7.6015,7.5553,7.5084,7.4668,7.4668,7.4668,7.463,7.4238,7.4046,3.1811,3.4092,3.6262,3.5622,3.6097,3.6714,3.6696,3.6086,3.555,3.5695,3.5931,3.6413,3.7559,3.9344,4.1288,4.3241,4.9297,5.7265,6.7265,7.2461,7.7539,8.3633,8.6015,8.8515,9.1875,9.2422,9.2539,9.2422,9.1601,9.0703,8.9844,8.8984,8.8203,8.7539,8.5937,8.5039,8.4883,8.4492,8.3554,8.2109,8.2109,8.2148,8.2263,8.2053,8.1955,8.1883,8.1382,8.1141,8.1084,8.0042,7.9092,7.8253,7.7561,7.6784,7.6015,7.6015,7.6015,7.6015,7.6015,7.5515,7.4892,7.4892,7.4892,7.5053,7.5784,7.6015,7.6015,7.6015,7.6015,7.6015,7.6015,7.5438,7.4892,7.4892,7.4392,7.3853,7.3699,7.4315,7.4892,7.4892,7.6284,7.7484,7.7484,7.8176,7.8638,7.8523,7.8484,7.8253,7.7561,7.7484,7.7215,7.6476,7.7061,7.7176,7.6438,7.7053,7.7176,7.6438,7.613,7.6015,7.6015,7.6015,7.6015,7.6015,7.6015,7.6015,7.6015,7.6015,7.6015,7.5976,7.5245,7.4892,3.2314,3.6167,3.8932,3.5398,3.5141,3.5812,3.5875,3.5732,3.5826,3.6601,3.732,3.8515,4.0892,4.2866,4.5173,4.8331,5.7651,6.7383,7.5586,8.1054,8.5156,8.7617,9.0117,9.1289,9.0469,9.1719,9.2304,9.1562,9.0703,8.9804,8.8945,8.8125,8.7617,8.75,8.6523,8.5664,8.4922,8.2695,8.1445,8.1211,8.1211,8.1516,8.2049,8.1847,8.1631,8.1447,8.0452,8.0068,7.9983,7.9084,7.8215,7.7484,7.7369,7.6784,7.6015,7.6015,7.6015,7.6015,7.6015,7.5899,7.5784,7.5784,7.5784,7.5822,7.5976,7.6015,7.6015,7.6015,7.6015,7.6015,7.6015,7.5899,7.5784,7.5784,7.5707,7.5399,7.4661,7.5207,7.5784,7.5784,7.7169,7.833,7.833,7.9015,7.9361,7.86,7.8484,7.8446,7.833,7.833,7.8253,7.8138,7.8253,7.8253,7.8138,7.8253,7.8253,7.8138,7.6784,7.6015,7.6015,7.6015,7.6015,7.6015,7.6015,7.6015,7.6015,7.6015,7.6015,7.6015,7.5861,7.5784,3.1965,3.4681,3.7174,3.724,4.018,4.2956,4.2489,4.2479,4.2383,4.1851,4.2178,4.2752,4.3478,4.6615,5.1752,5.9876,6.5936,7.1719,7.7617,8.0508,8.3203,8.6289,8.8125,8.9726,9.125,9.2148,9.2226,9.1367,9.0508,8.9609,8.875,8.7929,8.707,8.6133,8.5703,8.4648,8.2812,8.1045,8.0654,8.1719,8.1122,8.125,8.1986,8.1699,8.1501,8.135,8.0764,8.0246,7.9746,7.8869,7.8023,7.7253,7.6784,7.6361,7.6015,7.6015,7.6015,7.6015,7.6015,7.6015,7.6015,7.6015,7.6015,7.6015,7.6015,7.6015,7.6015,7.6015,7.6015,7.6015,7.6015,7.6015,7.6015,7.6015,7.6015,7.6015,7.6092,7.6399,7.6823,7.7292,7.8361,7.9208,7.9208,8.0285,8.0862,8.0015,8.0292,8.0208,7.9323,7.9208,7.9015,7.8561,7.89,7.9015,7.8523,7.8938,7.9015,7.8523,7.7792,7.7176,7.6707,7.6707,7.6476,7.6015,7.6015,7.6015,7.6015,7.6015,7.6015,7.6015,7.6015,7.6015,3.2397,3.4204,3.6583,3.9847,4.3748,4.7183,4.8576,4.8502,4.8243,4.8582,4.8779,4.857,4.7522,5.1442,5.8281,6.8984,7.2617,7.5664,8.0195,8.1211,8.2773,8.6289,8.7304,8.8906,9.1992,9.2304,9.1836,9.0781,9.0078,8.9336,8.8476,8.7656,8.6562,8.5191,8.4722,8.3547,8.1507,8.0242,8.0408,8.1909,8.0834,8.0841,8.1855,8.1534,8.1365,8.1317,8.0959,8.0439,7.97,7.8669,7.7869,7.7215,7.6322,7.6015,7.6015,7.6015,7.6015,7.6015,7.6015,7.6015,7.6015,7.6015,7.6015,7.6053,7.6245,7.6284,7.6322,7.6515,7.6592,7.6515,7.6092,7.613,7.6284,7.6284,7.6438,7.6784,7.7445,7.7753,7.8023,7.8407,7.9515,8.0323,8.0131,8.1477,8.2401,8.1785,8.2054,8.1823,8.0554,8.02,7.9862,7.9177,7.9708,7.9823,7.9177,7.9708,7.9823,7.9138,7.8715,7.8215,7.7599,7.7599,7.7292,7.6592,7.6592,7.6476,7.6284,7.6476,7.6476,7.6284,7.6284,7.6284,3.4858,3.7746,4.0715,4.2641,4.113,4.1279,4.9328,4.9241,4.9309,5.57,5.6943,5.6391,5.4843,5.8125,6.3164,6.9648,7.6133,8.2148,8.7226,8.9375,9.0781,9.1914,9.2109,9.1953,9.1445,9.1406,9.0703,8.9023,8.8828,8.8437,8.7617,8.6758,8.6165,8.5836,8.4269,8.3243,8.2865,8.1165,8.0503,8.079,7.9724,8.0003,8.1436,8.1391,8.1317,8.11,8.0254,7.9854,7.9669,7.8054,7.7369,7.7215,7.6322,7.6015,7.6015,7.6015,7.6015,7.6015,7.6015,7.6015,7.6015,7.6015,7.6015,7.613,7.6938,7.7215,7.7369,7.8099,7.833,7.7946,7.6399,7.6592,7.7215,7.7215,7.7792,7.833,7.8407,7.9054,7.94,7.8638,8.0446,8.1862,8.1131,8.2401,8.3486,8.3447,8.2793,8.2247,8.2131,8.1477,8.0977,8.0939,8.0977,8.0977,8.0939,8.0977,8.0977,8.09,7.9408,7.8484,7.8407,7.8407,7.8369,7.833,7.833,7.7946,7.7215,7.7946,7.7946,7.7215,7.7215,7.7215,3.4536,3.8117,4.1804,4.3221,4.4171,4.6724,5.4248,5.6497,5.8163,6.2436,6.3818,6.3709,6.2031,6.4765,6.8945,7.3945,8.0078,8.5469,8.9023,9.0547,9.1406,9.1758,9.1328,9.0859,9.0508,9.0508,9.0,8.8789,8.8711,8.8044,8.6574,8.6688,8.5674,8.336,8.3659,8.3081,8.1411,8.0606,8.0534,8.1126,8.0175,8.0306,8.1401,8.1271,8.089,8.0285,8.0516,7.9977,7.8977,7.89,7.8246,7.7215,7.6322,7.6015,7.6015,7.6015,7.6015,7.6015,7.6015,7.6015,7.6015,7.6015,7.6015,7.6245,7.7638,7.7715,7.7599,7.8938,7.9323,7.9169,7.8515,7.8631,7.8977,7.9515,7.9477,7.9477,8.0015,8.0362,8.0669,8.0823,8.2093,8.3024,8.2716,8.3632,8.4209,8.3678,8.3785,8.3516,8.2439,8.2016,8.1862,8.1862,8.2324,8.2639,8.2639,8.2639,8.2401,8.1862,8.0746,7.9862,7.9323,7.9323,7.9054,7.8523,7.8484,7.8369,7.8061,7.8369,7.833,7.8061,7.8061,7.8061,3.5029,3.7788,4.1079,4.3822,4.6825,5.1318,5.9755,6.2523,6.4622,6.9389,7.0072,6.9453,6.8242,7.0156,7.3086,7.664,8.25,8.7304,8.9297,9.0351,9.0898,9.0898,9.0351,8.9883,8.9609,8.9609,8.9218,8.8273,8.7961,8.7238,8.5849,8.5802,8.464,8.2094,8.2857,8.2466,8.063,8.0475,8.0712,8.1292,8.0699,8.0583,8.0899,8.1029,8.0631,7.9854,8.0708,8.04,7.9361,7.9669,7.8823,7.7253,7.663,7.6245,7.6015,7.6322,7.6399,7.6438,7.6707,7.6784,7.6823,7.7092,7.7207,7.7515,7.9177,7.9331,7.9169,8.0592,8.1016,8.1054,8.1354,8.1008,8.0746,8.1323,8.1246,8.117,8.1747,8.2093,8.2362,8.267,8.364,8.4332,8.4055,8.4709,8.5093,8.4478,8.467,8.447,8.3285,8.2862,8.2716,8.2716,8.3255,8.3601,8.3601,8.3601,8.337,8.2747,8.217,8.1362,8.0246,8.0439,8.0208,7.9331,7.9331,7.9177,7.8907,7.9177,7.9169,7.8907,7.8907,7.8907,3.6757,3.7149,3.8764,4.4843,4.8359,5.3476,6.5508,6.6211,6.707,7.6562,7.5781,7.3359,7.332,7.4023,7.5195,7.6914,8.2969,8.7734,8.8594,8.9453,8.9961,8.9961,8.9961,8.9648,8.875,8.8672,8.8236,8.7151,8.6328,8.5768,8.5471,8.3906,8.291,8.2675,8.1839,8.1285,8.1093,8.1093,8.1093,8.1093,8.1093,8.0669,7.9854,8.0708,8.0631,7.9854,8.0708,8.1093,8.1016,8.0169,7.8823,7.733,7.733,7.6784,7.613,7.7015,7.733,7.7445,7.8253,7.8523,7.8677,7.9515,7.9815,8.0131,8.1785,8.2324,8.2477,8.337,8.3601,8.3832,8.467,8.3632,8.2324,8.2324,8.2986,8.3601,8.3601,8.4286,8.4632,8.3793,8.4939,8.5863,8.5055,8.5555,8.6094,8.6094,8.5431,8.4893,8.4893,8.4132,8.3601,8.3601,8.3601,8.3601,8.3601,8.3601,8.3601,8.3601,8.3601,8.287,8.117,8.1862,8.1939,8.1131,8.1093,8.0669,7.9815,8.0669,8.0669,7.9815,7.9815,7.9815,3.709,4.1344,4.6375,4.8507,5.5355,6.3042,6.8669,6.9375,7.0976,7.8672,7.9453,7.7969,7.5586,7.6328,7.75,7.8047,8.1836,8.5664,8.832,8.8906,8.8867,8.832,8.8242,8.7656,8.6172,8.6431,8.636,8.5393,8.5,8.4424,8.3594,8.3074,8.2425,8.1603,8.1311,8.1176,8.1093,8.1093,8.1093,8.1093,8.1093,8.0977,8.0708,8.0977,8.0631,7.9854,8.0708,8.0746,8.0162,7.9892,7.9862,7.9862,7.8638,7.8361,7.87,7.8977,7.8669,7.8369,7.9823,7.9939,7.9554,8.0439,8.0708,8.1016,8.2716,8.2793,8.2593,8.4093,8.4516,8.4555,8.4824,8.4939,8.4978,8.4978,8.4747,8.4516,8.4516,8.4709,8.4816,8.4555,8.5363,8.6017,8.5786,8.594,8.6094,8.6094,8.5901,8.5547,8.497,8.467,8.4516,8.4516,8.5016,8.5363,8.5363,8.5363,8.5132,8.4555,8.5055,8.4324,8.2054,8.2747,8.2562,8.1131,8.167,8.1554,8.0708,8.0977,8.0977,8.0708,8.0708,8.0708,3.9542,4.3994,4.916,5.3475,6.0837,6.837,7.359,7.5312,7.7305,8.25,8.2773,8.1406,7.9336,7.9531,8.0117,8.0469,8.2851,8.5351,8.7422,8.7695,8.7383,8.6562,8.6402,8.5925,8.487,8.5081,8.4983,8.4366,8.39,8.3201,8.2136,8.1729,8.1088,8.01,8.0054,8.0054,8.0054,8.0054,8.0054,8.0054,8.0439,8.0592,8.0592,8.0939,8.0439,7.9361,8.0554,8.0977,8.0785,8.0785,8.1093,8.1477,8.04,8.0131,8.0362,8.0669,8.0246,7.9708,8.1093,8.1246,8.0939,8.1823,8.2324,8.2862,8.417,8.4209,8.4016,8.5093,8.5393,8.5393,8.5393,8.5747,8.6094,8.6094,8.5747,8.5393,8.5393,8.5393,8.5393,8.5393,8.5786,8.6094,8.6094,8.6094,8.6094,8.6094,8.6094,8.594,8.5431,8.5393,8.5393,8.5393,8.5824,8.6094,8.6094,8.6094,8.5893,8.5401,8.5816,8.5286,8.3401,8.3824,8.3478,8.2131,8.2554,8.2593,8.2093,8.2093,8.2093,8.2093,8.1747,8.1593,4.3383,4.5955,4.9448,5.9335,6.5604,7.1446,7.9608,8.2773,8.457,8.6797,8.5429,8.3828,8.3711,8.2929,8.2578,8.3476,8.4844,8.5898,8.6054,8.6094,8.5742,8.4843,8.4657,8.4529,8.4362,8.416,8.3921,8.3578,8.2795,8.191,8.0923,8.0054,7.9246,7.8523,7.8446,7.8446,7.8484,7.8484,7.8484,7.8523,7.9285,7.9623,7.9623,8.0631,8.0246,7.883,8.0477,8.1631,8.2324,8.2401,8.2477,8.2516,8.2362,8.1939,8.1516,8.217,8.1939,8.1439,8.2324,8.2593,8.267,8.3563,8.4362,8.5162,8.5901,8.6094,8.6094,8.6094,8.6094,8.6094,8.6094,8.6094,8.6094,8.6094,8.6094,8.6094,8.6094,8.6094,8.6094,8.6094,8.6094,8.6094,8.6094,8.6094,8.6094,8.6094,8.6094,8.6094,8.6094,8.6094,8.6094,8.6094,8.6094,8.6094,8.6094,8.6094,8.6094,8.6094,8.6094,8.5778,8.5047,8.5008,8.4555,8.3601,8.3678,8.3678,8.3601,8.3601,8.3601,8.3563,8.2793,8.2401,4.5989,5.0803,5.6916,6.455,7.3404,8.1092,8.4336,8.5898,8.6445,8.5625,8.5547,8.5429,8.4765,8.3359,8.2578,8.3476,8.3359,8.3633,8.5,8.5195,8.4802,8.3787,8.4194,8.3991,8.2464,8.2149,8.1735,8.0959,7.9977,7.9312,7.9061,7.8292,7.8054,7.8484,7.7907,7.7869,7.8484,7.8484,7.8484,7.8484,7.8677,7.8446,7.79,8.0092,8.09,8.0592,8.1593,8.2131,8.2362,8.3024,8.3708,8.4209,8.2824,8.3016,8.4016,8.3524,8.3216,8.3293,8.4786,8.4863,8.4478,8.5286,8.5709,8.5863,8.6055,8.6094,8.6094,8.6094,8.6094,8.6094,8.6094,8.6094,8.6094,8.6094,8.6094,8.6094,8.6094,8.6094,8.6094,8.6094,8.6094,8.6094,8.6094,8.6094,8.6094,8.6094,8.6094,8.6094,8.6094,8.6094,8.6094,8.6094,8.6094,8.6094,8.6094,8.6094,8.6094,8.6094,8.6094,8.6017,8.5863,8.5863,8.5132,8.364,8.4286,8.4286,8.3601,8.3601,8.3601,8.3601,8.3409,8.3332,4.7832,5.3231,6.0046,7.0284,7.8518,8.4324,8.5351,8.625,8.6601,8.5703,8.5898,8.582,8.4531,8.3203,8.2578,8.3476,8.2539,8.2148,8.3476,8.3672,8.3276,8.2198,8.2723,8.262,8.1077,8.0758,8.0254,7.9397,7.8833,7.833,7.7946,7.7522,7.7292,7.7284,7.6899,7.6861,7.7284,7.7284,7.7284,7.733,7.8138,7.8715,7.9131,7.9631,8.0323,8.1131,8.1554,8.1939,8.2362,8.3255,8.387,8.4247,8.3747,8.4093,8.4777,8.3909,8.3601,8.3678,8.4132,8.4016,8.3785,8.4632,8.5209,8.5585,8.5978,8.6094,8.6094,8.6094,8.6094,8.6094,8.6094,8.6094,8.6094,8.6094,8.6094,8.6094,8.6094,8.6094,8.6094,8.6094,8.6094,8.6094,8.6094,8.6094,8.6094,8.6094,8.6478,8.6709,8.6709,8.7094,8.7171,8.6786,8.6709,8.6555,8.6132,8.6478,8.6555,8.6132,8.6478,8.6555,8.6132,8.6094,8.5709,8.4824,8.5247,8.5247,8.4786,8.4786,8.4786,8.4786,8.4401,8.4209,4.8965,5.5147,6.2501,7.4547,8.0882,8.4261,8.4413,8.5234,8.5937,8.5781,8.5742,8.5273,8.3672,8.2656,8.2265,8.2812,8.1719,8.1094,8.1953,8.207,8.1712,8.0768,8.1153,8.104,7.9939,7.9552,7.9054,7.8369,7.8138,7.7792,7.7099,7.7092,7.6753,7.6015,7.6015,7.6015,7.6015,7.6015,7.6015,7.6015,7.7561,7.9138,8.0592,7.9331,7.9592,8.1093,8.1246,8.1785,8.2593,8.3447,8.3832,8.387,8.4439,8.467,8.4593,8.387,8.3601,8.3524,8.2939,8.2631,8.2631,8.337,8.417,8.5008,8.5709,8.5978,8.6094,8.6094,8.6094,8.6094,8.6094,8.6094,8.6094,8.6094,8.6094,8.6094,8.6094,8.6094,8.6094,8.6094,8.6094,8.6094,8.6094,8.6209,8.6324,8.6324,8.694,8.7401,8.7401,8.7902,8.7979,8.7248,8.7325,8.7094,8.6401,8.7132,8.7325,8.6594,8.7209,8.7286,8.6594,8.6401,8.6324,8.6324,8.617,8.6094,8.6094,8.6094,8.6094,8.6094,8.5431,8.5132,4.881,5.8577,6.8839,7.3696,7.8773,8.2616,8.2656,8.3906,8.4844,8.4101,8.3945,8.3633,8.2656,8.1758,8.0976,8.0312,8.0039,8.0195,8.1054,8.1172,8.1,8.0484,8.0539,8.0082,7.883,7.8052,7.7592,7.7484,7.6746,7.6284,7.6169,7.6169,7.613,7.6015,7.6015,7.6015,7.6015,7.6015,7.6015,7.6015,7.6984,7.7946,7.8869,7.94,8.0169,8.1131,8.1823,8.2631,8.3486,8.4362,8.4747,8.467,8.4016,8.3755,8.3755,8.364,8.3601,8.3678,8.4324,8.4055,8.3447,8.3563,8.417,8.4931,8.5008,8.5547,8.6094,8.6094,8.6094,8.6094,8.6094,8.6094,8.6094,8.6094,8.6094,8.6094,8.6094,8.6094,8.6094,8.6094,8.6094,8.6094,8.6094,8.6748,8.7209,8.7209,8.7325,8.7401,8.7401,8.6824,8.6401,8.6286,8.694,8.7363,8.7248,8.8017,8.8487,8.8372,8.8449,8.8487,8.8372,8.7632,8.7209,8.7209,8.6478,8.6094,8.6094,8.6094,8.6094,8.6094,8.5978,8.594,5.2088,6.003,6.766,7.3571,7.7547,8.0262,8.1328,8.2148,8.2617,8.2226,8.1758,8.1445,8.1562,8.0508,7.9609,7.9687,7.8906,7.8594,7.9492,7.9609,7.9434,7.9003,7.9388,7.9175,7.7942,7.7522,7.7099,7.6592,7.6207,7.6015,7.6015,7.6015,7.6015,7.6015,7.6015,7.6015,7.6015,7.6015,7.6245,7.6746,7.7561,7.8407,7.9246,8.0131,8.0746,8.1131,8.1477,8.1862,8.2247,8.3093,8.317,8.2785,8.2862,8.2862,8.2832,8.237,8.2485,8.2862,8.2785,8.2516,8.2285,8.2716,8.3439,8.4247,8.4739,8.5478,8.6094,8.6094,8.6094,8.6094,8.6094,8.6094,8.6094,8.6094,8.6094,8.6094,8.6094,8.6094,8.6094,8.6094,8.6094,8.6247,8.6748,8.7132,8.7555,8.8064,8.8517,8.8632,8.8171,8.8594,8.8594,8.7671,8.8286,8.8632,8.8179,8.8902,8.9171,8.8718,8.9133,8.894,8.8017,8.7594,8.7171,8.6671,8.6786,8.6594,8.6094,8.6594,8.6594,8.6094,8.6094,8.6094,5.2555,5.8016,6.3107,7.0427,7.4309,7.6886,7.9044,8.0108,8.0579,8.0531,7.9865,7.9435,8.0099,7.9254,7.8633,7.8984,7.8008,7.75,7.8316,7.8433,7.8278,7.7797,7.8332,7.8248,7.7088,7.6984,7.6707,7.6053,7.6015,7.6015,7.6015,7.6015,7.6015,7.6015,7.6015,7.6015,7.6015,7.6015,7.6438,7.733,7.7907,7.8746,7.9815,8.0477,8.09,8.1093,8.1093,8.1208,8.1439,8.2054,8.1939,8.1477,8.2054,8.217,8.1939,8.1554,8.167,8.1939,8.1554,8.1285,8.1208,8.1785,8.2554,8.3447,8.4324,8.5132,8.5863,8.6055,8.6094,8.6094,8.6094,8.6094,8.617,8.6363,8.6247,8.617,8.6363,8.6247,8.617,8.6401,8.6247,8.6324,8.6978,8.7248,8.7632,8.8256,8.9056,8.9363,8.8795,8.9787,9.0094,8.8833,8.944,8.9663,8.9056,8.9556,8.9739,8.9372,8.9701,8.9432,8.8402,8.794,8.7401,8.6786,8.7401,8.7171,8.6094,8.6748,8.6748,8.6094,8.6094,8.6094,4.6731,5.087,5.574,6.1614,6.7122,7.1865,7.4906,7.7602,7.9439,7.9309,7.861,7.8023,7.8062,7.8307,7.8242,7.7461,7.7265,7.7457,7.8113,7.8219,7.8054,7.7674,7.7655,7.726,7.6174,7.6053,7.6053,7.6015,7.6015,7.6015,7.6015,7.6015,7.6015,7.6015,7.6015,7.6015,7.6015,7.6015,7.6438,7.7292,7.733,7.8207,7.9815,7.9854,8.0323,8.1093,8.1093,8.1516,8.2247,8.2285,8.2285,8.2247,8.2285,8.1823,8.1246,8.1977,8.1785,8.1285,8.1977,8.1747,8.1093,8.1131,8.1708,8.2516,8.3409,8.4286,8.5124,8.5901,8.6094,8.6094,8.6094,8.6094,8.6324,8.7132,8.6709,8.6324,8.7132,8.6671,8.6324,8.7171,8.6671,8.6094,8.617,8.6863,8.7401,8.744,8.8209,8.8756,8.8718,8.8795,8.8795,8.8718,8.944,8.9893,8.9855,8.9893,9.0239,9.1018,9.0316,9.0239,9.0979,8.9479,8.8603,8.8564,8.8603,8.7786,8.6094,8.617,8.6132,8.6094,8.6094,8.6094,4.7542,5.0151,5.3138,5.8642,6.3513,6.7655,7.0183,7.3456,7.6117,7.6775,7.6553,7.6395,7.6975,7.7194,7.7185,7.6873,7.6793,7.6895,7.7158,7.7188,7.706,7.6813,7.6765,7.6567,7.6051,7.6015,7.6015,7.6015,7.6015,7.6015,7.6015,7.6015,7.6015,7.6015,7.6015,7.6015,7.6015,7.6015,7.6169,7.6476,7.7022,7.7869,7.8977,7.9554,8.0285,8.1093,8.1093,8.1246,8.1516,8.1516,8.1516,8.1516,8.1516,8.1362,8.1131,8.14,8.1362,8.1131,8.1439,8.167,8.1862,8.1862,8.2824,8.4016,8.4324,8.5016,8.5747,8.6017,8.6094,8.6094,8.6094,8.6094,8.6324,8.7171,8.7171,8.7171,8.8064,8.7555,8.6863,8.6594,8.6324,8.6478,8.7594,8.8017,8.8594,8.9671,9.0094,9.0094,8.9556,8.9979,9.0094,8.9517,9.0248,9.074,9.074,9.074,9.0855,9.1171,9.0393,9.0047,9.0355,8.9286,8.8718,8.8718,8.8132,8.7555,8.694,8.8017,8.8286,8.7748,8.7171,8.694,4.6932,4.8376,5.0314,5.5539,5.9015,6.2234,6.6461,6.9703,7.2364,7.447,7.4994,7.5348,7.6235,7.6158,7.6098,7.6521,7.6582,7.6599,7.6523,7.6514,7.6429,7.6219,7.6216,7.616,7.5998,7.6015,7.6015,7.6015,7.6015,7.6015,7.6015,7.6015,7.6015,7.6015,7.6015,7.6015,7.6015,7.6015,7.613,7.6438,7.6746,7.7592,7.8938,7.9246,8.0015,8.1093,8.1093,8.1093,8.1093,8.1093,8.1093,8.1093,8.1093,8.1093,8.1093,8.1093,8.1093,8.1131,8.14,8.167,8.1977,8.2554,8.3324,8.4132,8.47,8.5277,8.5747,8.6017,8.6094,8.617,8.6478,8.694,8.744,8.7748,8.8055,8.8325,8.8641,8.8025,8.7325,8.7017,8.6978,8.7325,8.8487,8.8718,8.9103,9.0171,9.0594,9.0547,8.997,9.0663,9.097,9.0393,9.0855,9.121,9.121,9.0932,9.0902,9.1171,9.0133,8.9748,9.0316,8.9286,8.8833,8.9094,8.8517,8.8248,8.8248,8.8786,8.894,8.8679,8.8102,8.7671,0.0,0.0,0.0,5.1766,5.3331,5.5713,6.3709,6.6333,6.8305,7.2442,7.3899,7.4776,7.5784,7.5284,7.5092,7.6345,7.6525,7.6453,7.6239,7.6245,7.6175,7.5981,7.5976,7.6015,7.6015,7.6015,7.6015,7.6015,7.6015,7.6015,7.6015,7.6015,7.6015,7.6015,7.6015,7.6015,7.6015,7.6015,7.6438,7.7253,7.6399,7.7323,7.9746,7.89,7.9446,8.1093,8.1093,8.1093,8.1093,8.1093,8.1093,8.1093,8.1093,8.1093,8.1093,8.1093,8.1093,8.1208,8.2016,8.1823,8.1439,8.3101,8.3101,8.2747,8.4431,8.4931,8.5085,8.5901,8.6094,8.6286,8.7171,8.8632,8.9701,8.8902,8.9325,8.9701,8.891,8.8055,8.7709,8.8526,8.8718,8.8718,8.8718,8.8756,8.8756,8.8756,8.944,8.9932,8.9932,9.0663,9.121,9.121,9.121,9.121,9.121,9.0432,9.0316,9.1171,8.9633,8.9479,9.1133,8.9594,8.9094,8.9932,8.9893,8.9893,8.9932,8.8325,8.794,8.8756,8.8718,8.8218,4.5051,0.0,0.0,0.0,0.0,0.0,5.5574,5.8553,6.2204,6.7144,6.8728,7.0398,7.4361,7.4853,7.4809,7.5163,7.4731,7.4352,7.4294,7.4782,7.5127,7.506,7.563,7.6015,7.6015,7.6015,7.6015,7.6015,7.6015,7.6015,7.6015,7.6015,7.6015,7.6015,7.6015,7.6015,7.6015,7.6015,7.613,7.6361,7.613,7.7015,7.8869,7.86,7.9446,8.1093,8.1093,8.1093,8.1093,8.1093,8.1093,8.1093,8.1093,8.1093,8.1093,8.1093,8.1093,8.1208,8.2016,8.2554,8.3093,8.417,8.4786,8.5132,8.5632,8.5786,8.5824,8.6055,8.6094,8.6286,8.7171,8.8632,8.9855,8.9624,8.9739,8.9855,8.9624,8.9393,8.9094,8.8756,8.8718,8.8863,8.9479,8.9547,8.9787,9.0402,9.071,9.0825,9.0825,9.1056,9.121,9.121,9.121,9.121,9.121,9.097,9.0941,9.1171,9.0171,9.0056,9.1171,9.0171,8.997,9.0816,9.0201,9.0201,9.0825,9.0364,9.0287,9.0479,8.9257,8.7902,4.5475,4.5594,4.5779,4.6557,0.0,0.0,5.3549,5.5821,5.888,6.4805,6.6886,6.8667,7.2014,7.2629,7.286,7.3553,7.2976,7.2661,7.3392,7.3892,7.4315,7.4661,7.4853,7.5091,7.5438,7.5476,7.5476,7.5476,7.5784,7.6015,7.6015,7.6015,7.6015,7.6015,7.6015,7.6015,7.6015,7.6015,7.6015,7.6015,7.6015,7.6707,7.8023,7.8369,7.9254,8.0554,8.0554,8.0746,8.1054,8.0708,8.0785,8.1093,8.1093,8.1093,8.1093,8.1093,8.1093,8.1208,8.2016,8.2401,8.2747,8.3978,8.467,8.5132,8.5478,8.5816,8.6094,8.6094,8.6632,8.7286,8.7825,8.921,9.0432,9.0432,9.0432,9.0432,9.0432,9.0432,9.021,8.9363,8.9479,8.9902,9.0355,9.0432,9.0624,9.1133,9.121,9.121,9.121,9.121,9.121,9.121,9.121,9.121,9.121,9.121,9.121,9.121,9.0393,9.0278,9.1171,9.0355,9.0316,9.1171,9.0701,9.0701,9.121,9.0825,9.0855,9.1171,8.9825,8.8671,4.5671,4.5667,4.609,4.7471,4.6855,0.0,5.4213,5.5208,5.6549,6.3012,6.5628,6.7083,6.8359,6.859,6.9052,7.0559,7.0475,7.0937,7.3046,7.343,7.3738,7.4361,7.3892,7.3776,7.4507,7.4661,7.47,7.47,7.5515,7.6015,7.6015,7.6015,7.6015,7.6015,7.6015,7.6015,7.6015,7.6015,7.6015,7.6015,7.6015,7.6476,7.733,7.8023,7.8823,7.9662,7.9738,8.0246,8.09,8.02,8.04,8.1093,8.1093,8.1093,8.1093,8.1093,8.1093,8.1208,8.2016,8.1823,8.1477,8.3101,8.3678,8.3901,8.467,8.5478,8.6132,8.6209,8.744,8.8718,8.8795,9.0017,9.121,9.121,9.121,9.121,9.121,9.121,9.0979,9.0201,9.0663,9.121,9.121,9.121,9.121,9.121,9.121,9.121,9.121,9.121,9.121,9.121,9.121,9.121,9.121,9.121,9.121,9.121,9.047,9.0393,9.1171,9.047,9.0393,9.1171,9.121,9.121,9.121,9.0432,9.0355,9.0902,9.0201,8.9752,4.6167,4.6124,4.6547,4.6167,4.6855,0.0,4.7783,4.824,4.9774,5.3813,5.5467,5.7275,6.0819,6.1473,6.1589,6.1935,6.4128,6.7398,7.1822,7.3053,7.3315,7.2745,7.3168,7.3546,7.3738,7.4315,7.47,7.47,7.5515,7.6015,7.6015,7.6015,7.6015,7.6015,7.6015,7.6015,7.6015,7.6015,7.6015,7.6015,7.6015,7.6476,7.733,7.7445,7.7984,7.8792,7.9515,7.99,8.0085,8.0631,8.0939,8.1093,8.1093,8.1093,8.1093,8.1093,8.1093,8.1208,8.2016,8.2208,8.2247,8.3255,8.4055,8.467,8.4854,8.5478,8.6247,8.694,8.7902,8.8872,8.9517,9.0441,9.121,9.121,9.121,9.121,9.121,9.121,9.1171,9.097,9.1095,9.121,9.121,9.121,9.121,9.121,9.121,9.121,9.121,9.121,9.121,9.121,9.121,9.121,9.121,9.121,9.121,9.121,9.1047,9.1018,9.121,9.1056,9.1018,9.121,9.121,9.121,9.121,9.1018,9.0325,8.9218,8.9663,8.8842,4.6398,4.5936,4.6355,4.674,4.6855,0.0,0.0,4.8432,4.8966,5.1928,5.3236,5.4511,5.6626,5.7319,5.7896,5.8781,6.1737,6.4397,6.5705,6.9513,7.2206,7.2213,7.2591,7.3014,7.3469,7.3853,7.4276,7.4661,7.5515,7.6015,7.6015,7.6015,7.6015,7.6015,7.6015,7.6015,7.6015,7.6015,7.6015,7.6015,7.6015,7.6245,7.6669,7.7099,7.7522,7.7946,7.8784,7.94,7.9815,8.0285,8.0708,8.1093,8.1093,8.1093,8.1093,8.1093,8.1093,8.117,8.1554,8.1708,8.1823,8.267,8.3555,8.4324,8.4786,8.5478,8.6286,8.7132,8.8017,8.8902,8.9701,9.0547,9.121,9.121,9.121,9.121,9.121,9.121,9.121,9.121,9.121,9.121,9.121,9.121,9.121,9.121,9.121,9.121,9.121,9.121,9.121,9.121,9.121,9.121,9.121,9.121,9.121,9.121,9.121,9.121,9.121,9.121,9.121,9.121,9.121,9.121,9.121,9.121,9.0556,8.9325,8.9701,8.927,4.7552,4.6706,4.7014,4.7894,4.7317,4.7283,0.0,0.0,0.0,5.1356,5.2318,5.2784,5.2784,5.3323,5.417,5.5395,5.8698,6.0314,5.8127,6.3974,6.8783,6.9636,7.0636,7.1437,7.1968,7.2048,7.2786,7.4553,7.448,7.4795,7.5938,7.5822,7.5822,7.5976,7.6015,7.6015,7.6015,7.6015,7.6015,7.6015,7.6015,7.6015,7.6015,7.6746,7.7061,7.7099,7.8099,7.8907,7.9592,7.99,8.0477,8.1093,8.1093,8.1093,8.1093,8.1093,8.1093,8.1093,8.1093,8.1208,8.1439,8.2093,8.3016,8.4016,8.4863,8.5593,8.6324,8.7363,8.8179,8.891,8.9893,9.0663,9.121,9.121,9.121,9.121,9.121,9.121,9.121,9.121,9.121,9.121,9.121,9.121,9.121,9.121,9.121,9.121,9.121,9.121,9.121,9.121,9.121,9.121,9.121,9.121,9.121,9.121,9.121,9.121,9.121,9.121,9.121,9.121,9.121,9.121,9.121,9.121,9.0671,8.9663,8.969,8.9561,5.1246,5.0625,5.0697,4.862,4.9125,4.9437,4.6898,0.0,4.7043,4.6552,0.0,4.659,4.659,0.0,0.0,4.597,5.0005,5.2851,5.1823,5.6357,6.005,6.0858,6.4942,6.7443,6.6821,6.6806,6.9028,7.4291,7.0734,7.0533,7.5714,7.5284,7.5207,7.5976,7.6015,7.6015,7.6015,7.6015,7.6015,7.6015,7.6015,7.6015,7.6015,7.6092,7.613,7.6245,7.783,7.8561,7.8754,8.0323,8.1016,8.1093,8.1093,8.1093,8.1093,8.1093,8.1093,8.1093,8.1093,8.1554,8.217,8.2285,8.3401,8.4901,8.5709,8.6017,8.644,8.8094,8.8641,8.9064,9.0633,9.1133,9.121,9.121,9.121,9.121,9.121,9.121,9.121,9.121,9.121,9.121,9.121,9.121,9.121,9.121,9.121,9.121,9.121,9.121,9.121,9.121,9.121,9.121,9.121,9.121,9.121,9.121,9.121,9.121,9.121,9.121,9.121,9.121,9.121,9.121,9.121,9.121,9.0402,8.8855,8.8978,8.8275,5.1707,5.201,5.2818,5.024,5.051,5.0625,4.7702,4.6586,4.6052,4.5667,0.0,0.0,0.0,0.0,0.0,0.0,4.8509,5.0202,4.7398,5.1818,5.6198,5.8544,6.1089,6.332,6.4974,6.5637,6.7576,7.1521,6.9406,6.9881,7.4322,7.513,7.563,7.5976,7.6015,7.6015,7.6015,7.6015,7.6015,7.6015,7.6015,7.6015,7.6015,7.6015,7.6284,7.6823,7.7984,7.8792,7.9361,8.0592,8.1093,8.1093,8.1093,8.1093,8.1093,8.1093,8.14,8.1785,8.1785,8.2362,8.3131,8.3632,8.4632,8.5662,8.6017,8.644,8.7094,8.8372,8.9017,8.9671,9.0902,9.121,9.121,9.121,9.121,9.121,9.121,9.121,9.121,9.121,9.121,9.121,9.121,9.121,9.121,9.121,9.121,9.121,9.121,9.121,9.121,9.121,9.121,9.121,9.121,9.121,9.121,9.121,9.121,9.121,9.121,9.1672,9.171,9.121,9.171,9.171,9.121,9.0762,8.9706,8.8107,8.8193,8.7391,5.3746,5.428,5.5049,5.1553,5.1125,5.0851,4.8048,4.7014,4.6436,4.5744,4.6167,0.0,0.0,0.0,4.5518,0.0,0.0,4.8052,4.447,4.8086,5.2049,5.4511,5.6588,5.9011,6.2198,6.2263,6.3854,6.7975,6.6454,6.7731,7.3199,7.4437,7.5284,7.5976,7.6015,7.6015,7.6015,7.6015,7.6015,7.6015,7.6015,7.6015,7.6015,7.6015,7.6361,7.6984,7.8061,7.8869,7.9515,8.0631,8.1093,8.1093,8.1093,8.1093,8.1093,8.1093,8.1593,8.2285,8.2285,8.3016,8.4093,8.4939,8.5632,8.6094,8.6094,8.6555,8.7286,8.841,8.9133,8.9825,9.0941,9.121,9.121,9.121,9.121,9.121,9.121,9.121,9.121,9.121,9.121,9.121,9.121,9.121,9.121,9.121,9.121,9.121,9.121,9.121,9.121,9.121,9.121,9.121,9.121,9.121,9.121,9.121,9.121,9.121,9.121,9.2056,9.2095,9.121,9.2287,9.2402,9.1556,9.1041,8.9963,8.841,8.7528,8.6389,5.9204,5.8665,5.7934,5.213,5.0707,4.9861,4.6436,4.7552,4.8591,4.609,4.7552,4.8514,4.6052,0.0,0.0,0.0,0.0,0.0,0.0,4.4705,4.5859,4.5975,5.0394,5.4428,5.7,5.4398,5.5932,6.4146,6.029,6.2241,7.2944,7.2745,7.3444,7.5938,7.6015,7.6015,7.6015,7.6015,7.6015,7.6015,7.6015,7.6015,7.6015,7.6015,7.6015,7.613,7.7792,7.8523,7.8677,8.04,8.1093,8.1093,8.1093,8.1093,8.1093,8.1093,8.1593,8.2285,8.2285,8.3439,8.497,8.5786,8.6094,8.6094,8.6094,8.6132,8.6517,8.8218,8.8718,8.9133,9.0787,9.121,9.121,9.121,9.121,9.121,9.121,9.121,9.121,9.121,9.121,9.121,9.121,9.121,9.121,9.121,9.121,9.121,9.121,9.121,9.121,9.121,9.121,9.121,9.121,9.121,9.121,9.121,9.121,9.121,9.121,9.2056,9.2095,9.121,9.2826,9.3249,9.2441,9.2484,9.1751,9.0231,8.7118,8.5237,6.2858,6.432,6.4551,5.7473,5.6126,5.4895,4.8663,4.8355,4.8668,4.6129,4.7629,4.8629,4.6052,0.0,0.0,0.0,0.0,0.0,0.0,4.4397,4.4744,4.4744,4.8783,5.19,5.2741,5.3355,5.6018,6.1672,6.1054,6.3519,7.0591,7.1745,7.3091,7.5084,7.513,7.5438,7.5976,7.6015,7.6015,7.6015,7.6015,7.6015,7.6015,7.6015,7.6322,7.6907,7.8023,7.8823,7.9438,8.0631,8.1093,8.1093,8.1093,8.1093,8.1093,8.1093,8.1977,8.3332,8.4439,8.5209,8.5747,8.6017,8.6094,8.6094,8.6094,8.6901,8.7948,8.8526,8.9479,9.0479,9.1056,9.121,9.121,9.121,9.121,9.121,9.121,9.121,9.121,9.121,9.121,9.121,9.121,9.121,9.121,9.121,9.121,9.121,9.121,9.121,9.121,9.121,9.121,9.121,9.121,9.1748,9.1825,9.1248,9.2249,9.2633,9.2095,9.3403,9.3758,9.2864,9.3989,9.3899,9.2571,9.2131,9.1159,8.9614,8.7524,8.5812,6.6128,6.7782,6.8167,6.1698,6.0467,5.9011,5.1972,5.1279,5.1015,4.7283,4.8052,4.8817,4.686,0.0,0.0,0.0,0.0,0.0,0.0,4.4513,4.4436,4.4744,4.7206,4.936,5.0592,5.1092,5.3477,5.8594,5.9517,6.2056,6.716,6.9898,7.2206,7.4199,7.4546,7.513,7.5976,7.6015,7.6169,7.6476,7.613,7.6169,7.6438,7.613,7.6322,7.6899,7.8023,7.883,7.9438,8.0592,8.1093,8.1093,8.1093,8.1285,8.1516,8.1516,8.2593,8.4247,8.5632,8.6094,8.6094,8.6094,8.6324,8.6555,8.6555,8.7555,8.8833,8.941,9.0133,9.0902,9.1518,9.1441,9.121,9.121,9.121,9.121,9.121,9.121,9.121,9.121,9.1441,9.1556,9.1248,9.1479,9.1556,9.1248,9.121,9.1325,9.1633,9.1402,9.1441,9.2018,9.1825,9.1787,9.2056,9.2326,9.2249,9.171,9.2672,9.3018,9.2518,9.4104,9.4758,9.4181,9.5018,9.4936,9.3893,9.2948,9.1982,9.0939,8.8528,8.6738]}]]